<?xml version="1.0" encoding="UTF-8" standalone="no" ?>
<gpx xmlns="http://www.topografix.com/GPX/1/1" xmlns:xsi="http://www.w3.org/2001/XMLSchema-instance" xsi:schemaLocation="http://www.topografix.com/GPX/1/1 http://www.topografix.com/GPX/1/1/gpx.xsd" version="1.1" creator="VisuGPX - https://www.visugpx.com">
  <metadata>
    <name>Vassieux en Vercors 35km</name>
    <desc><![CDATA[J2  Fonds d'Urles - fait le 17/09/2024]]></desc>
  </metadata>
  <wpt lat="44.84843" lon="5.37159">
    <ele>1190.1</ele>
    <name><![CDATA[Les Chalets Natures]]></name>
    <type><![CDATA[hotel]]></type>
  </wpt>
  <wpt lat="44.87911" lon="5.34489">
    <ele>1586.6</ele>
    <cmt><![CDATA[présencesur une dizaine de mètre  de plaques tres glissantes ]]></cmt>
    <type><![CDATA[danger]]></type>
  </wpt>
  <wpt lat="44.89379" lon="5.32009">
    <ele>1477.9</ele>
    <desc><![CDATA[a flan de précipite - bien rester dans le parc ]]></desc>
    <type><![CDATA[danger]]></type>
  </wpt>
  <trk>
    <name><![CDATA[2024-09-17 19:06:31]]></name>
    <extensions>
      <line xmlns="http://www.topografix.com/GPX/gpx_style/0/2">
        <color>ff0019</color>
        <width>4</width>
      </line>
    </extensions>
    <trkseg>
      <trkpt lat="44.84853" lon="5.37195">
        <ele>1195.06</ele>
        <time>2024-09-16T15:28:06Z</time>
      </trkpt>
      <trkpt lat="44.84853" lon="5.37195">
        <ele>1195.06</ele>
        <time>2024-09-16T15:28:07Z</time>
      </trkpt>
      <trkpt lat="44.84862" lon="5.37192">
        <ele>1202.75</ele>
        <time>2024-09-17T08:08:13Z</time>
      </trkpt>
      <trkpt lat="44.84861" lon="5.37192">
        <ele>1203.23</ele>
        <time>2024-09-17T08:08:28Z</time>
      </trkpt>
      <trkpt lat="44.84861" lon="5.37193">
        <ele>1204.19</ele>
        <time>2024-09-17T08:08:33Z</time>
      </trkpt>
      <trkpt lat="44.84855" lon="5.37195">
        <ele>1204.19</ele>
        <time>2024-09-17T08:08:49Z</time>
      </trkpt>
      <trkpt lat="44.84853" lon="5.37198">
        <ele>1204.19</ele>
        <time>2024-09-17T08:09:07Z</time>
      </trkpt>
      <trkpt lat="44.8485" lon="5.37198">
        <ele>1204.19</ele>
        <time>2024-09-17T08:09:24Z</time>
      </trkpt>
      <trkpt lat="44.84848" lon="5.37197">
        <ele>1205.15</ele>
        <time>2024-09-17T08:09:40Z</time>
      </trkpt>
      <trkpt lat="44.84846" lon="5.37195">
        <ele>1206.11</ele>
        <time>2024-09-17T08:10:01Z</time>
      </trkpt>
      <trkpt lat="44.84843" lon="5.37191">
        <ele>1206.59</ele>
        <time>2024-09-17T08:10:19Z</time>
      </trkpt>
      <trkpt lat="44.8484" lon="5.37194">
        <ele>1206.59</ele>
        <time>2024-09-17T08:10:23Z</time>
      </trkpt>
      <trkpt lat="44.84828" lon="5.37184">
        <ele>1205.15</ele>
        <time>2024-09-17T08:10:37Z</time>
      </trkpt>
      <trkpt lat="44.8484" lon="5.37179">
        <ele>1202.27</ele>
        <time>2024-09-17T08:10:53Z</time>
      </trkpt>
      <trkpt lat="44.84842" lon="5.37182">
        <ele>1199.38</ele>
        <time>2024-09-17T08:11:07Z</time>
      </trkpt>
      <trkpt lat="44.84841" lon="5.37195">
        <ele>1201.3</ele>
        <time>2024-09-17T08:11:27Z</time>
      </trkpt>
      <trkpt lat="44.84829" lon="5.3721">
        <ele>1204.19</ele>
        <time>2024-09-17T08:11:44Z</time>
      </trkpt>
      <trkpt lat="44.84825" lon="5.37221">
        <ele>1203.71</ele>
        <time>2024-09-17T08:11:55Z</time>
      </trkpt>
      <trkpt lat="44.84821" lon="5.37233">
        <ele>1202.75</ele>
        <time>2024-09-17T08:12:06Z</time>
      </trkpt>
      <trkpt lat="44.84804" lon="5.37228">
        <ele>1201.79</ele>
        <time>2024-09-17T08:12:24Z</time>
      </trkpt>
      <trkpt lat="44.84784" lon="5.37224">
        <ele>1201.3</ele>
        <time>2024-09-17T08:12:43Z</time>
      </trkpt>
      <trkpt lat="44.84762" lon="5.37216">
        <ele>1200.82</ele>
        <time>2024-09-17T08:13:01Z</time>
      </trkpt>
      <trkpt lat="44.8475" lon="5.37212">
        <ele>1200.34</ele>
        <time>2024-09-17T08:13:10Z</time>
      </trkpt>
      <trkpt lat="44.84732" lon="5.37213">
        <ele>1201.79</ele>
        <time>2024-09-17T08:13:31Z</time>
      </trkpt>
      <trkpt lat="44.84729" lon="5.37214">
        <ele>1201.3</ele>
        <time>2024-09-17T08:13:51Z</time>
      </trkpt>
      <trkpt lat="44.84725" lon="5.37209">
        <ele>1206.11</ele>
        <time>2024-09-17T08:14:12Z</time>
      </trkpt>
      <trkpt lat="44.84705" lon="5.37209">
        <ele>1207.55</ele>
        <time>2024-09-17T08:14:29Z</time>
      </trkpt>
      <trkpt lat="44.84674" lon="5.37206">
        <ele>1206.11</ele>
        <time>2024-09-17T08:14:50Z</time>
      </trkpt>
      <trkpt lat="44.8465" lon="5.372">
        <ele>1206.59</ele>
        <time>2024-09-17T08:15:06Z</time>
      </trkpt>
      <trkpt lat="44.84621" lon="5.37189">
        <ele>1207.07</ele>
        <time>2024-09-17T08:15:25Z</time>
      </trkpt>
      <trkpt lat="44.84599" lon="5.37182">
        <ele>1206.59</ele>
        <time>2024-09-17T08:15:41Z</time>
      </trkpt>
      <trkpt lat="44.84595" lon="5.3718">
        <ele>1206.11</ele>
        <time>2024-09-17T08:15:44Z</time>
      </trkpt>
      <trkpt lat="44.84568" lon="5.37176">
        <ele>1205.15</ele>
        <time>2024-09-17T08:16:00Z</time>
      </trkpt>
      <trkpt lat="44.84547" lon="5.37158">
        <ele>1205.15</ele>
        <time>2024-09-17T08:16:17Z</time>
      </trkpt>
      <trkpt lat="44.84537" lon="5.37148">
        <ele>1204.67</ele>
        <time>2024-09-17T08:16:32Z</time>
      </trkpt>
      <trkpt lat="44.8452" lon="5.37132">
        <ele>1206.59</ele>
        <time>2024-09-17T08:16:53Z</time>
      </trkpt>
      <trkpt lat="44.84495" lon="5.37115">
        <ele>1207.55</ele>
        <time>2024-09-17T08:17:10Z</time>
      </trkpt>
      <trkpt lat="44.8447" lon="5.3709">
        <ele>1207.07</ele>
        <time>2024-09-17T08:17:29Z</time>
      </trkpt>
      <trkpt lat="44.84442" lon="5.37064">
        <ele>1207.07</ele>
        <time>2024-09-17T08:17:49Z</time>
      </trkpt>
      <trkpt lat="44.84428" lon="5.37047">
        <ele>1205.63</ele>
        <time>2024-09-17T08:18:03Z</time>
      </trkpt>
      <trkpt lat="44.84427" lon="5.3702">
        <ele>1206.11</ele>
        <time>2024-09-17T08:18:13Z</time>
      </trkpt>
      <trkpt lat="44.8443" lon="5.37018">
        <ele>1207.07</ele>
        <time>2024-09-17T08:18:15Z</time>
      </trkpt>
      <trkpt lat="44.84432" lon="5.37017">
        <ele>1207.55</ele>
        <time>2024-09-17T08:18:16Z</time>
      </trkpt>
      <trkpt lat="44.8445" lon="5.37018">
        <ele>1209</ele>
        <time>2024-09-17T08:18:31Z</time>
      </trkpt>
      <trkpt lat="44.84485" lon="5.37027">
        <ele>1210.92</ele>
        <time>2024-09-17T08:18:53Z</time>
      </trkpt>
      <trkpt lat="44.84512" lon="5.37029">
        <ele>1211.4</ele>
        <time>2024-09-17T08:19:13Z</time>
      </trkpt>
      <trkpt lat="44.84547" lon="5.37019">
        <ele>1211.88</ele>
        <time>2024-09-17T08:19:35Z</time>
      </trkpt>
      <trkpt lat="44.84566" lon="5.37002">
        <ele>1208.51</ele>
        <time>2024-09-17T08:19:53Z</time>
      </trkpt>
      <trkpt lat="44.84577" lon="5.36992">
        <ele>1206.59</ele>
        <time>2024-09-17T08:20:00Z</time>
      </trkpt>
      <trkpt lat="44.84604" lon="5.36967">
        <ele>1205.63</ele>
        <time>2024-09-17T08:20:19Z</time>
      </trkpt>
      <trkpt lat="44.84607" lon="5.36964">
        <ele>1207.07</ele>
        <time>2024-09-17T08:20:21Z</time>
      </trkpt>
      <trkpt lat="44.84608" lon="5.36963">
        <ele>1207.55</ele>
        <time>2024-09-17T08:20:22Z</time>
      </trkpt>
      <trkpt lat="44.84612" lon="5.3696">
        <ele>1207.55</ele>
        <time>2024-09-17T08:20:25Z</time>
      </trkpt>
      <trkpt lat="44.84613" lon="5.36959">
        <ele>1207.55</ele>
        <time>2024-09-17T08:20:26Z</time>
      </trkpt>
      <trkpt lat="44.8464" lon="5.36939">
        <ele>1208.03</ele>
        <time>2024-09-17T08:20:47Z</time>
      </trkpt>
      <trkpt lat="44.8466" lon="5.36911">
        <ele>1210.44</ele>
        <time>2024-09-17T08:21:04Z</time>
      </trkpt>
      <trkpt lat="44.84678" lon="5.36898">
        <ele>1211.88</ele>
        <time>2024-09-17T08:21:21Z</time>
      </trkpt>
      <trkpt lat="44.847" lon="5.36895">
        <ele>1213.32</ele>
        <time>2024-09-17T08:21:40Z</time>
      </trkpt>
      <trkpt lat="44.84711" lon="5.36894">
        <ele>1213.8</ele>
        <time>2024-09-17T08:21:46Z</time>
      </trkpt>
      <trkpt lat="44.84713" lon="5.36894">
        <ele>1213.8</ele>
        <time>2024-09-17T08:21:47Z</time>
      </trkpt>
      <trkpt lat="44.84715" lon="5.36894">
        <ele>1213.8</ele>
        <time>2024-09-17T08:21:48Z</time>
      </trkpt>
      <trkpt lat="44.84749" lon="5.36887">
        <ele>1217.65</ele>
        <time>2024-09-17T08:22:09Z</time>
      </trkpt>
      <trkpt lat="44.84783" lon="5.36877">
        <ele>1220.05</ele>
        <time>2024-09-17T08:22:31Z</time>
      </trkpt>
      <trkpt lat="44.84813" lon="5.36871">
        <ele>1220.05</ele>
        <time>2024-09-17T08:22:51Z</time>
      </trkpt>
      <trkpt lat="44.8484" lon="5.36861">
        <ele>1217.17</ele>
        <time>2024-09-17T08:23:10Z</time>
      </trkpt>
      <trkpt lat="44.84868" lon="5.36847">
        <ele>1211.4</ele>
        <time>2024-09-17T08:23:32Z</time>
      </trkpt>
      <trkpt lat="44.84893" lon="5.36822">
        <ele>1206.59</ele>
        <time>2024-09-17T08:23:50Z</time>
      </trkpt>
      <trkpt lat="44.84926" lon="5.3681">
        <ele>1201.3</ele>
        <time>2024-09-17T08:24:12Z</time>
      </trkpt>
      <trkpt lat="44.84938" lon="5.368">
        <ele>1198.9</ele>
        <time>2024-09-17T08:24:21Z</time>
      </trkpt>
      <trkpt lat="44.84968" lon="5.36788">
        <ele>1193.61</ele>
        <time>2024-09-17T08:24:43Z</time>
      </trkpt>
      <trkpt lat="44.85001" lon="5.36782">
        <ele>1191.21</ele>
        <time>2024-09-17T08:25:04Z</time>
      </trkpt>
      <trkpt lat="44.85033" lon="5.36774">
        <ele>1191.69</ele>
        <time>2024-09-17T08:25:27Z</time>
      </trkpt>
      <trkpt lat="44.85066" lon="5.36762">
        <ele>1193.13</ele>
        <time>2024-09-17T08:25:50Z</time>
      </trkpt>
      <trkpt lat="44.85114" lon="5.36754">
        <ele>1196.98</ele>
        <time>2024-09-17T08:26:12Z</time>
      </trkpt>
      <trkpt lat="44.85128" lon="5.36748">
        <ele>1200.82</ele>
        <time>2024-09-17T08:26:31Z</time>
      </trkpt>
      <trkpt lat="44.85144" lon="5.36737">
        <ele>1203.23</ele>
        <time>2024-09-17T08:26:51Z</time>
      </trkpt>
      <trkpt lat="44.85172" lon="5.36727">
        <ele>1205.63</ele>
        <time>2024-09-17T08:27:10Z</time>
      </trkpt>
      <trkpt lat="44.85201" lon="5.36717">
        <ele>1207.55</ele>
        <time>2024-09-17T08:27:24Z</time>
      </trkpt>
      <trkpt lat="44.85236" lon="5.36708">
        <ele>1211.4</ele>
        <time>2024-09-17T08:27:39Z</time>
      </trkpt>
      <trkpt lat="44.85261" lon="5.367">
        <ele>1212.84</ele>
        <time>2024-09-17T08:27:55Z</time>
      </trkpt>
      <trkpt lat="44.85286" lon="5.36689">
        <ele>1212.36</ele>
        <time>2024-09-17T08:28:12Z</time>
      </trkpt>
      <trkpt lat="44.85319" lon="5.36675">
        <ele>1210.92</ele>
        <time>2024-09-17T08:28:33Z</time>
      </trkpt>
      <trkpt lat="44.85342" lon="5.36671">
        <ele>1205.15</ele>
        <time>2024-09-17T08:28:50Z</time>
      </trkpt>
      <trkpt lat="44.85344" lon="5.3667">
        <ele>1204.67</ele>
        <time>2024-09-17T08:28:51Z</time>
      </trkpt>
      <trkpt lat="44.85345" lon="5.36669">
        <ele>1204.67</ele>
        <time>2024-09-17T08:28:52Z</time>
      </trkpt>
      <trkpt lat="44.85371" lon="5.3664">
        <ele>1203.23</ele>
        <time>2024-09-17T08:29:12Z</time>
      </trkpt>
      <trkpt lat="44.85385" lon="5.36597">
        <ele>1205.15</ele>
        <time>2024-09-17T08:29:34Z</time>
      </trkpt>
      <trkpt lat="44.85395" lon="5.36563">
        <ele>1206.11</ele>
        <time>2024-09-17T08:29:52Z</time>
      </trkpt>
      <trkpt lat="44.85396" lon="5.36549">
        <ele>1206.11</ele>
        <time>2024-09-17T08:29:59Z</time>
      </trkpt>
      <trkpt lat="44.85406" lon="5.36501">
        <ele>1205.15</ele>
        <time>2024-09-17T08:30:21Z</time>
      </trkpt>
      <trkpt lat="44.85414" lon="5.36458">
        <ele>1204.19</ele>
        <time>2024-09-17T08:30:43Z</time>
      </trkpt>
      <trkpt lat="44.8542" lon="5.36422">
        <ele>1205.15</ele>
        <time>2024-09-17T08:30:59Z</time>
      </trkpt>
      <trkpt lat="44.85424" lon="5.36386">
        <ele>1204.67</ele>
        <time>2024-09-17T08:31:17Z</time>
      </trkpt>
      <trkpt lat="44.85427" lon="5.36348">
        <ele>1204.67</ele>
        <time>2024-09-17T08:31:37Z</time>
      </trkpt>
      <trkpt lat="44.85428" lon="5.36303">
        <ele>1203.23</ele>
        <time>2024-09-17T08:31:58Z</time>
      </trkpt>
      <trkpt lat="44.85427" lon="5.3627">
        <ele>1201.79</ele>
        <time>2024-09-17T08:32:14Z</time>
      </trkpt>
      <trkpt lat="44.85424" lon="5.36219">
        <ele>1200.34</ele>
        <time>2024-09-17T08:32:37Z</time>
      </trkpt>
      <trkpt lat="44.85424" lon="5.36169">
        <ele>1202.27</ele>
        <time>2024-09-17T08:32:56Z</time>
      </trkpt>
      <trkpt lat="44.85422" lon="5.36142">
        <ele>1205.63</ele>
        <time>2024-09-17T08:33:09Z</time>
      </trkpt>
      <trkpt lat="44.85429" lon="5.3612">
        <ele>1209</ele>
        <time>2024-09-17T08:33:27Z</time>
      </trkpt>
      <trkpt lat="44.85439" lon="5.36116">
        <ele>1208.03</ele>
        <time>2024-09-17T08:33:42Z</time>
      </trkpt>
      <trkpt lat="44.85458" lon="5.361">
        <ele>1204.67</ele>
        <time>2024-09-17T08:34:02Z</time>
      </trkpt>
      <trkpt lat="44.8548" lon="5.36074">
        <ele>1200.82</ele>
        <time>2024-09-17T08:34:22Z</time>
      </trkpt>
      <trkpt lat="44.85499" lon="5.36042">
        <ele>1197.46</ele>
        <time>2024-09-17T08:34:39Z</time>
      </trkpt>
      <trkpt lat="44.8551" lon="5.36042">
        <ele>1199.38</ele>
        <time>2024-09-17T08:34:48Z</time>
      </trkpt>
      <trkpt lat="44.85511" lon="5.36043">
        <ele>1199.38</ele>
        <time>2024-09-17T08:34:49Z</time>
      </trkpt>
      <trkpt lat="44.85538" lon="5.36058">
        <ele>1202.27</ele>
        <time>2024-09-17T08:35:07Z</time>
      </trkpt>
      <trkpt lat="44.85552" lon="5.36086">
        <ele>1203.71</ele>
        <time>2024-09-17T08:35:27Z</time>
      </trkpt>
      <trkpt lat="44.85566" lon="5.36127">
        <ele>1205.15</ele>
        <time>2024-09-17T08:35:47Z</time>
      </trkpt>
      <trkpt lat="44.85574" lon="5.36153">
        <ele>1205.63</ele>
        <time>2024-09-17T08:36:09Z</time>
      </trkpt>
      <trkpt lat="44.85586" lon="5.36195">
        <ele>1206.59</ele>
        <time>2024-09-17T08:36:33Z</time>
      </trkpt>
      <trkpt lat="44.85601" lon="5.3624">
        <ele>1209.96</ele>
        <time>2024-09-17T08:36:52Z</time>
      </trkpt>
      <trkpt lat="44.8562" lon="5.36255">
        <ele>1211.88</ele>
        <time>2024-09-17T08:37:05Z</time>
      </trkpt>
      <trkpt lat="44.85624" lon="5.36257">
        <ele>1212.36</ele>
        <time>2024-09-17T08:37:06Z</time>
      </trkpt>
      <trkpt lat="44.85627" lon="5.36258">
        <ele>1213.32</ele>
        <time>2024-09-17T08:37:07Z</time>
      </trkpt>
      <trkpt lat="44.85645" lon="5.36269">
        <ele>1221.01</ele>
        <time>2024-09-17T08:37:22Z</time>
      </trkpt>
      <trkpt lat="44.85664" lon="5.36284">
        <ele>1224.38</ele>
        <time>2024-09-17T08:37:38Z</time>
      </trkpt>
      <trkpt lat="44.85666" lon="5.36285">
        <ele>1225.34</ele>
        <time>2024-09-17T08:37:41Z</time>
      </trkpt>
      <trkpt lat="44.85617" lon="5.35923">
        <ele>1250.81</ele>
        <time>2024-09-17T08:41:22Z</time>
      </trkpt>
      <trkpt lat="44.85617" lon="5.35904">
        <ele>1250.33</ele>
        <time>2024-09-17T08:41:34Z</time>
      </trkpt>
      <trkpt lat="44.85616" lon="5.3589">
        <ele>1251.29</ele>
        <time>2024-09-17T08:41:41Z</time>
      </trkpt>
      <trkpt lat="44.85624" lon="5.35868">
        <ele>1248.89</ele>
        <time>2024-09-17T08:41:57Z</time>
      </trkpt>
      <trkpt lat="44.85628" lon="5.35841">
        <ele>1242.16</ele>
        <time>2024-09-17T08:42:12Z</time>
      </trkpt>
      <trkpt lat="44.85627" lon="5.35815">
        <ele>1246.01</ele>
        <time>2024-09-17T08:42:27Z</time>
      </trkpt>
      <trkpt lat="44.85626" lon="5.35792">
        <ele>1244.56</ele>
        <time>2024-09-17T08:42:41Z</time>
      </trkpt>
      <trkpt lat="44.85623" lon="5.35773">
        <ele>1239.28</ele>
        <time>2024-09-17T08:42:55Z</time>
      </trkpt>
      <trkpt lat="44.85631" lon="5.35752">
        <ele>1234.47</ele>
        <time>2024-09-17T08:43:12Z</time>
      </trkpt>
      <trkpt lat="44.85631" lon="5.35726">
        <ele>1232.55</ele>
        <time>2024-09-17T08:43:22Z</time>
      </trkpt>
      <trkpt lat="44.85633" lon="5.35715">
        <ele>1233.03</ele>
        <time>2024-09-17T08:43:27Z</time>
      </trkpt>
      <trkpt lat="44.85638" lon="5.35706">
        <ele>1231.59</ele>
        <time>2024-09-17T08:43:32Z</time>
      </trkpt>
      <trkpt lat="44.85653" lon="5.35676">
        <ele>1229.66</ele>
        <time>2024-09-17T08:43:49Z</time>
      </trkpt>
      <trkpt lat="44.85683" lon="5.35625">
        <ele>1232.55</ele>
        <time>2024-09-17T08:44:22Z</time>
      </trkpt>
      <trkpt lat="44.85695" lon="5.35606">
        <ele>1236.87</ele>
        <time>2024-09-17T08:44:38Z</time>
      </trkpt>
      <trkpt lat="44.85697" lon="5.356">
        <ele>1237.83</ele>
        <time>2024-09-17T08:44:43Z</time>
      </trkpt>
      <trkpt lat="44.85718" lon="5.35583">
        <ele>1241.2</ele>
        <time>2024-09-17T08:45:02Z</time>
      </trkpt>
      <trkpt lat="44.85737" lon="5.35564">
        <ele>1242.64</ele>
        <time>2024-09-17T08:45:20Z</time>
      </trkpt>
      <trkpt lat="44.8576" lon="5.35543">
        <ele>1242.64</ele>
        <time>2024-09-17T08:45:38Z</time>
      </trkpt>
      <trkpt lat="44.85785" lon="5.3553">
        <ele>1242.64</ele>
        <time>2024-09-17T08:45:57Z</time>
      </trkpt>
      <trkpt lat="44.85806" lon="5.35527">
        <ele>1242.64</ele>
        <time>2024-09-17T08:46:12Z</time>
      </trkpt>
      <trkpt lat="44.8583" lon="5.35522">
        <ele>1243.6</ele>
        <time>2024-09-17T08:46:28Z</time>
      </trkpt>
      <trkpt lat="44.85855" lon="5.35519">
        <ele>1247.93</ele>
        <time>2024-09-17T08:46:43Z</time>
      </trkpt>
      <trkpt lat="44.85877" lon="5.35523">
        <ele>1254.66</ele>
        <time>2024-09-17T08:46:58Z</time>
      </trkpt>
      <trkpt lat="44.85897" lon="5.35514">
        <ele>1258.5</ele>
        <time>2024-09-17T08:47:10Z</time>
      </trkpt>
      <trkpt lat="44.85899" lon="5.35514">
        <ele>1258.5</ele>
        <time>2024-09-17T08:47:11Z</time>
      </trkpt>
      <trkpt lat="44.859" lon="5.35514">
        <ele>1258.5</ele>
        <time>2024-09-17T08:47:12Z</time>
      </trkpt>
      <trkpt lat="44.85905" lon="5.35509">
        <ele>1260.43</ele>
        <time>2024-09-17T08:47:23Z</time>
      </trkpt>
      <trkpt lat="44.85903" lon="5.35489">
        <ele>1260.91</ele>
        <time>2024-09-17T08:47:37Z</time>
      </trkpt>
      <trkpt lat="44.85893" lon="5.35462">
        <ele>1260.91</ele>
        <time>2024-09-17T08:47:53Z</time>
      </trkpt>
      <trkpt lat="44.85888" lon="5.35429">
        <ele>1258.98</ele>
        <time>2024-09-17T08:48:07Z</time>
      </trkpt>
      <trkpt lat="44.85889" lon="5.3541">
        <ele>1258.5</ele>
        <time>2024-09-17T08:48:16Z</time>
      </trkpt>
      <trkpt lat="44.85889" lon="5.35407">
        <ele>1258.5</ele>
        <time>2024-09-17T08:48:17Z</time>
      </trkpt>
      <trkpt lat="44.85889" lon="5.35405">
        <ele>1258.5</ele>
        <time>2024-09-17T08:48:18Z</time>
      </trkpt>
      <trkpt lat="44.8589" lon="5.35403">
        <ele>1258.5</ele>
        <time>2024-09-17T08:48:19Z</time>
      </trkpt>
      <trkpt lat="44.8589" lon="5.354">
        <ele>1258.5</ele>
        <time>2024-09-17T08:48:20Z</time>
      </trkpt>
      <trkpt lat="44.8589" lon="5.35398">
        <ele>1258.5</ele>
        <time>2024-09-17T08:48:21Z</time>
      </trkpt>
      <trkpt lat="44.8589" lon="5.35368">
        <ele>1257.54</ele>
        <time>2024-09-17T08:48:36Z</time>
      </trkpt>
      <trkpt lat="44.85891" lon="5.3534">
        <ele>1257.06</ele>
        <time>2024-09-17T08:48:51Z</time>
      </trkpt>
      <trkpt lat="44.8589" lon="5.35332">
        <ele>1257.06</ele>
        <time>2024-09-17T08:48:55Z</time>
      </trkpt>
      <trkpt lat="44.85889" lon="5.35329">
        <ele>1257.06</ele>
        <time>2024-09-17T08:48:56Z</time>
      </trkpt>
      <trkpt lat="44.85882" lon="5.35303">
        <ele>1256.1</ele>
        <time>2024-09-17T08:49:09Z</time>
      </trkpt>
      <trkpt lat="44.85873" lon="5.35286">
        <ele>1256.1</ele>
        <time>2024-09-17T08:49:18Z</time>
      </trkpt>
      <trkpt lat="44.8587" lon="5.35252">
        <ele>1255.62</ele>
        <time>2024-09-17T08:49:35Z</time>
      </trkpt>
      <trkpt lat="44.85874" lon="5.35221">
        <ele>1251.77</ele>
        <time>2024-09-17T08:49:51Z</time>
      </trkpt>
      <trkpt lat="44.85874" lon="5.35182">
        <ele>1247.93</ele>
        <time>2024-09-17T08:50:09Z</time>
      </trkpt>
      <trkpt lat="44.8588" lon="5.35142">
        <ele>1242.64</ele>
        <time>2024-09-17T08:50:29Z</time>
      </trkpt>
      <trkpt lat="44.8588" lon="5.35134">
        <ele>1243.12</ele>
        <time>2024-09-17T08:50:30Z</time>
      </trkpt>
      <trkpt lat="44.85882" lon="5.35129">
        <ele>1243.6</ele>
        <time>2024-09-17T08:50:31Z</time>
      </trkpt>
      <trkpt lat="44.85897" lon="5.35109">
        <ele>1243.12</ele>
        <time>2024-09-17T08:50:48Z</time>
      </trkpt>
      <trkpt lat="44.85901" lon="5.35102">
        <ele>1242.64</ele>
        <time>2024-09-17T08:50:53Z</time>
      </trkpt>
      <trkpt lat="44.85902" lon="5.351">
        <ele>1242.64</ele>
        <time>2024-09-17T08:50:54Z</time>
      </trkpt>
      <trkpt lat="44.85914" lon="5.35071">
        <ele>1241.68</ele>
        <time>2024-09-17T08:51:10Z</time>
      </trkpt>
      <trkpt lat="44.85929" lon="5.35036">
        <ele>1241.2</ele>
        <time>2024-09-17T08:51:29Z</time>
      </trkpt>
      <trkpt lat="44.85934" lon="5.35021">
        <ele>1243.6</ele>
        <time>2024-09-17T08:51:35Z</time>
      </trkpt>
      <trkpt lat="44.85935" lon="5.35018">
        <ele>1244.56</ele>
        <time>2024-09-17T08:51:36Z</time>
      </trkpt>
      <trkpt lat="44.85951" lon="5.34996">
        <ele>1244.08</ele>
        <time>2024-09-17T08:51:52Z</time>
      </trkpt>
      <trkpt lat="44.85966" lon="5.34967">
        <ele>1243.12</ele>
        <time>2024-09-17T08:52:10Z</time>
      </trkpt>
      <trkpt lat="44.85977" lon="5.34944">
        <ele>1246.01</ele>
        <time>2024-09-17T08:52:27Z</time>
      </trkpt>
      <trkpt lat="44.85996" lon="5.34914">
        <ele>1251.77</ele>
        <time>2024-09-17T08:52:47Z</time>
      </trkpt>
      <trkpt lat="44.86021" lon="5.34886">
        <ele>1264.27</ele>
        <time>2024-09-17T08:53:04Z</time>
      </trkpt>
      <trkpt lat="44.86036" lon="5.34869">
        <ele>1269.56</ele>
        <time>2024-09-17T08:53:21Z</time>
      </trkpt>
      <trkpt lat="44.86023" lon="5.34855">
        <ele>1275.81</ele>
        <time>2024-09-17T08:53:37Z</time>
      </trkpt>
      <trkpt lat="44.85996" lon="5.34836">
        <ele>1278.69</ele>
        <time>2024-09-17T08:54:00Z</time>
      </trkpt>
      <trkpt lat="44.85969" lon="5.3483">
        <ele>1285.42</ele>
        <time>2024-09-17T08:54:17Z</time>
      </trkpt>
      <trkpt lat="44.85943" lon="5.34811">
        <ele>1292.15</ele>
        <time>2024-09-17T08:54:35Z</time>
      </trkpt>
      <trkpt lat="44.85923" lon="5.34794">
        <ele>1297.92</ele>
        <time>2024-09-17T08:54:52Z</time>
      </trkpt>
      <trkpt lat="44.85905" lon="5.34778">
        <ele>1299.36</ele>
        <time>2024-09-17T08:55:07Z</time>
      </trkpt>
      <trkpt lat="44.85881" lon="5.34764">
        <ele>1303.2</ele>
        <time>2024-09-17T08:55:23Z</time>
      </trkpt>
      <trkpt lat="44.85855" lon="5.34747">
        <ele>1308.97</ele>
        <time>2024-09-17T08:55:40Z</time>
      </trkpt>
      <trkpt lat="44.85837" lon="5.34733">
        <ele>1310.9</ele>
        <time>2024-09-17T08:55:56Z</time>
      </trkpt>
      <trkpt lat="44.85816" lon="5.34715">
        <ele>1313.3</ele>
        <time>2024-09-17T08:56:14Z</time>
      </trkpt>
      <trkpt lat="44.85794" lon="5.34688">
        <ele>1316.18</ele>
        <time>2024-09-17T08:56:34Z</time>
      </trkpt>
      <trkpt lat="44.85769" lon="5.34668">
        <ele>1318.1</ele>
        <time>2024-09-17T08:56:51Z</time>
      </trkpt>
      <trkpt lat="44.8574" lon="5.34656">
        <ele>1325.31</ele>
        <time>2024-09-17T08:57:06Z</time>
      </trkpt>
      <trkpt lat="44.85721" lon="5.34632">
        <ele>1329.64</ele>
        <time>2024-09-17T08:57:23Z</time>
      </trkpt>
      <trkpt lat="44.85699" lon="5.34613">
        <ele>1334.93</ele>
        <time>2024-09-17T08:57:40Z</time>
      </trkpt>
      <trkpt lat="44.85681" lon="5.34589">
        <ele>1336.85</ele>
        <time>2024-09-17T08:57:59Z</time>
      </trkpt>
      <trkpt lat="44.85662" lon="5.34571">
        <ele>1337.33</ele>
        <time>2024-09-17T08:58:18Z</time>
      </trkpt>
      <trkpt lat="44.85639" lon="5.34545">
        <ele>1337.81</ele>
        <time>2024-09-17T08:58:37Z</time>
      </trkpt>
      <trkpt lat="44.85638" lon="5.34544">
        <ele>1337.81</ele>
        <time>2024-09-17T08:58:38Z</time>
      </trkpt>
      <trkpt lat="44.85636" lon="5.34543">
        <ele>1337.81</ele>
        <time>2024-09-17T08:58:39Z</time>
      </trkpt>
      <trkpt lat="44.85612" lon="5.3451">
        <ele>1339.73</ele>
        <time>2024-09-17T08:58:59Z</time>
      </trkpt>
      <trkpt lat="44.85611" lon="5.34508">
        <ele>1339.73</ele>
        <time>2024-09-17T08:59:00Z</time>
      </trkpt>
      <trkpt lat="44.8561" lon="5.34505">
        <ele>1339.73</ele>
        <time>2024-09-17T08:59:01Z</time>
      </trkpt>
      <trkpt lat="44.85609" lon="5.34503">
        <ele>1340.22</ele>
        <time>2024-09-17T08:59:02Z</time>
      </trkpt>
      <trkpt lat="44.85608" lon="5.34501">
        <ele>1340.7</ele>
        <time>2024-09-17T08:59:03Z</time>
      </trkpt>
      <trkpt lat="44.85607" lon="5.345">
        <ele>1341.18</ele>
        <time>2024-09-17T08:59:04Z</time>
      </trkpt>
      <trkpt lat="44.8559" lon="5.34484">
        <ele>1343.1</ele>
        <time>2024-09-17T08:59:23Z</time>
      </trkpt>
      <trkpt lat="44.85586" lon="5.34482">
        <ele>1343.58</ele>
        <time>2024-09-17T08:59:27Z</time>
      </trkpt>
      <trkpt lat="44.85566" lon="5.34466">
        <ele>1346.94</ele>
        <time>2024-09-17T08:59:45Z</time>
      </trkpt>
      <trkpt lat="44.85538" lon="5.34446">
        <ele>1354.15</ele>
        <time>2024-09-17T09:00:05Z</time>
      </trkpt>
      <trkpt lat="44.85521" lon="5.34433">
        <ele>1354.63</ele>
        <time>2024-09-17T09:00:18Z</time>
      </trkpt>
      <trkpt lat="44.8552" lon="5.34431">
        <ele>1354.63</ele>
        <time>2024-09-17T09:00:19Z</time>
      </trkpt>
      <trkpt lat="44.85494" lon="5.3443">
        <ele>1355.12</ele>
        <time>2024-09-17T09:00:36Z</time>
      </trkpt>
      <trkpt lat="44.85476" lon="5.34424">
        <ele>1356.08</ele>
        <time>2024-09-17T09:00:50Z</time>
      </trkpt>
      <trkpt lat="44.85453" lon="5.34418">
        <ele>1358</ele>
        <time>2024-09-17T09:01:07Z</time>
      </trkpt>
      <trkpt lat="44.85427" lon="5.34402">
        <ele>1360.88</ele>
        <time>2024-09-17T09:01:25Z</time>
      </trkpt>
      <trkpt lat="44.854" lon="5.34384">
        <ele>1361.84</ele>
        <time>2024-09-17T09:01:42Z</time>
      </trkpt>
      <trkpt lat="44.85365" lon="5.34366">
        <ele>1366.17</ele>
        <time>2024-09-17T09:02:02Z</time>
      </trkpt>
      <trkpt lat="44.85339" lon="5.34349">
        <ele>1370.5</ele>
        <time>2024-09-17T09:02:17Z</time>
      </trkpt>
      <trkpt lat="44.85313" lon="5.34335">
        <ele>1375.78</ele>
        <time>2024-09-17T09:02:32Z</time>
      </trkpt>
      <trkpt lat="44.85287" lon="5.34328">
        <ele>1381.07</ele>
        <time>2024-09-17T09:02:49Z</time>
      </trkpt>
      <trkpt lat="44.85269" lon="5.34312">
        <ele>1385.88</ele>
        <time>2024-09-17T09:03:00Z</time>
      </trkpt>
      <trkpt lat="44.85264" lon="5.34291">
        <ele>1387.8</ele>
        <time>2024-09-17T09:03:14Z</time>
      </trkpt>
      <trkpt lat="44.85264" lon="5.34283">
        <ele>1388.28</ele>
        <time>2024-09-17T09:03:31Z</time>
      </trkpt>
      <trkpt lat="44.85274" lon="5.34277">
        <ele>1387.32</ele>
        <time>2024-09-17T09:03:49Z</time>
      </trkpt>
      <trkpt lat="44.85296" lon="5.34269">
        <ele>1385.4</ele>
        <time>2024-09-17T09:04:09Z</time>
      </trkpt>
      <trkpt lat="44.85317" lon="5.34262">
        <ele>1382.99</ele>
        <time>2024-09-17T09:04:24Z</time>
      </trkpt>
      <trkpt lat="44.85344" lon="5.34258">
        <ele>1379.63</ele>
        <time>2024-09-17T09:04:41Z</time>
      </trkpt>
      <trkpt lat="44.8537" lon="5.34261">
        <ele>1382.51</ele>
        <time>2024-09-17T09:04:59Z</time>
      </trkpt>
      <trkpt lat="44.85395" lon="5.34263">
        <ele>1385.88</ele>
        <time>2024-09-17T09:05:16Z</time>
      </trkpt>
      <trkpt lat="44.85426" lon="5.34265">
        <ele>1386.36</ele>
        <time>2024-09-17T09:05:35Z</time>
      </trkpt>
      <trkpt lat="44.8545" lon="5.34264">
        <ele>1387.32</ele>
        <time>2024-09-17T09:05:52Z</time>
      </trkpt>
      <trkpt lat="44.85452" lon="5.34264">
        <ele>1387.32</ele>
        <time>2024-09-17T09:05:53Z</time>
      </trkpt>
      <trkpt lat="44.85476" lon="5.34269">
        <ele>1387.32</ele>
        <time>2024-09-17T09:06:11Z</time>
      </trkpt>
      <trkpt lat="44.85502" lon="5.34273">
        <ele>1387.32</ele>
        <time>2024-09-17T09:06:29Z</time>
      </trkpt>
      <trkpt lat="44.85534" lon="5.34291">
        <ele>1387.8</ele>
        <time>2024-09-17T09:06:51Z</time>
      </trkpt>
      <trkpt lat="44.85563" lon="5.34312">
        <ele>1386.84</ele>
        <time>2024-09-17T09:07:10Z</time>
      </trkpt>
      <trkpt lat="44.85591" lon="5.34336">
        <ele>1389.24</ele>
        <time>2024-09-17T09:07:26Z</time>
      </trkpt>
      <trkpt lat="44.85608" lon="5.3435">
        <ele>1393.57</ele>
        <time>2024-09-17T09:07:41Z</time>
      </trkpt>
      <trkpt lat="44.8563" lon="5.34358">
        <ele>1394.53</ele>
        <time>2024-09-17T09:07:59Z</time>
      </trkpt>
      <trkpt lat="44.85655" lon="5.3436">
        <ele>1395.01</ele>
        <time>2024-09-17T09:08:17Z</time>
      </trkpt>
      <trkpt lat="44.85688" lon="5.34363">
        <ele>1394.05</ele>
        <time>2024-09-17T09:08:38Z</time>
      </trkpt>
      <trkpt lat="44.85721" lon="5.34361">
        <ele>1391.17</ele>
        <time>2024-09-17T09:08:56Z</time>
      </trkpt>
      <trkpt lat="44.85755" lon="5.34355">
        <ele>1390.68</ele>
        <time>2024-09-17T09:09:17Z</time>
      </trkpt>
      <trkpt lat="44.85781" lon="5.34344">
        <ele>1394.05</ele>
        <time>2024-09-17T09:09:35Z</time>
      </trkpt>
      <trkpt lat="44.85808" lon="5.34352">
        <ele>1391.65</ele>
        <time>2024-09-17T09:09:56Z</time>
      </trkpt>
      <trkpt lat="44.85838" lon="5.34357">
        <ele>1387.8</ele>
        <time>2024-09-17T09:10:13Z</time>
      </trkpt>
      <trkpt lat="44.85865" lon="5.34358">
        <ele>1382.51</ele>
        <time>2024-09-17T09:10:31Z</time>
      </trkpt>
      <trkpt lat="44.85894" lon="5.34348">
        <ele>1383.47</ele>
        <time>2024-09-17T09:10:49Z</time>
      </trkpt>
      <trkpt lat="44.85922" lon="5.34334">
        <ele>1388.76</ele>
        <time>2024-09-17T09:11:08Z</time>
      </trkpt>
      <trkpt lat="44.8595" lon="5.34321">
        <ele>1390.2</ele>
        <time>2024-09-17T09:11:27Z</time>
      </trkpt>
      <trkpt lat="44.85964" lon="5.34313">
        <ele>1389.24</ele>
        <time>2024-09-17T09:11:40Z</time>
      </trkpt>
      <trkpt lat="44.8599" lon="5.34307">
        <ele>1388.28</ele>
        <time>2024-09-17T09:11:56Z</time>
      </trkpt>
      <trkpt lat="44.86017" lon="5.34303">
        <ele>1391.17</ele>
        <time>2024-09-17T09:12:12Z</time>
      </trkpt>
      <trkpt lat="44.86049" lon="5.34304">
        <ele>1393.57</ele>
        <time>2024-09-17T09:12:32Z</time>
      </trkpt>
      <trkpt lat="44.86086" lon="5.343">
        <ele>1395.49</ele>
        <time>2024-09-17T09:12:52Z</time>
      </trkpt>
      <trkpt lat="44.86117" lon="5.34295">
        <ele>1396.45</ele>
        <time>2024-09-17T09:13:11Z</time>
      </trkpt>
      <trkpt lat="44.86154" lon="5.34294">
        <ele>1397.41</ele>
        <time>2024-09-17T09:13:31Z</time>
      </trkpt>
      <trkpt lat="44.86165" lon="5.34292">
        <ele>1395.97</ele>
        <time>2024-09-17T09:13:40Z</time>
      </trkpt>
      <trkpt lat="44.86196" lon="5.34297">
        <ele>1393.57</ele>
        <time>2024-09-17T09:14:00Z</time>
      </trkpt>
      <trkpt lat="44.86228" lon="5.34291">
        <ele>1394.05</ele>
        <time>2024-09-17T09:14:21Z</time>
      </trkpt>
      <trkpt lat="44.86253" lon="5.34289">
        <ele>1398.86</ele>
        <time>2024-09-17T09:14:36Z</time>
      </trkpt>
      <trkpt lat="44.86275" lon="5.34294">
        <ele>1401.26</ele>
        <time>2024-09-17T09:14:54Z</time>
      </trkpt>
      <trkpt lat="44.86304" lon="5.34306">
        <ele>1402.22</ele>
        <time>2024-09-17T09:15:13Z</time>
      </trkpt>
      <trkpt lat="44.86335" lon="5.34319">
        <ele>1403.18</ele>
        <time>2024-09-17T09:15:31Z</time>
      </trkpt>
      <trkpt lat="44.86361" lon="5.3433">
        <ele>1402.7</ele>
        <time>2024-09-17T09:15:49Z</time>
      </trkpt>
      <trkpt lat="44.86402" lon="5.34346">
        <ele>1405.58</ele>
        <time>2024-09-17T09:16:09Z</time>
      </trkpt>
      <trkpt lat="44.8643" lon="5.34358">
        <ele>1409.91</ele>
        <time>2024-09-17T09:16:28Z</time>
      </trkpt>
      <trkpt lat="44.86449" lon="5.34368">
        <ele>1413.28</ele>
        <time>2024-09-17T09:16:46Z</time>
      </trkpt>
      <trkpt lat="44.86473" lon="5.34383">
        <ele>1413.76</ele>
        <time>2024-09-17T09:17:05Z</time>
      </trkpt>
      <trkpt lat="44.865" lon="5.34398">
        <ele>1412.79</ele>
        <time>2024-09-17T09:17:24Z</time>
      </trkpt>
      <trkpt lat="44.86525" lon="5.34413">
        <ele>1412.31</ele>
        <time>2024-09-17T09:17:42Z</time>
      </trkpt>
      <trkpt lat="44.86554" lon="5.34417">
        <ele>1411.83</ele>
        <time>2024-09-17T09:17:57Z</time>
      </trkpt>
      <trkpt lat="44.86582" lon="5.34423">
        <ele>1410.39</ele>
        <time>2024-09-17T09:18:12Z</time>
      </trkpt>
      <trkpt lat="44.8661" lon="5.34428">
        <ele>1407.99</ele>
        <time>2024-09-17T09:18:27Z</time>
      </trkpt>
      <trkpt lat="44.86643" lon="5.34435">
        <ele>1403.66</ele>
        <time>2024-09-17T09:18:45Z</time>
      </trkpt>
      <trkpt lat="44.86661" lon="5.34436">
        <ele>1407.51</ele>
        <time>2024-09-17T09:18:51Z</time>
      </trkpt>
      <trkpt lat="44.86675" lon="5.34438">
        <ele>1409.43</ele>
        <time>2024-09-17T09:19:05Z</time>
      </trkpt>
      <trkpt lat="44.86681" lon="5.34437">
        <ele>1409.91</ele>
        <time>2024-09-17T09:19:27Z</time>
      </trkpt>
      <trkpt lat="44.86688" lon="5.34437">
        <ele>1412.31</ele>
        <time>2024-09-17T09:19:46Z</time>
      </trkpt>
      <trkpt lat="44.8669" lon="5.3444">
        <ele>1411.83</ele>
        <time>2024-09-17T09:20:11Z</time>
      </trkpt>
      <trkpt lat="44.86688" lon="5.34437">
        <ele>1411.83</ele>
        <time>2024-09-17T09:20:38Z</time>
      </trkpt>
      <trkpt lat="44.86686" lon="5.3444">
        <ele>1414.72</ele>
        <time>2024-09-17T09:21:02Z</time>
      </trkpt>
      <trkpt lat="44.86682" lon="5.34437">
        <ele>1417.6</ele>
        <time>2024-09-17T09:21:24Z</time>
      </trkpt>
      <trkpt lat="44.86679" lon="5.34437">
        <ele>1417.12</ele>
        <time>2024-09-17T09:21:42Z</time>
      </trkpt>
      <trkpt lat="44.86678" lon="5.34454">
        <ele>1419.52</ele>
        <time>2024-09-17T09:22:04Z</time>
      </trkpt>
      <trkpt lat="44.86676" lon="5.34455">
        <ele>1421.93</ele>
        <time>2024-09-17T09:22:25Z</time>
      </trkpt>
      <trkpt lat="44.86676" lon="5.34454">
        <ele>1428.66</ele>
        <time>2024-09-17T09:22:48Z</time>
      </trkpt>
      <trkpt lat="44.86677" lon="5.34449">
        <ele>1427.7</ele>
        <time>2024-09-17T09:23:12Z</time>
      </trkpt>
      <trkpt lat="44.86678" lon="5.34443">
        <ele>1424.81</ele>
        <time>2024-09-17T09:23:33Z</time>
      </trkpt>
      <trkpt lat="44.86681" lon="5.34448">
        <ele>1423.85</ele>
        <time>2024-09-17T09:24:01Z</time>
      </trkpt>
      <trkpt lat="44.86687" lon="5.3444">
        <ele>1424.81</ele>
        <time>2024-09-17T09:24:21Z</time>
      </trkpt>
      <trkpt lat="44.86693" lon="5.34437">
        <ele>1426.25</ele>
        <time>2024-09-17T09:24:39Z</time>
      </trkpt>
      <trkpt lat="44.86692" lon="5.34442">
        <ele>1427.7</ele>
        <time>2024-09-17T09:25:01Z</time>
      </trkpt>
      <trkpt lat="44.86703" lon="5.34449">
        <ele>1428.66</ele>
        <time>2024-09-17T09:25:22Z</time>
      </trkpt>
      <trkpt lat="44.86711" lon="5.3445">
        <ele>1432.02</ele>
        <time>2024-09-17T09:25:29Z</time>
      </trkpt>
      <trkpt lat="44.86715" lon="5.34452">
        <ele>1432.98</ele>
        <time>2024-09-17T09:25:32Z</time>
      </trkpt>
      <trkpt lat="44.8674" lon="5.34459">
        <ele>1435.39</ele>
        <time>2024-09-17T09:25:50Z</time>
      </trkpt>
      <trkpt lat="44.86764" lon="5.34465">
        <ele>1435.39</ele>
        <time>2024-09-17T09:26:10Z</time>
      </trkpt>
      <trkpt lat="44.86775" lon="5.34471">
        <ele>1435.39</ele>
        <time>2024-09-17T09:26:19Z</time>
      </trkpt>
      <trkpt lat="44.8681" lon="5.34474">
        <ele>1438.27</ele>
        <time>2024-09-17T09:26:39Z</time>
      </trkpt>
      <trkpt lat="44.86833" lon="5.34473">
        <ele>1439.71</ele>
        <time>2024-09-17T09:26:54Z</time>
      </trkpt>
      <trkpt lat="44.86871" lon="5.34473">
        <ele>1444.52</ele>
        <time>2024-09-17T09:27:12Z</time>
      </trkpt>
      <trkpt lat="44.86888" lon="5.3447">
        <ele>1449.81</ele>
        <time>2024-09-17T09:27:27Z</time>
      </trkpt>
      <trkpt lat="44.86915" lon="5.3446">
        <ele>1451.73</ele>
        <time>2024-09-17T09:27:44Z</time>
      </trkpt>
      <trkpt lat="44.86946" lon="5.34453">
        <ele>1450.29</ele>
        <time>2024-09-17T09:28:03Z</time>
      </trkpt>
      <trkpt lat="44.86972" lon="5.34452">
        <ele>1449.32</ele>
        <time>2024-09-17T09:28:18Z</time>
      </trkpt>
      <trkpt lat="44.86984" lon="5.3445">
        <ele>1448.36</ele>
        <time>2024-09-17T09:28:25Z</time>
      </trkpt>
      <trkpt lat="44.87013" lon="5.34443">
        <ele>1445.96</ele>
        <time>2024-09-17T09:28:44Z</time>
      </trkpt>
      <trkpt lat="44.87044" lon="5.34439">
        <ele>1454.61</ele>
        <time>2024-09-17T09:29:03Z</time>
      </trkpt>
      <trkpt lat="44.87068" lon="5.34437">
        <ele>1457.98</ele>
        <time>2024-09-17T09:29:16Z</time>
      </trkpt>
      <trkpt lat="44.87099" lon="5.34441">
        <ele>1461.34</ele>
        <time>2024-09-17T09:29:32Z</time>
      </trkpt>
      <trkpt lat="44.87118" lon="5.34441">
        <ele>1460.86</ele>
        <time>2024-09-17T09:29:45Z</time>
      </trkpt>
      <trkpt lat="44.87123" lon="5.3444">
        <ele>1463.26</ele>
        <time>2024-09-17T09:29:59Z</time>
      </trkpt>
      <trkpt lat="44.87126" lon="5.34441">
        <ele>1466.15</ele>
        <time>2024-09-17T09:30:15Z</time>
      </trkpt>
      <trkpt lat="44.87134" lon="5.34442">
        <ele>1469.03</ele>
        <time>2024-09-17T09:30:38Z</time>
      </trkpt>
      <trkpt lat="44.87133" lon="5.3444">
        <ele>1470.47</ele>
        <time>2024-09-17T09:31:04Z</time>
      </trkpt>
      <trkpt lat="44.8713" lon="5.34442">
        <ele>1470.47</ele>
        <time>2024-09-17T09:31:30Z</time>
      </trkpt>
      <trkpt lat="44.87135" lon="5.3444">
        <ele>1468.07</ele>
        <time>2024-09-17T09:31:49Z</time>
      </trkpt>
      <trkpt lat="44.87149" lon="5.34438">
        <ele>1468.07</ele>
        <time>2024-09-17T09:32:06Z</time>
      </trkpt>
      <trkpt lat="44.87154" lon="5.34438">
        <ele>1469.99</ele>
        <time>2024-09-17T09:32:31Z</time>
      </trkpt>
      <trkpt lat="44.87161" lon="5.34437">
        <ele>1471.92</ele>
        <time>2024-09-17T09:32:58Z</time>
      </trkpt>
      <trkpt lat="44.87165" lon="5.34437">
        <ele>1471.44</ele>
        <time>2024-09-17T09:33:22Z</time>
      </trkpt>
      <trkpt lat="44.87184" lon="5.3444">
        <ele>1469.03</ele>
        <time>2024-09-17T09:33:40Z</time>
      </trkpt>
      <trkpt lat="44.87217" lon="5.34439">
        <ele>1465.67</ele>
        <time>2024-09-17T09:34:01Z</time>
      </trkpt>
      <trkpt lat="44.87242" lon="5.34445">
        <ele>1459.9</ele>
        <time>2024-09-17T09:34:19Z</time>
      </trkpt>
      <trkpt lat="44.87272" lon="5.34442">
        <ele>1454.61</ele>
        <time>2024-09-17T09:34:35Z</time>
      </trkpt>
      <trkpt lat="44.87304" lon="5.3444">
        <ele>1451.73</ele>
        <time>2024-09-17T09:34:53Z</time>
      </trkpt>
      <trkpt lat="44.87334" lon="5.34436">
        <ele>1454.61</ele>
        <time>2024-09-17T09:35:10Z</time>
      </trkpt>
      <trkpt lat="44.87357" lon="5.34445">
        <ele>1453.65</ele>
        <time>2024-09-17T09:35:29Z</time>
      </trkpt>
      <trkpt lat="44.87397" lon="5.34468">
        <ele>1453.65</ele>
        <time>2024-09-17T09:35:50Z</time>
      </trkpt>
      <trkpt lat="44.8742" lon="5.34506">
        <ele>1450.77</ele>
        <time>2024-09-17T09:36:09Z</time>
      </trkpt>
      <trkpt lat="44.87434" lon="5.34534">
        <ele>1448.84</ele>
        <time>2024-09-17T09:36:25Z</time>
      </trkpt>
      <trkpt lat="44.87459" lon="5.34546">
        <ele>1450.29</ele>
        <time>2024-09-17T09:36:43Z</time>
      </trkpt>
      <trkpt lat="44.87482" lon="5.34548">
        <ele>1450.29</ele>
        <time>2024-09-17T09:37:00Z</time>
      </trkpt>
      <trkpt lat="44.87515" lon="5.34552">
        <ele>1450.77</ele>
        <time>2024-09-17T09:37:20Z</time>
      </trkpt>
      <trkpt lat="44.87548" lon="5.34571">
        <ele>1455.57</ele>
        <time>2024-09-17T09:37:41Z</time>
      </trkpt>
      <trkpt lat="44.87571" lon="5.34595">
        <ele>1457.5</ele>
        <time>2024-09-17T09:37:59Z</time>
      </trkpt>
      <trkpt lat="44.87584" lon="5.34609">
        <ele>1458.46</ele>
        <time>2024-09-17T09:38:12Z</time>
      </trkpt>
      <trkpt lat="44.87595" lon="5.34618">
        <ele>1457.98</ele>
        <time>2024-09-17T09:38:19Z</time>
      </trkpt>
      <trkpt lat="44.87597" lon="5.34619">
        <ele>1457.98</ele>
        <time>2024-09-17T09:38:20Z</time>
      </trkpt>
      <trkpt lat="44.87598" lon="5.3462">
        <ele>1458.46</ele>
        <time>2024-09-17T09:38:21Z</time>
      </trkpt>
      <trkpt lat="44.87614" lon="5.3463">
        <ele>1457.98</ele>
        <time>2024-09-17T09:38:37Z</time>
      </trkpt>
      <trkpt lat="44.87634" lon="5.34642">
        <ele>1456.05</ele>
        <time>2024-09-17T09:38:53Z</time>
      </trkpt>
      <trkpt lat="44.87674" lon="5.34643">
        <ele>1463.74</ele>
        <time>2024-09-17T09:39:14Z</time>
      </trkpt>
      <trkpt lat="44.87708" lon="5.34644">
        <ele>1468.55</ele>
        <time>2024-09-17T09:39:35Z</time>
      </trkpt>
      <trkpt lat="44.87741" lon="5.34651">
        <ele>1469.51</ele>
        <time>2024-09-17T09:39:56Z</time>
      </trkpt>
      <trkpt lat="44.87767" lon="5.34674">
        <ele>1473.36</ele>
        <time>2024-09-17T09:40:17Z</time>
      </trkpt>
      <trkpt lat="44.87792" lon="5.34684">
        <ele>1478.65</ele>
        <time>2024-09-17T09:40:33Z</time>
      </trkpt>
      <trkpt lat="44.87809" lon="5.34689">
        <ele>1482.01</ele>
        <time>2024-09-17T09:40:52Z</time>
      </trkpt>
      <trkpt lat="44.87832" lon="5.34696">
        <ele>1482.01</ele>
        <time>2024-09-17T09:41:08Z</time>
      </trkpt>
      <trkpt lat="44.87862" lon="5.34693">
        <ele>1482.49</ele>
        <time>2024-09-17T09:41:24Z</time>
      </trkpt>
      <trkpt lat="44.87889" lon="5.34706">
        <ele>1482.49</ele>
        <time>2024-09-17T09:41:45Z</time>
      </trkpt>
      <trkpt lat="44.87929" lon="5.34714">
        <ele>1492.58</ele>
        <time>2024-09-17T09:42:03Z</time>
      </trkpt>
      <trkpt lat="44.87953" lon="5.34719">
        <ele>1498.35</ele>
        <time>2024-09-17T09:42:20Z</time>
      </trkpt>
      <trkpt lat="44.87968" lon="5.34726">
        <ele>1504.12</ele>
        <time>2024-09-17T09:42:35Z</time>
      </trkpt>
      <trkpt lat="44.87989" lon="5.34731">
        <ele>1510.85</ele>
        <time>2024-09-17T09:42:51Z</time>
      </trkpt>
      <trkpt lat="44.88002" lon="5.34732">
        <ele>1514.69</ele>
        <time>2024-09-17T09:43:01Z</time>
      </trkpt>
      <trkpt lat="44.88033" lon="5.34735">
        <ele>1520.94</ele>
        <time>2024-09-17T09:43:17Z</time>
      </trkpt>
      <trkpt lat="44.8806" lon="5.34738">
        <ele>1522.39</ele>
        <time>2024-09-17T09:43:35Z</time>
      </trkpt>
      <trkpt lat="44.88067" lon="5.3474">
        <ele>1522.39</ele>
        <time>2024-09-17T09:43:41Z</time>
      </trkpt>
      <trkpt lat="44.8809" lon="5.34752">
        <ele>1523.35</ele>
        <time>2024-09-17T09:43:58Z</time>
      </trkpt>
      <trkpt lat="44.88099" lon="5.34754">
        <ele>1523.83</ele>
        <time>2024-09-17T09:44:05Z</time>
      </trkpt>
      <trkpt lat="44.88127" lon="5.34757">
        <ele>1524.31</ele>
        <time>2024-09-17T09:44:20Z</time>
      </trkpt>
      <trkpt lat="44.88158" lon="5.34754">
        <ele>1523.35</ele>
        <time>2024-09-17T09:44:37Z</time>
      </trkpt>
      <trkpt lat="44.88164" lon="5.34756">
        <ele>1524.79</ele>
        <time>2024-09-17T09:44:42Z</time>
      </trkpt>
      <trkpt lat="44.88194" lon="5.34758">
        <ele>1530.56</ele>
        <time>2024-09-17T09:45:01Z</time>
      </trkpt>
      <trkpt lat="44.88224" lon="5.34764">
        <ele>1534.4</ele>
        <time>2024-09-17T09:45:20Z</time>
      </trkpt>
      <trkpt lat="44.88245" lon="5.34767">
        <ele>1538.25</ele>
        <time>2024-09-17T09:45:34Z</time>
      </trkpt>
      <trkpt lat="44.8827" lon="5.34771">
        <ele>1541.13</ele>
        <time>2024-09-17T09:45:49Z</time>
      </trkpt>
      <trkpt lat="44.88304" lon="5.34763">
        <ele>1540.65</ele>
        <time>2024-09-17T09:46:07Z</time>
      </trkpt>
      <trkpt lat="44.88323" lon="5.34771">
        <ele>1541.61</ele>
        <time>2024-09-17T09:46:23Z</time>
      </trkpt>
      <trkpt lat="44.88348" lon="5.34777">
        <ele>1542.09</ele>
        <time>2024-09-17T09:46:42Z</time>
      </trkpt>
      <trkpt lat="44.88372" lon="5.34789">
        <ele>1543.53</ele>
        <time>2024-09-17T09:46:58Z</time>
      </trkpt>
      <trkpt lat="44.88394" lon="5.34799">
        <ele>1543.05</ele>
        <time>2024-09-17T09:47:14Z</time>
      </trkpt>
      <trkpt lat="44.88417" lon="5.34808">
        <ele>1543.53</ele>
        <time>2024-09-17T09:47:29Z</time>
      </trkpt>
      <trkpt lat="44.88444" lon="5.34812">
        <ele>1542.57</ele>
        <time>2024-09-17T09:47:44Z</time>
      </trkpt>
      <trkpt lat="44.8846" lon="5.34825">
        <ele>1538.25</ele>
        <time>2024-09-17T09:47:56Z</time>
      </trkpt>
      <trkpt lat="44.88498" lon="5.34838">
        <ele>1539.69</ele>
        <time>2024-09-17T09:48:15Z</time>
      </trkpt>
      <trkpt lat="44.88501" lon="5.34841">
        <ele>1539.21</ele>
        <time>2024-09-17T09:48:17Z</time>
      </trkpt>
      <trkpt lat="44.88522" lon="5.34857">
        <ele>1538.25</ele>
        <time>2024-09-17T09:48:34Z</time>
      </trkpt>
      <trkpt lat="44.88542" lon="5.34858">
        <ele>1540.17</ele>
        <time>2024-09-17T09:48:47Z</time>
      </trkpt>
      <trkpt lat="44.88559" lon="5.34856">
        <ele>1533.92</ele>
        <time>2024-09-17T09:49:03Z</time>
      </trkpt>
      <trkpt lat="44.88583" lon="5.34869">
        <ele>1528.63</ele>
        <time>2024-09-17T09:49:20Z</time>
      </trkpt>
      <trkpt lat="44.88602" lon="5.34876">
        <ele>1524.31</ele>
        <time>2024-09-17T09:49:36Z</time>
      </trkpt>
      <trkpt lat="44.88604" lon="5.34877">
        <ele>1523.83</ele>
        <time>2024-09-17T09:49:37Z</time>
      </trkpt>
      <trkpt lat="44.88635" lon="5.34882">
        <ele>1521.42</ele>
        <time>2024-09-17T09:49:53Z</time>
      </trkpt>
      <trkpt lat="44.88667" lon="5.34882">
        <ele>1521.9</ele>
        <time>2024-09-17T09:50:10Z</time>
      </trkpt>
      <trkpt lat="44.88683" lon="5.3488">
        <ele>1520.46</ele>
        <time>2024-09-17T09:50:33Z</time>
      </trkpt>
      <trkpt lat="44.8869" lon="5.34887">
        <ele>1524.79</ele>
        <time>2024-09-17T09:50:55Z</time>
      </trkpt>
      <trkpt lat="44.88696" lon="5.34894">
        <ele>1534.4</ele>
        <time>2024-09-17T09:51:19Z</time>
      </trkpt>
      <trkpt lat="44.8871" lon="5.34891">
        <ele>1540.65</ele>
        <time>2024-09-17T09:51:38Z</time>
      </trkpt>
      <trkpt lat="44.88731" lon="5.34891">
        <ele>1545.46</ele>
        <time>2024-09-17T09:51:59Z</time>
      </trkpt>
      <trkpt lat="44.88753" lon="5.34898">
        <ele>1550.26</ele>
        <time>2024-09-17T09:52:11Z</time>
      </trkpt>
      <trkpt lat="44.88789" lon="5.34907">
        <ele>1560.36</ele>
        <time>2024-09-17T09:52:31Z</time>
      </trkpt>
      <trkpt lat="44.88815" lon="5.34916">
        <ele>1567.09</ele>
        <time>2024-09-17T09:52:49Z</time>
      </trkpt>
      <trkpt lat="44.88835" lon="5.34923">
        <ele>1563.72</ele>
        <time>2024-09-17T09:53:08Z</time>
      </trkpt>
      <trkpt lat="44.88859" lon="5.34932">
        <ele>1557.95</ele>
        <time>2024-09-17T09:53:25Z</time>
      </trkpt>
      <trkpt lat="44.88903" lon="5.34936">
        <ele>1552.19</ele>
        <time>2024-09-17T09:53:45Z</time>
      </trkpt>
      <trkpt lat="44.88914" lon="5.34937">
        <ele>1548.34</ele>
        <time>2024-09-17T09:53:54Z</time>
      </trkpt>
      <trkpt lat="44.88935" lon="5.34944">
        <ele>1547.38</ele>
        <time>2024-09-17T09:54:10Z</time>
      </trkpt>
      <trkpt lat="44.88961" lon="5.34953">
        <ele>1546.9</ele>
        <time>2024-09-17T09:54:26Z</time>
      </trkpt>
      <trkpt lat="44.88963" lon="5.34954">
        <ele>1546.9</ele>
        <time>2024-09-17T09:54:27Z</time>
      </trkpt>
      <trkpt lat="44.88969" lon="5.34958">
        <ele>1546.9</ele>
        <time>2024-09-17T09:54:31Z</time>
      </trkpt>
      <trkpt lat="44.88987" lon="5.34965">
        <ele>1546.9</ele>
        <time>2024-09-17T09:54:42Z</time>
      </trkpt>
      <trkpt lat="44.89009" lon="5.34975">
        <ele>1547.38</ele>
        <time>2024-09-17T09:54:56Z</time>
      </trkpt>
      <trkpt lat="44.89033" lon="5.34988">
        <ele>1547.38</ele>
        <time>2024-09-17T09:55:13Z</time>
      </trkpt>
      <trkpt lat="44.89045" lon="5.34991">
        <ele>1548.34</ele>
        <time>2024-09-17T09:55:18Z</time>
      </trkpt>
      <trkpt lat="44.89073" lon="5.34995">
        <ele>1548.82</ele>
        <time>2024-09-17T09:55:35Z</time>
      </trkpt>
      <trkpt lat="44.89089" lon="5.35002">
        <ele>1543.53</ele>
        <time>2024-09-17T09:55:53Z</time>
      </trkpt>
      <trkpt lat="44.8911" lon="5.35009">
        <ele>1538.25</ele>
        <time>2024-09-17T09:56:11Z</time>
      </trkpt>
      <trkpt lat="44.8914" lon="5.3502">
        <ele>1532.48</ele>
        <time>2024-09-17T09:56:30Z</time>
      </trkpt>
      <trkpt lat="44.89165" lon="5.35022">
        <ele>1527.19</ele>
        <time>2024-09-17T09:56:46Z</time>
      </trkpt>
      <trkpt lat="44.8919" lon="5.35029">
        <ele>1519.98</ele>
        <time>2024-09-17T09:57:01Z</time>
      </trkpt>
      <trkpt lat="44.89211" lon="5.35039">
        <ele>1514.21</ele>
        <time>2024-09-17T09:57:14Z</time>
      </trkpt>
      <trkpt lat="44.89232" lon="5.35051">
        <ele>1508.45</ele>
        <time>2024-09-17T09:57:29Z</time>
      </trkpt>
      <trkpt lat="44.89261" lon="5.35063">
        <ele>1506.04</ele>
        <time>2024-09-17T09:57:47Z</time>
      </trkpt>
      <trkpt lat="44.89285" lon="5.35072">
        <ele>1505.08</ele>
        <time>2024-09-17T09:58:02Z</time>
      </trkpt>
      <trkpt lat="44.89323" lon="5.35077">
        <ele>1515.18</ele>
        <time>2024-09-17T09:58:20Z</time>
      </trkpt>
      <trkpt lat="44.89345" lon="5.35079">
        <ele>1516.14</ele>
        <time>2024-09-17T09:58:38Z</time>
      </trkpt>
      <trkpt lat="44.89372" lon="5.35082">
        <ele>1517.1</ele>
        <time>2024-09-17T09:58:55Z</time>
      </trkpt>
      <trkpt lat="44.89398" lon="5.35081">
        <ele>1518.54</ele>
        <time>2024-09-17T09:59:12Z</time>
      </trkpt>
      <trkpt lat="44.89421" lon="5.35077">
        <ele>1521.9</ele>
        <time>2024-09-17T09:59:27Z</time>
      </trkpt>
      <trkpt lat="44.89443" lon="5.35073">
        <ele>1525.27</ele>
        <time>2024-09-17T09:59:40Z</time>
      </trkpt>
      <trkpt lat="44.89466" lon="5.35075">
        <ele>1528.15</ele>
        <time>2024-09-17T09:59:55Z</time>
      </trkpt>
      <trkpt lat="44.89488" lon="5.35084">
        <ele>1525.75</ele>
        <time>2024-09-17T10:00:12Z</time>
      </trkpt>
      <trkpt lat="44.89509" lon="5.35096">
        <ele>1518.54</ele>
        <time>2024-09-17T10:00:29Z</time>
      </trkpt>
      <trkpt lat="44.89532" lon="5.35111">
        <ele>1513.25</ele>
        <time>2024-09-17T10:00:44Z</time>
      </trkpt>
      <trkpt lat="44.89558" lon="5.3513">
        <ele>1511.33</ele>
        <time>2024-09-17T10:01:01Z</time>
      </trkpt>
      <trkpt lat="44.89583" lon="5.3515">
        <ele>1513.25</ele>
        <time>2024-09-17T10:01:20Z</time>
      </trkpt>
      <trkpt lat="44.89599" lon="5.35165">
        <ele>1514.21</ele>
        <time>2024-09-17T10:01:34Z</time>
      </trkpt>
      <trkpt lat="44.8962" lon="5.35174">
        <ele>1511.81</ele>
        <time>2024-09-17T10:01:50Z</time>
      </trkpt>
      <trkpt lat="44.89641" lon="5.35177">
        <ele>1508.93</ele>
        <time>2024-09-17T10:02:03Z</time>
      </trkpt>
      <trkpt lat="44.89645" lon="5.35174">
        <ele>1508.93</ele>
        <time>2024-09-17T10:02:07Z</time>
      </trkpt>
      <trkpt lat="44.89647" lon="5.35171">
        <ele>1507.97</ele>
        <time>2024-09-17T10:02:10Z</time>
      </trkpt>
      <trkpt lat="44.89647" lon="5.35168">
        <ele>1508.45</ele>
        <time>2024-09-17T10:02:22Z</time>
      </trkpt>
      <trkpt lat="44.89641" lon="5.35157">
        <ele>1507.48</ele>
        <time>2024-09-17T10:02:42Z</time>
      </trkpt>
      <trkpt lat="44.89627" lon="5.35139">
        <ele>1500.27</ele>
        <time>2024-09-17T10:02:58Z</time>
      </trkpt>
      <trkpt lat="44.89616" lon="5.35122">
        <ele>1489.7</ele>
        <time>2024-09-17T10:03:13Z</time>
      </trkpt>
      <trkpt lat="44.89604" lon="5.35105">
        <ele>1481.05</ele>
        <time>2024-09-17T10:03:27Z</time>
      </trkpt>
      <trkpt lat="44.89588" lon="5.35083">
        <ele>1473.84</ele>
        <time>2024-09-17T10:03:44Z</time>
      </trkpt>
      <trkpt lat="44.8957" lon="5.35052">
        <ele>1470.47</ele>
        <time>2024-09-17T10:04:01Z</time>
      </trkpt>
      <trkpt lat="44.89556" lon="5.35032">
        <ele>1465.19</ele>
        <time>2024-09-17T10:04:17Z</time>
      </trkpt>
      <trkpt lat="44.89537" lon="5.35005">
        <ele>1463.74</ele>
        <time>2024-09-17T10:04:35Z</time>
      </trkpt>
      <trkpt lat="44.8952" lon="5.34985">
        <ele>1464.23</ele>
        <time>2024-09-17T10:04:51Z</time>
      </trkpt>
      <trkpt lat="44.89506" lon="5.34958">
        <ele>1466.63</ele>
        <time>2024-09-17T10:05:05Z</time>
      </trkpt>
      <trkpt lat="44.89489" lon="5.34932">
        <ele>1466.63</ele>
        <time>2024-09-17T10:05:20Z</time>
      </trkpt>
      <trkpt lat="44.89471" lon="5.34904">
        <ele>1463.74</ele>
        <time>2024-09-17T10:05:38Z</time>
      </trkpt>
      <trkpt lat="44.8946" lon="5.34876">
        <ele>1465.67</ele>
        <time>2024-09-17T10:05:52Z</time>
      </trkpt>
      <trkpt lat="44.89443" lon="5.34837">
        <ele>1469.51</ele>
        <time>2024-09-17T10:06:09Z</time>
      </trkpt>
      <trkpt lat="44.89428" lon="5.34812">
        <ele>1473.36</ele>
        <time>2024-09-17T10:06:27Z</time>
      </trkpt>
      <trkpt lat="44.89419" lon="5.34802">
        <ele>1474.8</ele>
        <time>2024-09-17T10:06:35Z</time>
      </trkpt>
      <trkpt lat="44.89397" lon="5.34777">
        <ele>1474.32</ele>
        <time>2024-09-17T10:06:52Z</time>
      </trkpt>
      <trkpt lat="44.89381" lon="5.34756">
        <ele>1475.28</ele>
        <time>2024-09-17T10:07:07Z</time>
      </trkpt>
      <trkpt lat="44.89377" lon="5.3475">
        <ele>1474.8</ele>
        <time>2024-09-17T10:07:12Z</time>
      </trkpt>
      <trkpt lat="44.89364" lon="5.34731">
        <ele>1472.88</ele>
        <time>2024-09-17T10:07:28Z</time>
      </trkpt>
      <trkpt lat="44.89357" lon="5.34705">
        <ele>1472.88</ele>
        <time>2024-09-17T10:07:36Z</time>
      </trkpt>
      <trkpt lat="44.89354" lon="5.34693">
        <ele>1473.36</ele>
        <time>2024-09-17T10:07:40Z</time>
      </trkpt>
      <trkpt lat="44.89355" lon="5.34663">
        <ele>1477.68</ele>
        <time>2024-09-17T10:07:54Z</time>
      </trkpt>
      <trkpt lat="44.8935" lon="5.34665">
        <ele>1478.65</ele>
        <time>2024-09-17T10:08:10Z</time>
      </trkpt>
      <trkpt lat="44.89349" lon="5.34661">
        <ele>1479.61</ele>
        <time>2024-09-17T10:08:30Z</time>
      </trkpt>
      <trkpt lat="44.89347" lon="5.34663">
        <ele>1479.13</ele>
        <time>2024-09-17T10:08:42Z</time>
      </trkpt>
      <trkpt lat="44.89349" lon="5.34666">
        <ele>1480.09</ele>
        <time>2024-09-17T10:09:05Z</time>
      </trkpt>
      <trkpt lat="44.89352" lon="5.34662">
        <ele>1480.57</ele>
        <time>2024-09-17T10:09:22Z</time>
      </trkpt>
      <trkpt lat="44.8935" lon="5.34659">
        <ele>1482.49</ele>
        <time>2024-09-17T10:09:45Z</time>
      </trkpt>
      <trkpt lat="44.89354" lon="5.34655">
        <ele>1482.97</ele>
        <time>2024-09-17T10:10:02Z</time>
      </trkpt>
      <trkpt lat="44.89359" lon="5.34665">
        <ele>1483.45</ele>
        <time>2024-09-17T10:10:29Z</time>
      </trkpt>
      <trkpt lat="44.89356" lon="5.34676">
        <ele>1483.93</ele>
        <time>2024-09-17T10:10:43Z</time>
      </trkpt>
      <trkpt lat="44.89355" lon="5.34663">
        <ele>1481.05</ele>
        <time>2024-09-17T10:11:08Z</time>
      </trkpt>
      <trkpt lat="44.89367" lon="5.34663">
        <ele>1482.01</ele>
        <time>2024-09-17T10:11:24Z</time>
      </trkpt>
      <trkpt lat="44.89388" lon="5.34668">
        <ele>1480.57</ele>
        <time>2024-09-17T10:11:40Z</time>
      </trkpt>
      <trkpt lat="44.89403" lon="5.34679">
        <ele>1478.65</ele>
        <time>2024-09-17T10:11:56Z</time>
      </trkpt>
      <trkpt lat="44.89427" lon="5.34689">
        <ele>1476.72</ele>
        <time>2024-09-17T10:12:14Z</time>
      </trkpt>
      <trkpt lat="44.89449" lon="5.34704">
        <ele>1472.88</ele>
        <time>2024-09-17T10:12:31Z</time>
      </trkpt>
      <trkpt lat="44.8946" lon="5.34712">
        <ele>1472.4</ele>
        <time>2024-09-17T10:12:41Z</time>
      </trkpt>
      <trkpt lat="44.89475" lon="5.34729">
        <ele>1471.92</ele>
        <time>2024-09-17T10:12:54Z</time>
      </trkpt>
      <trkpt lat="44.89477" lon="5.34732">
        <ele>1470.95</ele>
        <time>2024-09-17T10:12:57Z</time>
      </trkpt>
      <trkpt lat="44.89492" lon="5.34747">
        <ele>1469.03</ele>
        <time>2024-09-17T10:13:12Z</time>
      </trkpt>
      <trkpt lat="44.89512" lon="5.34759">
        <ele>1464.71</ele>
        <time>2024-09-17T10:13:26Z</time>
      </trkpt>
      <trkpt lat="44.89529" lon="5.34772">
        <ele>1461.34</ele>
        <time>2024-09-17T10:13:41Z</time>
      </trkpt>
      <trkpt lat="44.89548" lon="5.34788">
        <ele>1459.9</ele>
        <time>2024-09-17T10:13:54Z</time>
      </trkpt>
      <trkpt lat="44.89558" lon="5.34801">
        <ele>1457.02</ele>
        <time>2024-09-17T10:14:05Z</time>
      </trkpt>
      <trkpt lat="44.89569" lon="5.34815">
        <ele>1456.05</ele>
        <time>2024-09-17T10:14:15Z</time>
      </trkpt>
      <trkpt lat="44.89575" lon="5.34818">
        <ele>1455.57</ele>
        <time>2024-09-17T10:14:19Z</time>
      </trkpt>
      <trkpt lat="44.89591" lon="5.34825">
        <ele>1451.73</ele>
        <time>2024-09-17T10:14:34Z</time>
      </trkpt>
      <trkpt lat="44.89592" lon="5.34826">
        <ele>1451.25</ele>
        <time>2024-09-17T10:14:35Z</time>
      </trkpt>
      <trkpt lat="44.89606" lon="5.34833">
        <ele>1446.92</ele>
        <time>2024-09-17T10:14:46Z</time>
      </trkpt>
      <trkpt lat="44.89621" lon="5.34845">
        <ele>1446.44</ele>
        <time>2024-09-17T10:14:58Z</time>
      </trkpt>
      <trkpt lat="44.89638" lon="5.34852">
        <ele>1444.04</ele>
        <time>2024-09-17T10:15:11Z</time>
      </trkpt>
      <trkpt lat="44.89654" lon="5.3486">
        <ele>1441.63</ele>
        <time>2024-09-17T10:15:24Z</time>
      </trkpt>
      <trkpt lat="44.89666" lon="5.34861">
        <ele>1441.63</ele>
        <time>2024-09-17T10:15:30Z</time>
      </trkpt>
      <trkpt lat="44.89676" lon="5.34862">
        <ele>1440.19</ele>
        <time>2024-09-17T10:15:35Z</time>
      </trkpt>
      <trkpt lat="44.89697" lon="5.34866">
        <ele>1436.83</ele>
        <time>2024-09-17T10:15:48Z</time>
      </trkpt>
      <trkpt lat="44.89707" lon="5.34865">
        <ele>1434.91</ele>
        <time>2024-09-17T10:15:53Z</time>
      </trkpt>
      <trkpt lat="44.89711" lon="5.34864">
        <ele>1434.42</ele>
        <time>2024-09-17T10:15:56Z</time>
      </trkpt>
      <trkpt lat="44.89726" lon="5.3486">
        <ele>1432.02</ele>
        <time>2024-09-17T10:16:09Z</time>
      </trkpt>
      <trkpt lat="44.89744" lon="5.34857">
        <ele>1429.14</ele>
        <time>2024-09-17T10:16:23Z</time>
      </trkpt>
      <trkpt lat="44.89765" lon="5.34852">
        <ele>1427.21</ele>
        <time>2024-09-17T10:16:38Z</time>
      </trkpt>
      <trkpt lat="44.89785" lon="5.34845">
        <ele>1425.29</ele>
        <time>2024-09-17T10:16:50Z</time>
      </trkpt>
      <trkpt lat="44.898" lon="5.34833">
        <ele>1421.93</ele>
        <time>2024-09-17T10:17:04Z</time>
      </trkpt>
      <trkpt lat="44.89817" lon="5.34824">
        <ele>1418.08</ele>
        <time>2024-09-17T10:17:18Z</time>
      </trkpt>
      <trkpt lat="44.89839" lon="5.34818">
        <ele>1416.16</ele>
        <time>2024-09-17T10:17:34Z</time>
      </trkpt>
      <trkpt lat="44.89857" lon="5.34819">
        <ele>1413.28</ele>
        <time>2024-09-17T10:17:49Z</time>
      </trkpt>
      <trkpt lat="44.8988" lon="5.34823">
        <ele>1409.91</ele>
        <time>2024-09-17T10:18:04Z</time>
      </trkpt>
      <trkpt lat="44.89888" lon="5.34824">
        <ele>1408.95</ele>
        <time>2024-09-17T10:18:09Z</time>
      </trkpt>
      <trkpt lat="44.8991" lon="5.34829">
        <ele>1405.58</ele>
        <time>2024-09-17T10:18:23Z</time>
      </trkpt>
      <trkpt lat="44.8993" lon="5.34834">
        <ele>1404.14</ele>
        <time>2024-09-17T10:18:36Z</time>
      </trkpt>
      <trkpt lat="44.89951" lon="5.34841">
        <ele>1404.14</ele>
        <time>2024-09-17T10:18:50Z</time>
      </trkpt>
      <trkpt lat="44.89961" lon="5.34845">
        <ele>1403.18</ele>
        <time>2024-09-17T10:18:58Z</time>
      </trkpt>
      <trkpt lat="44.89983" lon="5.34857">
        <ele>1401.74</ele>
        <time>2024-09-17T10:19:13Z</time>
      </trkpt>
      <trkpt lat="44.89998" lon="5.34866">
        <ele>1400.78</ele>
        <time>2024-09-17T10:19:27Z</time>
      </trkpt>
      <trkpt lat="44.9002" lon="5.34869">
        <ele>1398.86</ele>
        <time>2024-09-17T10:19:44Z</time>
      </trkpt>
      <trkpt lat="44.90043" lon="5.34869">
        <ele>1396.45</ele>
        <time>2024-09-17T10:20:02Z</time>
      </trkpt>
      <trkpt lat="44.9006" lon="5.34872">
        <ele>1394.05</ele>
        <time>2024-09-17T10:20:16Z</time>
      </trkpt>
      <trkpt lat="44.90082" lon="5.34867">
        <ele>1390.68</ele>
        <time>2024-09-17T10:20:29Z</time>
      </trkpt>
      <trkpt lat="44.90092" lon="5.34864">
        <ele>1388.76</ele>
        <time>2024-09-17T10:20:35Z</time>
      </trkpt>
      <trkpt lat="44.90114" lon="5.3487">
        <ele>1386.36</ele>
        <time>2024-09-17T10:20:49Z</time>
      </trkpt>
      <trkpt lat="44.90137" lon="5.3488">
        <ele>1384.92</ele>
        <time>2024-09-17T10:21:03Z</time>
      </trkpt>
      <trkpt lat="44.90156" lon="5.34895">
        <ele>1384.92</ele>
        <time>2024-09-17T10:21:16Z</time>
      </trkpt>
      <trkpt lat="44.90171" lon="5.34912">
        <ele>1382.99</ele>
        <time>2024-09-17T10:21:32Z</time>
      </trkpt>
      <trkpt lat="44.90184" lon="5.34928">
        <ele>1379.15</ele>
        <time>2024-09-17T10:21:49Z</time>
      </trkpt>
      <trkpt lat="44.90196" lon="5.34943">
        <ele>1375.3</ele>
        <time>2024-09-17T10:22:04Z</time>
      </trkpt>
      <trkpt lat="44.90212" lon="5.34949">
        <ele>1372.42</ele>
        <time>2024-09-17T10:22:14Z</time>
      </trkpt>
      <trkpt lat="44.90227" lon="5.3495">
        <ele>1368.09</ele>
        <time>2024-09-17T10:22:24Z</time>
      </trkpt>
      <trkpt lat="44.90251" lon="5.34958">
        <ele>1366.65</ele>
        <time>2024-09-17T10:22:40Z</time>
      </trkpt>
      <trkpt lat="44.90272" lon="5.34972">
        <ele>1365.69</ele>
        <time>2024-09-17T10:22:53Z</time>
      </trkpt>
      <trkpt lat="44.9029" lon="5.34991">
        <ele>1363.77</ele>
        <time>2024-09-17T10:23:05Z</time>
      </trkpt>
      <trkpt lat="44.90299" lon="5.34999">
        <ele>1362.81</ele>
        <time>2024-09-17T10:23:12Z</time>
      </trkpt>
      <trkpt lat="44.90311" lon="5.35009">
        <ele>1361.36</ele>
        <time>2024-09-17T10:23:21Z</time>
      </trkpt>
      <trkpt lat="44.9032" lon="5.35017">
        <ele>1360.4</ele>
        <time>2024-09-17T10:23:28Z</time>
      </trkpt>
      <trkpt lat="44.90336" lon="5.35031">
        <ele>1358</ele>
        <time>2024-09-17T10:23:40Z</time>
      </trkpt>
      <trkpt lat="44.90341" lon="5.35039">
        <ele>1357.52</ele>
        <time>2024-09-17T10:23:46Z</time>
      </trkpt>
      <trkpt lat="44.90352" lon="5.35065">
        <ele>1356.56</ele>
        <time>2024-09-17T10:24:00Z</time>
      </trkpt>
      <trkpt lat="44.90353" lon="5.35066">
        <ele>1356.56</ele>
        <time>2024-09-17T10:24:01Z</time>
      </trkpt>
      <trkpt lat="44.90369" lon="5.35083">
        <ele>1355.12</ele>
        <time>2024-09-17T10:24:14Z</time>
      </trkpt>
      <trkpt lat="44.9038" lon="5.35107">
        <ele>1354.15</ele>
        <time>2024-09-17T10:24:29Z</time>
      </trkpt>
      <trkpt lat="44.90392" lon="5.35125">
        <ele>1352.23</ele>
        <time>2024-09-17T10:24:42Z</time>
      </trkpt>
      <trkpt lat="44.90393" lon="5.35126">
        <ele>1352.23</ele>
        <time>2024-09-17T10:24:43Z</time>
      </trkpt>
      <trkpt lat="44.90421" lon="5.35145">
        <ele>1351.75</ele>
        <time>2024-09-17T10:24:58Z</time>
      </trkpt>
      <trkpt lat="44.90437" lon="5.35158">
        <ele>1350.79</ele>
        <time>2024-09-17T10:25:11Z</time>
      </trkpt>
      <trkpt lat="44.90457" lon="5.3517">
        <ele>1350.31</ele>
        <time>2024-09-17T10:25:24Z</time>
      </trkpt>
      <trkpt lat="44.90479" lon="5.35189">
        <ele>1347.91</ele>
        <time>2024-09-17T10:25:39Z</time>
      </trkpt>
      <trkpt lat="44.90487" lon="5.35202">
        <ele>1344.54</ele>
        <time>2024-09-17T10:25:54Z</time>
      </trkpt>
      <trkpt lat="44.90488" lon="5.35202">
        <ele>1344.06</ele>
        <time>2024-09-17T10:25:56Z</time>
      </trkpt>
      <trkpt lat="44.90491" lon="5.35196">
        <ele>1343.58</ele>
        <time>2024-09-17T10:26:00Z</time>
      </trkpt>
      <trkpt lat="44.90498" lon="5.35178">
        <ele>1341.18</ele>
        <time>2024-09-17T10:26:11Z</time>
      </trkpt>
      <trkpt lat="44.90506" lon="5.35147">
        <ele>1333.01</ele>
        <time>2024-09-17T10:26:27Z</time>
      </trkpt>
      <trkpt lat="44.90514" lon="5.35121">
        <ele>1331.56</ele>
        <time>2024-09-17T10:26:39Z</time>
      </trkpt>
      <trkpt lat="44.90522" lon="5.3509">
        <ele>1331.08</ele>
        <time>2024-09-17T10:26:52Z</time>
      </trkpt>
      <trkpt lat="44.90523" lon="5.35064">
        <ele>1331.08</ele>
        <time>2024-09-17T10:27:07Z</time>
      </trkpt>
      <trkpt lat="44.90521" lon="5.35031">
        <ele>1333.01</ele>
        <time>2024-09-17T10:27:19Z</time>
      </trkpt>
      <trkpt lat="44.90517" lon="5.35007">
        <ele>1334.93</ele>
        <time>2024-09-17T10:27:36Z</time>
      </trkpt>
      <trkpt lat="44.90512" lon="5.34978">
        <ele>1335.89</ele>
        <time>2024-09-17T10:27:50Z</time>
      </trkpt>
      <trkpt lat="44.90506" lon="5.34949">
        <ele>1339.73</ele>
        <time>2024-09-17T10:28:06Z</time>
      </trkpt>
      <trkpt lat="44.905" lon="5.34919">
        <ele>1340.22</ele>
        <time>2024-09-17T10:28:20Z</time>
      </trkpt>
      <trkpt lat="44.90499" lon="5.34887">
        <ele>1344.06</ele>
        <time>2024-09-17T10:28:35Z</time>
      </trkpt>
      <trkpt lat="44.905" lon="5.34885">
        <ele>1344.06</ele>
        <time>2024-09-17T10:28:36Z</time>
      </trkpt>
      <trkpt lat="44.90499" lon="5.34855">
        <ele>1346.94</ele>
        <time>2024-09-17T10:28:45Z</time>
      </trkpt>
      <trkpt lat="44.90498" lon="5.3485">
        <ele>1347.43</ele>
        <time>2024-09-17T10:28:46Z</time>
      </trkpt>
      <trkpt lat="44.90498" lon="5.34846">
        <ele>1347.91</ele>
        <time>2024-09-17T10:28:47Z</time>
      </trkpt>
      <trkpt lat="44.90498" lon="5.34821">
        <ele>1349.35</ele>
        <time>2024-09-17T10:29:02Z</time>
      </trkpt>
      <trkpt lat="44.90496" lon="5.34792">
        <ele>1348.39</ele>
        <time>2024-09-17T10:29:17Z</time>
      </trkpt>
      <trkpt lat="44.90491" lon="5.34747">
        <ele>1347.91</ele>
        <time>2024-09-17T10:29:31Z</time>
      </trkpt>
      <trkpt lat="44.90486" lon="5.3472">
        <ele>1347.43</ele>
        <time>2024-09-17T10:29:44Z</time>
      </trkpt>
      <trkpt lat="44.90485" lon="5.34718">
        <ele>1347.43</ele>
        <time>2024-09-17T10:29:45Z</time>
      </trkpt>
      <trkpt lat="44.90485" lon="5.34716">
        <ele>1347.43</ele>
        <time>2024-09-17T10:29:46Z</time>
      </trkpt>
      <trkpt lat="44.90482" lon="5.34705">
        <ele>1346.46</ele>
        <time>2024-09-17T10:29:52Z</time>
      </trkpt>
      <trkpt lat="44.90482" lon="5.34703">
        <ele>1346.46</ele>
        <time>2024-09-17T10:29:53Z</time>
      </trkpt>
      <trkpt lat="44.90481" lon="5.34699">
        <ele>1346.46</ele>
        <time>2024-09-17T10:29:54Z</time>
      </trkpt>
      <trkpt lat="44.90481" lon="5.34695">
        <ele>1346.46</ele>
        <time>2024-09-17T10:29:55Z</time>
      </trkpt>
      <trkpt lat="44.90481" lon="5.34692">
        <ele>1346.46</ele>
        <time>2024-09-17T10:29:56Z</time>
      </trkpt>
      <trkpt lat="44.90481" lon="5.34689">
        <ele>1346.46</ele>
        <time>2024-09-17T10:29:57Z</time>
      </trkpt>
      <trkpt lat="44.90481" lon="5.34686">
        <ele>1346.94</ele>
        <time>2024-09-17T10:29:58Z</time>
      </trkpt>
      <trkpt lat="44.90484" lon="5.34654">
        <ele>1346.94</ele>
        <time>2024-09-17T10:30:15Z</time>
      </trkpt>
      <trkpt lat="44.90484" lon="5.34619">
        <ele>1349.35</ele>
        <time>2024-09-17T10:30:32Z</time>
      </trkpt>
      <trkpt lat="44.90483" lon="5.34606">
        <ele>1351.75</ele>
        <time>2024-09-17T10:30:40Z</time>
      </trkpt>
      <trkpt lat="44.90483" lon="5.34603">
        <ele>1351.75</ele>
        <time>2024-09-17T10:30:41Z</time>
      </trkpt>
      <trkpt lat="44.90484" lon="5.34601">
        <ele>1351.75</ele>
        <time>2024-09-17T10:30:42Z</time>
      </trkpt>
      <trkpt lat="44.90482" lon="5.34587">
        <ele>1352.71</ele>
        <time>2024-09-17T10:30:55Z</time>
      </trkpt>
      <trkpt lat="44.9048" lon="5.34567">
        <ele>1357.04</ele>
        <time>2024-09-17T10:31:15Z</time>
      </trkpt>
      <trkpt lat="44.9048" lon="5.34541">
        <ele>1358.96</ele>
        <time>2024-09-17T10:31:31Z</time>
      </trkpt>
      <trkpt lat="44.90478" lon="5.34507">
        <ele>1360.88</ele>
        <time>2024-09-17T10:31:47Z</time>
      </trkpt>
      <trkpt lat="44.90477" lon="5.34486">
        <ele>1362.33</ele>
        <time>2024-09-17T10:31:58Z</time>
      </trkpt>
      <trkpt lat="44.9047" lon="5.34435">
        <ele>1367.61</ele>
        <time>2024-09-17T10:32:21Z</time>
      </trkpt>
      <trkpt lat="44.90467" lon="5.3441">
        <ele>1370.02</ele>
        <time>2024-09-17T10:32:35Z</time>
      </trkpt>
      <trkpt lat="44.90464" lon="5.34382">
        <ele>1372.42</ele>
        <time>2024-09-17T10:32:48Z</time>
      </trkpt>
      <trkpt lat="44.90459" lon="5.3435">
        <ele>1377.23</ele>
        <time>2024-09-17T10:33:04Z</time>
      </trkpt>
      <trkpt lat="44.90458" lon="5.34326">
        <ele>1380.59</ele>
        <time>2024-09-17T10:33:14Z</time>
      </trkpt>
      <trkpt lat="44.90461" lon="5.343">
        <ele>1383.96</ele>
        <time>2024-09-17T10:33:28Z</time>
      </trkpt>
      <trkpt lat="44.90462" lon="5.34298">
        <ele>1383.96</ele>
        <time>2024-09-17T10:33:29Z</time>
      </trkpt>
      <trkpt lat="44.90463" lon="5.34286">
        <ele>1384.44</ele>
        <time>2024-09-17T10:33:35Z</time>
      </trkpt>
      <trkpt lat="44.90463" lon="5.34285">
        <ele>1384.44</ele>
        <time>2024-09-17T10:33:36Z</time>
      </trkpt>
      <trkpt lat="44.90469" lon="5.34265">
        <ele>1384.92</ele>
        <time>2024-09-17T10:33:48Z</time>
      </trkpt>
      <trkpt lat="44.90476" lon="5.34239">
        <ele>1386.84</ele>
        <time>2024-09-17T10:34:00Z</time>
      </trkpt>
      <trkpt lat="44.90486" lon="5.34211">
        <ele>1389.24</ele>
        <time>2024-09-17T10:34:14Z</time>
      </trkpt>
      <trkpt lat="44.90493" lon="5.34184">
        <ele>1393.09</ele>
        <time>2024-09-17T10:34:27Z</time>
      </trkpt>
      <trkpt lat="44.90496" lon="5.34167">
        <ele>1397.89</ele>
        <time>2024-09-17T10:34:45Z</time>
      </trkpt>
      <trkpt lat="44.90497" lon="5.34152">
        <ele>1402.7</ele>
        <time>2024-09-17T10:35:03Z</time>
      </trkpt>
      <trkpt lat="44.90502" lon="5.3414">
        <ele>1404.62</ele>
        <time>2024-09-17T10:35:18Z</time>
      </trkpt>
      <trkpt lat="44.90501" lon="5.34135">
        <ele>1404.62</ele>
        <time>2024-09-17T10:35:35Z</time>
      </trkpt>
      <trkpt lat="44.905" lon="5.34127">
        <ele>1403.66</ele>
        <time>2024-09-17T10:35:41Z</time>
      </trkpt>
      <trkpt lat="44.90505" lon="5.34108">
        <ele>1399.82</ele>
        <time>2024-09-17T10:35:53Z</time>
      </trkpt>
      <trkpt lat="44.90512" lon="5.34082">
        <ele>1395.49</ele>
        <time>2024-09-17T10:36:09Z</time>
      </trkpt>
      <trkpt lat="44.90519" lon="5.34046">
        <ele>1389.24</ele>
        <time>2024-09-17T10:36:26Z</time>
      </trkpt>
      <trkpt lat="44.90525" lon="5.34022">
        <ele>1382.99</ele>
        <time>2024-09-17T10:36:40Z</time>
      </trkpt>
      <trkpt lat="44.90525" lon="5.33994">
        <ele>1384.44</ele>
        <time>2024-09-17T10:36:48Z</time>
      </trkpt>
      <trkpt lat="44.90525" lon="5.33992">
        <ele>1384.44</ele>
        <time>2024-09-17T10:36:49Z</time>
      </trkpt>
      <trkpt lat="44.90526" lon="5.33989">
        <ele>1384.92</ele>
        <time>2024-09-17T10:36:50Z</time>
      </trkpt>
      <trkpt lat="44.90527" lon="5.33986">
        <ele>1385.4</ele>
        <time>2024-09-17T10:36:51Z</time>
      </trkpt>
      <trkpt lat="44.90527" lon="5.33984">
        <ele>1385.4</ele>
        <time>2024-09-17T10:36:52Z</time>
      </trkpt>
      <trkpt lat="44.90528" lon="5.33982">
        <ele>1385.4</ele>
        <time>2024-09-17T10:36:53Z</time>
      </trkpt>
      <trkpt lat="44.90535" lon="5.33955">
        <ele>1385.88</ele>
        <time>2024-09-17T10:37:09Z</time>
      </trkpt>
      <trkpt lat="44.90533" lon="5.33909">
        <ele>1392.13</ele>
        <time>2024-09-17T10:37:25Z</time>
      </trkpt>
      <trkpt lat="44.90541" lon="5.33883">
        <ele>1394.05</ele>
        <time>2024-09-17T10:37:39Z</time>
      </trkpt>
      <trkpt lat="44.90551" lon="5.33849">
        <ele>1395.01</ele>
        <time>2024-09-17T10:37:55Z</time>
      </trkpt>
      <trkpt lat="44.9056" lon="5.33824">
        <ele>1392.13</ele>
        <time>2024-09-17T10:38:10Z</time>
      </trkpt>
      <trkpt lat="44.90559" lon="5.33772">
        <ele>1396.45</ele>
        <time>2024-09-17T10:38:25Z</time>
      </trkpt>
      <trkpt lat="44.90567" lon="5.33743">
        <ele>1401.26</ele>
        <time>2024-09-17T10:38:40Z</time>
      </trkpt>
      <trkpt lat="44.90578" lon="5.33711">
        <ele>1404.14</ele>
        <time>2024-09-17T10:38:56Z</time>
      </trkpt>
      <trkpt lat="44.90582" lon="5.33676">
        <ele>1409.91</ele>
        <time>2024-09-17T10:39:11Z</time>
      </trkpt>
      <trkpt lat="44.90588" lon="5.33641">
        <ele>1413.76</ele>
        <time>2024-09-17T10:39:28Z</time>
      </trkpt>
      <trkpt lat="44.90596" lon="5.33603">
        <ele>1415.68</ele>
        <time>2024-09-17T10:39:47Z</time>
      </trkpt>
      <trkpt lat="44.90598" lon="5.33569">
        <ele>1419.04</ele>
        <time>2024-09-17T10:40:02Z</time>
      </trkpt>
      <trkpt lat="44.906" lon="5.33553">
        <ele>1420</ele>
        <time>2024-09-17T10:40:09Z</time>
      </trkpt>
      <trkpt lat="44.90601" lon="5.3353">
        <ele>1421.93</ele>
        <time>2024-09-17T10:40:25Z</time>
      </trkpt>
      <trkpt lat="44.906" lon="5.33522">
        <ele>1429.14</ele>
        <time>2024-09-17T10:40:47Z</time>
      </trkpt>
      <trkpt lat="44.90604" lon="5.33522">
        <ele>1428.66</ele>
        <time>2024-09-17T10:40:51Z</time>
      </trkpt>
      <trkpt lat="44.90606" lon="5.33521">
        <ele>1428.66</ele>
        <time>2024-09-17T10:40:52Z</time>
      </trkpt>
      <trkpt lat="44.90626" lon="5.33501">
        <ele>1432.5</ele>
        <time>2024-09-17T10:41:07Z</time>
      </trkpt>
      <trkpt lat="44.90629" lon="5.33497">
        <ele>1432.98</ele>
        <time>2024-09-17T10:41:10Z</time>
      </trkpt>
      <trkpt lat="44.90631" lon="5.33496">
        <ele>1433.46</ele>
        <time>2024-09-17T10:41:11Z</time>
      </trkpt>
      <trkpt lat="44.90632" lon="5.33496">
        <ele>1433.46</ele>
        <time>2024-09-17T10:41:12Z</time>
      </trkpt>
      <trkpt lat="44.90634" lon="5.33494">
        <ele>1433.46</ele>
        <time>2024-09-17T10:41:13Z</time>
      </trkpt>
      <trkpt lat="44.90635" lon="5.33493">
        <ele>1433.46</ele>
        <time>2024-09-17T10:41:14Z</time>
      </trkpt>
      <trkpt lat="44.90637" lon="5.33492">
        <ele>1433.46</ele>
        <time>2024-09-17T10:41:15Z</time>
      </trkpt>
      <trkpt lat="44.90639" lon="5.33491">
        <ele>1433.46</ele>
        <time>2024-09-17T10:41:16Z</time>
      </trkpt>
      <trkpt lat="44.90672" lon="5.33493">
        <ele>1432.5</ele>
        <time>2024-09-17T10:41:34Z</time>
      </trkpt>
      <trkpt lat="44.90694" lon="5.33498">
        <ele>1428.66</ele>
        <time>2024-09-17T10:41:48Z</time>
      </trkpt>
      <trkpt lat="44.90719" lon="5.33496">
        <ele>1425.77</ele>
        <time>2024-09-17T10:42:03Z</time>
      </trkpt>
      <trkpt lat="44.90742" lon="5.3349">
        <ele>1422.89</ele>
        <time>2024-09-17T10:42:18Z</time>
      </trkpt>
      <trkpt lat="44.90763" lon="5.33478">
        <ele>1420.97</ele>
        <time>2024-09-17T10:42:32Z</time>
      </trkpt>
      <trkpt lat="44.90782" lon="5.33467">
        <ele>1419.52</ele>
        <time>2024-09-17T10:42:44Z</time>
      </trkpt>
      <trkpt lat="44.908" lon="5.33453">
        <ele>1417.12</ele>
        <time>2024-09-17T10:42:57Z</time>
      </trkpt>
      <trkpt lat="44.90814" lon="5.33429">
        <ele>1417.12</ele>
        <time>2024-09-17T10:43:09Z</time>
      </trkpt>
      <trkpt lat="44.90838" lon="5.33401">
        <ele>1418.08</ele>
        <time>2024-09-17T10:43:26Z</time>
      </trkpt>
      <trkpt lat="44.90856" lon="5.33377">
        <ele>1417.6</ele>
        <time>2024-09-17T10:43:40Z</time>
      </trkpt>
      <trkpt lat="44.90862" lon="5.33365">
        <ele>1417.12</ele>
        <time>2024-09-17T10:43:48Z</time>
      </trkpt>
      <trkpt lat="44.90862" lon="5.33364">
        <ele>1417.12</ele>
        <time>2024-09-17T10:43:49Z</time>
      </trkpt>
      <trkpt lat="44.90861" lon="5.33362">
        <ele>1417.12</ele>
        <time>2024-09-17T10:43:50Z</time>
      </trkpt>
      <trkpt lat="44.90871" lon="5.3333">
        <ele>1416.64</ele>
        <time>2024-09-17T10:44:02Z</time>
      </trkpt>
      <trkpt lat="44.90873" lon="5.33304">
        <ele>1415.68</ele>
        <time>2024-09-17T10:44:16Z</time>
      </trkpt>
      <trkpt lat="44.90868" lon="5.33295">
        <ele>1415.2</ele>
        <time>2024-09-17T10:44:24Z</time>
      </trkpt>
      <trkpt lat="44.9084" lon="5.33293">
        <ele>1415.68</ele>
        <time>2024-09-17T10:44:43Z</time>
      </trkpt>
      <trkpt lat="44.90828" lon="5.33292">
        <ele>1415.2</ele>
        <time>2024-09-17T10:44:49Z</time>
      </trkpt>
      <trkpt lat="44.90807" lon="5.33306">
        <ele>1413.76</ele>
        <time>2024-09-17T10:45:06Z</time>
      </trkpt>
      <trkpt lat="44.90789" lon="5.33309">
        <ele>1412.79</ele>
        <time>2024-09-17T10:45:18Z</time>
      </trkpt>
      <trkpt lat="44.90769" lon="5.33313">
        <ele>1413.28</ele>
        <time>2024-09-17T10:45:32Z</time>
      </trkpt>
      <trkpt lat="44.90763" lon="5.33311">
        <ele>1413.28</ele>
        <time>2024-09-17T10:45:37Z</time>
      </trkpt>
      <trkpt lat="44.90749" lon="5.33326">
        <ele>1415.68</ele>
        <time>2024-09-17T10:45:54Z</time>
      </trkpt>
      <trkpt lat="44.90748" lon="5.33326">
        <ele>1415.68</ele>
        <time>2024-09-17T10:45:57Z</time>
      </trkpt>
      <trkpt lat="44.90744" lon="5.33325">
        <ele>1415.2</ele>
        <time>2024-09-17T10:46:01Z</time>
      </trkpt>
      <trkpt lat="44.90743" lon="5.3332">
        <ele>1414.72</ele>
        <time>2024-09-17T10:46:05Z</time>
      </trkpt>
      <trkpt lat="44.90743" lon="5.33308">
        <ele>1415.68</ele>
        <time>2024-09-17T10:46:22Z</time>
      </trkpt>
      <trkpt lat="44.90744" lon="5.33307">
        <ele>1415.68</ele>
        <time>2024-09-17T10:46:23Z</time>
      </trkpt>
      <trkpt lat="44.90746" lon="5.33296">
        <ele>1414.72</ele>
        <time>2024-09-17T10:46:38Z</time>
      </trkpt>
      <trkpt lat="44.90747" lon="5.33293">
        <ele>1413.76</ele>
        <time>2024-09-17T10:47:02Z</time>
      </trkpt>
      <trkpt lat="44.9075" lon="5.33286">
        <ele>1415.2</ele>
        <time>2024-09-17T10:47:24Z</time>
      </trkpt>
      <trkpt lat="44.90753" lon="5.3327">
        <ele>1412.79</ele>
        <time>2024-09-17T10:47:36Z</time>
      </trkpt>
      <trkpt lat="44.90754" lon="5.33264">
        <ele>1412.79</ele>
        <time>2024-09-17T10:47:41Z</time>
      </trkpt>
      <trkpt lat="44.90752" lon="5.33256">
        <ele>1410.87</ele>
        <time>2024-09-17T10:47:47Z</time>
      </trkpt>
      <trkpt lat="44.9075" lon="5.3325">
        <ele>1409.91</ele>
        <time>2024-09-17T10:47:50Z</time>
      </trkpt>
      <trkpt lat="44.90742" lon="5.33231">
        <ele>1404.62</ele>
        <time>2024-09-17T10:48:06Z</time>
      </trkpt>
      <trkpt lat="44.90734" lon="5.33198">
        <ele>1401.74</ele>
        <time>2024-09-17T10:48:22Z</time>
      </trkpt>
      <trkpt lat="44.90724" lon="5.33177">
        <ele>1400.3</ele>
        <time>2024-09-17T10:48:34Z</time>
      </trkpt>
      <trkpt lat="44.90723" lon="5.33145">
        <ele>1397.89</ele>
        <time>2024-09-17T10:48:49Z</time>
      </trkpt>
      <trkpt lat="44.90729" lon="5.33115">
        <ele>1395.49</ele>
        <time>2024-09-17T10:49:01Z</time>
      </trkpt>
      <trkpt lat="44.9073" lon="5.33083">
        <ele>1394.53</ele>
        <time>2024-09-17T10:49:17Z</time>
      </trkpt>
      <trkpt lat="44.90723" lon="5.33052">
        <ele>1392.61</ele>
        <time>2024-09-17T10:49:33Z</time>
      </trkpt>
      <trkpt lat="44.90712" lon="5.33019">
        <ele>1392.13</ele>
        <time>2024-09-17T10:49:50Z</time>
      </trkpt>
      <trkpt lat="44.90704" lon="5.32982">
        <ele>1393.09</ele>
        <time>2024-09-17T10:50:04Z</time>
      </trkpt>
      <trkpt lat="44.90697" lon="5.32957">
        <ele>1395.97</ele>
        <time>2024-09-17T10:50:16Z</time>
      </trkpt>
      <trkpt lat="44.90691" lon="5.32927">
        <ele>1399.82</ele>
        <time>2024-09-17T10:50:31Z</time>
      </trkpt>
      <trkpt lat="44.90692" lon="5.32892">
        <ele>1398.86</ele>
        <time>2024-09-17T10:50:45Z</time>
      </trkpt>
      <trkpt lat="44.90691" lon="5.32869">
        <ele>1395.97</ele>
        <time>2024-09-17T10:50:59Z</time>
      </trkpt>
      <trkpt lat="44.90689" lon="5.32873">
        <ele>1395.49</ele>
        <time>2024-09-17T10:51:23Z</time>
      </trkpt>
      <trkpt lat="44.90689" lon="5.32875">
        <ele>1395.49</ele>
        <time>2024-09-17T10:51:24Z</time>
      </trkpt>
      <trkpt lat="44.90689" lon="5.32877">
        <ele>1395.01</ele>
        <time>2024-09-17T10:51:25Z</time>
      </trkpt>
      <trkpt lat="44.90692" lon="5.32905">
        <ele>1387.8</ele>
        <time>2024-09-17T10:51:39Z</time>
      </trkpt>
      <trkpt lat="44.90692" lon="5.32908">
        <ele>1386.84</ele>
        <time>2024-09-17T10:51:40Z</time>
      </trkpt>
      <trkpt lat="44.907" lon="5.32937">
        <ele>1383.96</ele>
        <time>2024-09-17T10:51:53Z</time>
      </trkpt>
      <trkpt lat="44.90708" lon="5.3297">
        <ele>1386.36</ele>
        <time>2024-09-17T10:52:06Z</time>
      </trkpt>
      <trkpt lat="44.90717" lon="5.32998">
        <ele>1386.36</ele>
        <time>2024-09-17T10:52:19Z</time>
      </trkpt>
      <trkpt lat="44.90724" lon="5.33039">
        <ele>1386.36</ele>
        <time>2024-09-17T10:52:35Z</time>
      </trkpt>
      <trkpt lat="44.90731" lon="5.33069">
        <ele>1389.72</ele>
        <time>2024-09-17T10:52:47Z</time>
      </trkpt>
      <trkpt lat="44.90749" lon="5.33089">
        <ele>1391.65</ele>
        <time>2024-09-17T10:53:04Z</time>
      </trkpt>
      <trkpt lat="44.90754" lon="5.3309">
        <ele>1392.13</ele>
        <time>2024-09-17T10:53:23Z</time>
      </trkpt>
      <trkpt lat="44.90755" lon="5.3309">
        <ele>1395.01</ele>
        <time>2024-09-17T10:53:51Z</time>
      </trkpt>
      <trkpt lat="44.9075" lon="5.33089">
        <ele>1398.86</ele>
        <time>2024-09-17T10:54:07Z</time>
      </trkpt>
      <trkpt lat="44.90748" lon="5.33088">
        <ele>1401.26</ele>
        <time>2024-09-17T10:54:31Z</time>
      </trkpt>
      <trkpt lat="44.90748" lon="5.33097">
        <ele>1398.86</ele>
        <time>2024-09-17T10:54:49Z</time>
      </trkpt>
      <trkpt lat="44.90749" lon="5.331">
        <ele>1395.97</ele>
        <time>2024-09-17T10:55:06Z</time>
      </trkpt>
      <trkpt lat="44.90747" lon="5.331">
        <ele>1395.49</ele>
        <time>2024-09-17T10:55:21Z</time>
      </trkpt>
      <trkpt lat="44.90752" lon="5.331">
        <ele>1394.53</ele>
        <time>2024-09-17T10:55:35Z</time>
      </trkpt>
      <trkpt lat="44.9076" lon="5.33099">
        <ele>1396.93</ele>
        <time>2024-09-17T10:55:51Z</time>
      </trkpt>
      <trkpt lat="44.90769" lon="5.33101">
        <ele>1397.89</ele>
        <time>2024-09-17T10:56:03Z</time>
      </trkpt>
      <trkpt lat="44.90767" lon="5.33106">
        <ele>1399.34</ele>
        <time>2024-09-17T10:56:18Z</time>
      </trkpt>
      <trkpt lat="44.90766" lon="5.33117">
        <ele>1400.78</ele>
        <time>2024-09-17T10:56:36Z</time>
      </trkpt>
      <trkpt lat="44.90763" lon="5.33119">
        <ele>1404.62</ele>
        <time>2024-09-17T10:56:48Z</time>
      </trkpt>
      <trkpt lat="44.90761" lon="5.33115">
        <ele>1407.99</ele>
        <time>2024-09-17T10:57:06Z</time>
      </trkpt>
      <trkpt lat="44.9076" lon="5.33113">
        <ele>1408.95</ele>
        <time>2024-09-17T10:57:30Z</time>
      </trkpt>
      <trkpt lat="44.90763" lon="5.33109">
        <ele>1407.99</ele>
        <time>2024-09-17T10:57:52Z</time>
      </trkpt>
      <trkpt lat="44.90764" lon="5.33115">
        <ele>1405.58</ele>
        <time>2024-09-17T10:58:10Z</time>
      </trkpt>
      <trkpt lat="44.90761" lon="5.33112">
        <ele>1407.03</ele>
        <time>2024-09-17T10:58:30Z</time>
      </trkpt>
      <trkpt lat="44.90763" lon="5.33115">
        <ele>1407.03</ele>
        <time>2024-09-17T10:58:44Z</time>
      </trkpt>
      <trkpt lat="44.90764" lon="5.33111">
        <ele>1407.51</ele>
        <time>2024-09-17T10:59:01Z</time>
      </trkpt>
      <trkpt lat="44.90761" lon="5.33115">
        <ele>1406.55</ele>
        <time>2024-09-17T10:59:14Z</time>
      </trkpt>
      <trkpt lat="44.90762" lon="5.33115">
        <ele>1404.14</ele>
        <time>2024-09-17T10:59:27Z</time>
      </trkpt>
      <trkpt lat="44.90763" lon="5.33113">
        <ele>1403.66</ele>
        <time>2024-09-17T10:59:45Z</time>
      </trkpt>
      <trkpt lat="44.90765" lon="5.33107">
        <ele>1402.22</ele>
        <time>2024-09-17T11:00:06Z</time>
      </trkpt>
      <trkpt lat="44.90763" lon="5.33114">
        <ele>1404.14</ele>
        <time>2024-09-17T11:00:21Z</time>
      </trkpt>
      <trkpt lat="44.90763" lon="5.33123">
        <ele>1402.22</ele>
        <time>2024-09-17T11:00:36Z</time>
      </trkpt>
      <trkpt lat="44.90765" lon="5.33128">
        <ele>1404.14</ele>
        <time>2024-09-17T11:00:55Z</time>
      </trkpt>
      <trkpt lat="44.90768" lon="5.33127">
        <ele>1401.74</ele>
        <time>2024-09-17T11:01:21Z</time>
      </trkpt>
      <trkpt lat="44.90766" lon="5.33118">
        <ele>1400.78</ele>
        <time>2024-09-17T11:01:40Z</time>
      </trkpt>
      <trkpt lat="44.90777" lon="5.33114">
        <ele>1394.53</ele>
        <time>2024-09-17T11:02:10Z</time>
      </trkpt>
      <trkpt lat="44.90776" lon="5.33118">
        <ele>1395.01</ele>
        <time>2024-09-17T11:02:17Z</time>
      </trkpt>
      <trkpt lat="44.90769" lon="5.33126">
        <ele>1400.78</ele>
        <time>2024-09-17T11:02:32Z</time>
      </trkpt>
      <trkpt lat="44.90768" lon="5.33118">
        <ele>1401.74</ele>
        <time>2024-09-17T11:02:48Z</time>
      </trkpt>
      <trkpt lat="44.90765" lon="5.33107">
        <ele>1399.82</ele>
        <time>2024-09-17T11:03:03Z</time>
      </trkpt>
      <trkpt lat="44.90766" lon="5.33108">
        <ele>1400.78</ele>
        <time>2024-09-17T11:03:33Z</time>
      </trkpt>
      <trkpt lat="44.90768" lon="5.33111">
        <ele>1396.93</ele>
        <time>2024-09-17T11:03:53Z</time>
      </trkpt>
      <trkpt lat="44.90765" lon="5.33103">
        <ele>1397.89</ele>
        <time>2024-09-17T11:04:10Z</time>
      </trkpt>
      <trkpt lat="44.90765" lon="5.33102">
        <ele>1396.93</ele>
        <time>2024-09-17T11:04:34Z</time>
      </trkpt>
      <trkpt lat="44.90769" lon="5.33113">
        <ele>1398.37</ele>
        <time>2024-09-17T11:04:50Z</time>
      </trkpt>
      <trkpt lat="44.90773" lon="5.33123">
        <ele>1398.37</ele>
        <time>2024-09-17T11:05:05Z</time>
      </trkpt>
      <trkpt lat="44.90771" lon="5.33136">
        <ele>1400.3</ele>
        <time>2024-09-17T11:05:20Z</time>
      </trkpt>
      <trkpt lat="44.90768" lon="5.33145">
        <ele>1399.82</ele>
        <time>2024-09-17T11:05:39Z</time>
      </trkpt>
      <trkpt lat="44.90764" lon="5.33148">
        <ele>1400.3</ele>
        <time>2024-09-17T11:06:03Z</time>
      </trkpt>
      <trkpt lat="44.90769" lon="5.33152">
        <ele>1396.93</ele>
        <time>2024-09-17T11:06:30Z</time>
      </trkpt>
      <trkpt lat="44.90767" lon="5.3315">
        <ele>1396.45</ele>
        <time>2024-09-17T11:06:54Z</time>
      </trkpt>
      <trkpt lat="44.90767" lon="5.33151">
        <ele>1396.45</ele>
        <time>2024-09-17T11:07:14Z</time>
      </trkpt>
      <trkpt lat="44.90771" lon="5.33136">
        <ele>1395.97</ele>
        <time>2024-09-17T11:07:29Z</time>
      </trkpt>
      <trkpt lat="44.90772" lon="5.33117">
        <ele>1397.89</ele>
        <time>2024-09-17T11:07:43Z</time>
      </trkpt>
      <trkpt lat="44.90768" lon="5.33102">
        <ele>1395.49</ele>
        <time>2024-09-17T11:08:00Z</time>
      </trkpt>
      <trkpt lat="44.90765" lon="5.33104">
        <ele>1395.97</ele>
        <time>2024-09-17T11:08:14Z</time>
      </trkpt>
      <trkpt lat="44.90767" lon="5.33104">
        <ele>1395.49</ele>
        <time>2024-09-17T11:08:20Z</time>
      </trkpt>
      <trkpt lat="44.90767" lon="5.33101">
        <ele>1396.45</ele>
        <time>2024-09-17T11:08:35Z</time>
      </trkpt>
      <trkpt lat="44.90766" lon="5.33098">
        <ele>1398.37</ele>
        <time>2024-09-17T11:08:50Z</time>
      </trkpt>
      <trkpt lat="44.90767" lon="5.33102">
        <ele>1398.86</ele>
        <time>2024-09-17T11:09:26Z</time>
      </trkpt>
      <trkpt lat="44.90766" lon="5.33102">
        <ele>1396.45</ele>
        <time>2024-09-17T11:09:57Z</time>
      </trkpt>
      <trkpt lat="44.90766" lon="5.33099">
        <ele>1395.49</ele>
        <time>2024-09-17T11:10:27Z</time>
      </trkpt>
      <trkpt lat="44.90762" lon="5.331">
        <ele>1404.14</ele>
        <time>2024-09-17T11:11:00Z</time>
      </trkpt>
      <trkpt lat="44.90762" lon="5.33095">
        <ele>1399.82</ele>
        <time>2024-09-17T11:11:28Z</time>
      </trkpt>
      <trkpt lat="44.90753" lon="5.33084">
        <ele>1405.58</ele>
        <time>2024-09-17T11:11:55Z</time>
      </trkpt>
      <trkpt lat="44.90764" lon="5.33115">
        <ele>1401.74</ele>
        <time>2024-09-17T11:12:11Z</time>
      </trkpt>
      <trkpt lat="44.90764" lon="5.331">
        <ele>1402.7</ele>
        <time>2024-09-17T11:12:26Z</time>
      </trkpt>
      <trkpt lat="44.90761" lon="5.33095">
        <ele>1403.66</ele>
        <time>2024-09-17T11:12:45Z</time>
      </trkpt>
      <trkpt lat="44.90757" lon="5.33097">
        <ele>1404.62</ele>
        <time>2024-09-17T11:13:18Z</time>
      </trkpt>
      <trkpt lat="44.9076" lon="5.33096">
        <ele>1405.1</ele>
        <time>2024-09-17T11:13:52Z</time>
      </trkpt>
      <trkpt lat="44.90763" lon="5.33095">
        <ele>1407.99</ele>
        <time>2024-09-17T11:14:26Z</time>
      </trkpt>
      <trkpt lat="44.90766" lon="5.33104">
        <ele>1408.95</ele>
        <time>2024-09-17T11:14:58Z</time>
      </trkpt>
      <trkpt lat="44.90761" lon="5.33098">
        <ele>1410.87</ele>
        <time>2024-09-17T11:15:37Z</time>
      </trkpt>
      <trkpt lat="44.90764" lon="5.331">
        <ele>1410.39</ele>
        <time>2024-09-17T11:16:04Z</time>
      </trkpt>
      <trkpt lat="44.90764" lon="5.33099">
        <ele>1409.43</ele>
        <time>2024-09-17T11:16:24Z</time>
      </trkpt>
      <trkpt lat="44.90765" lon="5.33101">
        <ele>1408.47</ele>
        <time>2024-09-17T11:16:47Z</time>
      </trkpt>
      <trkpt lat="44.90764" lon="5.33107">
        <ele>1407.51</ele>
        <time>2024-09-17T11:17:11Z</time>
      </trkpt>
      <trkpt lat="44.90768" lon="5.33102">
        <ele>1404.62</ele>
        <time>2024-09-17T11:17:38Z</time>
      </trkpt>
      <trkpt lat="44.90767" lon="5.33102">
        <ele>1397.89</ele>
        <time>2024-09-17T11:18:05Z</time>
      </trkpt>
      <trkpt lat="44.90763" lon="5.33102">
        <ele>1392.61</ele>
        <time>2024-09-17T11:18:28Z</time>
      </trkpt>
      <trkpt lat="44.90777" lon="5.33107">
        <ele>1391.17</ele>
        <time>2024-09-17T11:18:49Z</time>
      </trkpt>
      <trkpt lat="44.90789" lon="5.33119">
        <ele>1381.07</ele>
        <time>2024-09-17T11:19:18Z</time>
      </trkpt>
      <trkpt lat="44.90766" lon="5.33108">
        <ele>1393.09</ele>
        <time>2024-09-17T11:19:50Z</time>
      </trkpt>
      <trkpt lat="44.90766" lon="5.33106">
        <ele>1390.2</ele>
        <time>2024-09-17T11:20:20Z</time>
      </trkpt>
      <trkpt lat="44.90765" lon="5.33107">
        <ele>1391.17</ele>
        <time>2024-09-17T11:20:47Z</time>
      </trkpt>
      <trkpt lat="44.90766" lon="5.33102">
        <ele>1397.89</ele>
        <time>2024-09-17T11:21:17Z</time>
      </trkpt>
      <trkpt lat="44.90767" lon="5.33108">
        <ele>1397.89</ele>
        <time>2024-09-17T11:21:45Z</time>
      </trkpt>
      <trkpt lat="44.90769" lon="5.33101">
        <ele>1397.41</ele>
        <time>2024-09-17T11:22:08Z</time>
      </trkpt>
      <trkpt lat="44.9077" lon="5.33114">
        <ele>1395.97</ele>
        <time>2024-09-17T11:22:33Z</time>
      </trkpt>
      <trkpt lat="44.90767" lon="5.33118">
        <ele>1395.97</ele>
        <time>2024-09-17T11:22:56Z</time>
      </trkpt>
      <trkpt lat="44.90772" lon="5.331">
        <ele>1397.41</ele>
        <time>2024-09-17T11:23:46Z</time>
      </trkpt>
      <trkpt lat="44.90767" lon="5.331">
        <ele>1397.41</ele>
        <time>2024-09-17T11:24:20Z</time>
      </trkpt>
      <trkpt lat="44.90769" lon="5.33095">
        <ele>1397.89</ele>
        <time>2024-09-17T11:24:45Z</time>
      </trkpt>
      <trkpt lat="44.90765" lon="5.33104">
        <ele>1402.22</ele>
        <time>2024-09-17T11:25:18Z</time>
      </trkpt>
      <trkpt lat="44.90767" lon="5.331">
        <ele>1404.14</ele>
        <time>2024-09-17T11:25:56Z</time>
      </trkpt>
      <trkpt lat="44.90767" lon="5.33098">
        <ele>1405.1</ele>
        <time>2024-09-17T11:26:21Z</time>
      </trkpt>
      <trkpt lat="44.90766" lon="5.33096">
        <ele>1403.18</ele>
        <time>2024-09-17T11:26:51Z</time>
      </trkpt>
      <trkpt lat="44.90765" lon="5.33099">
        <ele>1402.22</ele>
        <time>2024-09-17T11:27:22Z</time>
      </trkpt>
      <trkpt lat="44.90768" lon="5.33099">
        <ele>1401.26</ele>
        <time>2024-09-17T11:27:49Z</time>
      </trkpt>
      <trkpt lat="44.90761" lon="5.33092">
        <ele>1400.3</ele>
        <time>2024-09-17T11:28:13Z</time>
      </trkpt>
      <trkpt lat="44.90756" lon="5.33074">
        <ele>1395.97</ele>
        <time>2024-09-17T11:28:40Z</time>
      </trkpt>
      <trkpt lat="44.90755" lon="5.33075">
        <ele>1392.61</ele>
        <time>2024-09-17T11:29:03Z</time>
      </trkpt>
      <trkpt lat="44.90756" lon="5.33082">
        <ele>1393.09</ele>
        <time>2024-09-17T11:29:30Z</time>
      </trkpt>
      <trkpt lat="44.90765" lon="5.33104">
        <ele>1394.53</ele>
        <time>2024-09-17T11:29:59Z</time>
      </trkpt>
      <trkpt lat="44.90765" lon="5.33095">
        <ele>1394.05</ele>
        <time>2024-09-17T11:30:23Z</time>
      </trkpt>
      <trkpt lat="44.90762" lon="5.33089">
        <ele>1395.49</ele>
        <time>2024-09-17T11:30:58Z</time>
      </trkpt>
      <trkpt lat="44.90763" lon="5.33096">
        <ele>1396.45</ele>
        <time>2024-09-17T11:31:22Z</time>
      </trkpt>
      <trkpt lat="44.90767" lon="5.33103">
        <ele>1396.45</ele>
        <time>2024-09-17T11:31:51Z</time>
      </trkpt>
      <trkpt lat="44.9077" lon="5.33107">
        <ele>1396.45</ele>
        <time>2024-09-17T11:32:21Z</time>
      </trkpt>
      <trkpt lat="44.90764" lon="5.331">
        <ele>1397.89</ele>
        <time>2024-09-17T11:32:42Z</time>
      </trkpt>
      <trkpt lat="44.90771" lon="5.33109">
        <ele>1400.3</ele>
        <time>2024-09-17T11:33:10Z</time>
      </trkpt>
      <trkpt lat="44.90764" lon="5.33099">
        <ele>1401.74</ele>
        <time>2024-09-17T11:33:41Z</time>
      </trkpt>
      <trkpt lat="44.90767" lon="5.33101">
        <ele>1403.18</ele>
        <time>2024-09-17T11:34:22Z</time>
      </trkpt>
      <trkpt lat="44.90763" lon="5.33097">
        <ele>1402.22</ele>
        <time>2024-09-17T11:34:56Z</time>
      </trkpt>
      <trkpt lat="44.90764" lon="5.33099">
        <ele>1401.26</ele>
        <time>2024-09-17T11:35:38Z</time>
      </trkpt>
      <trkpt lat="44.90767" lon="5.33102">
        <ele>1405.1</ele>
        <time>2024-09-17T11:36:15Z</time>
      </trkpt>
      <trkpt lat="44.90765" lon="5.33102">
        <ele>1407.51</ele>
        <time>2024-09-17T11:36:48Z</time>
      </trkpt>
      <trkpt lat="44.90767" lon="5.33101">
        <ele>1406.55</ele>
        <time>2024-09-17T11:37:19Z</time>
      </trkpt>
      <trkpt lat="44.90768" lon="5.33108">
        <ele>1408.95</ele>
        <time>2024-09-17T11:37:46Z</time>
      </trkpt>
      <trkpt lat="44.9077" lon="5.33099">
        <ele>1410.39</ele>
        <time>2024-09-17T11:38:14Z</time>
      </trkpt>
      <trkpt lat="44.90765" lon="5.33099">
        <ele>1408.95</ele>
        <time>2024-09-17T11:38:43Z</time>
      </trkpt>
      <trkpt lat="44.90769" lon="5.33101">
        <ele>1408.47</ele>
        <time>2024-09-17T11:39:12Z</time>
      </trkpt>
      <trkpt lat="44.90764" lon="5.33099">
        <ele>1403.18</ele>
        <time>2024-09-17T11:39:44Z</time>
      </trkpt>
      <trkpt lat="44.90764" lon="5.33099">
        <ele>1402.22</ele>
        <time>2024-09-17T11:40:17Z</time>
      </trkpt>
      <trkpt lat="44.90765" lon="5.33102">
        <ele>1402.7</ele>
        <time>2024-09-17T11:40:58Z</time>
      </trkpt>
      <trkpt lat="44.90767" lon="5.331">
        <ele>1401.26</ele>
        <time>2024-09-17T11:41:35Z</time>
      </trkpt>
      <trkpt lat="44.90771" lon="5.33097">
        <ele>1406.07</ele>
        <time>2024-09-17T11:42:10Z</time>
      </trkpt>
      <trkpt lat="44.90768" lon="5.33098">
        <ele>1401.74</ele>
        <time>2024-09-17T11:42:41Z</time>
      </trkpt>
      <trkpt lat="44.90764" lon="5.331">
        <ele>1403.18</ele>
        <time>2024-09-17T11:43:12Z</time>
      </trkpt>
      <trkpt lat="44.90763" lon="5.33101">
        <ele>1403.18</ele>
        <time>2024-09-17T11:43:37Z</time>
      </trkpt>
      <trkpt lat="44.90763" lon="5.33096">
        <ele>1400.3</ele>
        <time>2024-09-17T11:44:08Z</time>
      </trkpt>
      <trkpt lat="44.90765" lon="5.33101">
        <ele>1400.3</ele>
        <time>2024-09-17T11:44:41Z</time>
      </trkpt>
      <trkpt lat="44.90765" lon="5.331">
        <ele>1399.82</ele>
        <time>2024-09-17T11:45:16Z</time>
      </trkpt>
      <trkpt lat="44.90768" lon="5.33103">
        <ele>1400.3</ele>
        <time>2024-09-17T11:45:40Z</time>
      </trkpt>
      <trkpt lat="44.9077" lon="5.33097">
        <ele>1400.3</ele>
        <time>2024-09-17T11:46:16Z</time>
      </trkpt>
      <trkpt lat="44.90769" lon="5.331">
        <ele>1398.86</ele>
        <time>2024-09-17T11:46:46Z</time>
      </trkpt>
      <trkpt lat="44.90775" lon="5.33087">
        <ele>1397.89</ele>
        <time>2024-09-17T11:47:07Z</time>
      </trkpt>
      <trkpt lat="44.90774" lon="5.33088">
        <ele>1397.89</ele>
        <time>2024-09-17T11:47:27Z</time>
      </trkpt>
      <trkpt lat="44.90766" lon="5.33096">
        <ele>1396.45</ele>
        <time>2024-09-17T11:47:58Z</time>
      </trkpt>
      <trkpt lat="44.90764" lon="5.33097">
        <ele>1401.26</ele>
        <time>2024-09-17T11:48:33Z</time>
      </trkpt>
      <trkpt lat="44.90762" lon="5.33102">
        <ele>1401.26</ele>
        <time>2024-09-17T11:49:02Z</time>
      </trkpt>
      <trkpt lat="44.90763" lon="5.33105">
        <ele>1405.58</ele>
        <time>2024-09-17T11:49:30Z</time>
      </trkpt>
      <trkpt lat="44.90767" lon="5.33099">
        <ele>1398.86</ele>
        <time>2024-09-17T11:50:05Z</time>
      </trkpt>
      <trkpt lat="44.90764" lon="5.33102">
        <ele>1395.49</ele>
        <time>2024-09-17T11:50:37Z</time>
      </trkpt>
      <trkpt lat="44.90764" lon="5.33096">
        <ele>1391.65</ele>
        <time>2024-09-17T11:51:13Z</time>
      </trkpt>
      <trkpt lat="44.90761" lon="5.331">
        <ele>1393.57</ele>
        <time>2024-09-17T11:51:53Z</time>
      </trkpt>
      <trkpt lat="44.90765" lon="5.33106">
        <ele>1395.97</ele>
        <time>2024-09-17T11:52:23Z</time>
      </trkpt>
      <trkpt lat="44.90766" lon="5.33098">
        <ele>1396.45</ele>
        <time>2024-09-17T11:52:54Z</time>
      </trkpt>
      <trkpt lat="44.90765" lon="5.33101">
        <ele>1396.45</ele>
        <time>2024-09-17T11:53:24Z</time>
      </trkpt>
      <trkpt lat="44.90767" lon="5.33101">
        <ele>1396.45</ele>
        <time>2024-09-17T11:53:47Z</time>
      </trkpt>
      <trkpt lat="44.90769" lon="5.331">
        <ele>1401.74</ele>
        <time>2024-09-17T11:54:20Z</time>
      </trkpt>
      <trkpt lat="44.90764" lon="5.33107">
        <ele>1402.7</ele>
        <time>2024-09-17T11:54:59Z</time>
      </trkpt>
      <trkpt lat="44.90761" lon="5.33108">
        <ele>1399.34</ele>
        <time>2024-09-17T11:55:38Z</time>
      </trkpt>
      <trkpt lat="44.90764" lon="5.33109">
        <ele>1399.34</ele>
        <time>2024-09-17T11:56:07Z</time>
      </trkpt>
      <trkpt lat="44.90772" lon="5.33096">
        <ele>1397.41</ele>
        <time>2024-09-17T11:56:43Z</time>
      </trkpt>
      <trkpt lat="44.90767" lon="5.33096">
        <ele>1389.24</ele>
        <time>2024-09-17T11:57:24Z</time>
      </trkpt>
      <trkpt lat="44.90761" lon="5.33103">
        <ele>1387.32</ele>
        <time>2024-09-17T11:58:03Z</time>
      </trkpt>
      <trkpt lat="44.90766" lon="5.33095">
        <ele>1390.68</ele>
        <time>2024-09-17T11:58:36Z</time>
      </trkpt>
      <trkpt lat="44.90759" lon="5.33103">
        <ele>1392.61</ele>
        <time>2024-09-17T11:59:11Z</time>
      </trkpt>
      <trkpt lat="44.90764" lon="5.33098">
        <ele>1398.37</ele>
        <time>2024-09-17T11:59:42Z</time>
      </trkpt>
      <trkpt lat="44.90765" lon="5.33098">
        <ele>1397.89</ele>
        <time>2024-09-17T12:00:15Z</time>
      </trkpt>
      <trkpt lat="44.9076" lon="5.3311">
        <ele>1396.45</ele>
        <time>2024-09-17T12:00:53Z</time>
      </trkpt>
      <trkpt lat="44.90762" lon="5.33099">
        <ele>1388.76</ele>
        <time>2024-09-17T12:01:20Z</time>
      </trkpt>
      <trkpt lat="44.9077" lon="5.33092">
        <ele>1387.8</ele>
        <time>2024-09-17T12:01:51Z</time>
      </trkpt>
      <trkpt lat="44.90768" lon="5.33092">
        <ele>1389.24</ele>
        <time>2024-09-17T12:02:22Z</time>
      </trkpt>
      <trkpt lat="44.90762" lon="5.33099">
        <ele>1389.72</ele>
        <time>2024-09-17T12:02:53Z</time>
      </trkpt>
      <trkpt lat="44.90762" lon="5.33104">
        <ele>1396.45</ele>
        <time>2024-09-17T12:03:21Z</time>
      </trkpt>
      <trkpt lat="44.90757" lon="5.33095">
        <ele>1398.37</ele>
        <time>2024-09-17T12:03:49Z</time>
      </trkpt>
      <trkpt lat="44.90762" lon="5.33096">
        <ele>1397.41</ele>
        <time>2024-09-17T12:04:22Z</time>
      </trkpt>
      <trkpt lat="44.90764" lon="5.33102">
        <ele>1399.82</ele>
        <time>2024-09-17T12:04:45Z</time>
      </trkpt>
      <trkpt lat="44.90761" lon="5.3311">
        <ele>1393.57</ele>
        <time>2024-09-17T12:05:12Z</time>
      </trkpt>
      <trkpt lat="44.90759" lon="5.3311">
        <ele>1392.61</ele>
        <time>2024-09-17T12:05:45Z</time>
      </trkpt>
      <trkpt lat="44.90763" lon="5.3311">
        <ele>1393.57</ele>
        <time>2024-09-17T12:06:18Z</time>
      </trkpt>
      <trkpt lat="44.90759" lon="5.33111">
        <ele>1394.53</ele>
        <time>2024-09-17T12:06:41Z</time>
      </trkpt>
      <trkpt lat="44.90762" lon="5.3311">
        <ele>1395.49</ele>
        <time>2024-09-17T12:07:01Z</time>
      </trkpt>
      <trkpt lat="44.90766" lon="5.33104">
        <ele>1395.97</ele>
        <time>2024-09-17T12:07:34Z</time>
      </trkpt>
      <trkpt lat="44.90763" lon="5.33109">
        <ele>1396.45</ele>
        <time>2024-09-17T12:08:09Z</time>
      </trkpt>
      <trkpt lat="44.90753" lon="5.33127">
        <ele>1398.86</ele>
        <time>2024-09-17T12:08:38Z</time>
      </trkpt>
      <trkpt lat="44.90771" lon="5.33102">
        <ele>1399.82</ele>
        <time>2024-09-17T12:09:08Z</time>
      </trkpt>
      <trkpt lat="44.9077" lon="5.33096">
        <ele>1395.49</ele>
        <time>2024-09-17T12:09:29Z</time>
      </trkpt>
      <trkpt lat="44.9076" lon="5.33105">
        <ele>1386.84</ele>
        <time>2024-09-17T12:09:57Z</time>
      </trkpt>
      <trkpt lat="44.90765" lon="5.33103">
        <ele>1390.68</ele>
        <time>2024-09-17T12:10:18Z</time>
      </trkpt>
      <trkpt lat="44.90766" lon="5.331">
        <ele>1391.65</ele>
        <time>2024-09-17T12:11:03Z</time>
      </trkpt>
      <trkpt lat="44.9077" lon="5.33106">
        <ele>1401.74</ele>
        <time>2024-09-17T12:11:49Z</time>
      </trkpt>
      <trkpt lat="44.90764" lon="5.33113">
        <ele>1396.93</ele>
        <time>2024-09-17T12:12:09Z</time>
      </trkpt>
      <trkpt lat="44.90765" lon="5.33119">
        <ele>1395.01</ele>
        <time>2024-09-17T12:12:25Z</time>
      </trkpt>
      <trkpt lat="44.90762" lon="5.33126">
        <ele>1393.57</ele>
        <time>2024-09-17T12:12:42Z</time>
      </trkpt>
      <trkpt lat="44.90759" lon="5.33123">
        <ele>1394.05</ele>
        <time>2024-09-17T12:13:09Z</time>
      </trkpt>
      <trkpt lat="44.90759" lon="5.33121">
        <ele>1391.17</ele>
        <time>2024-09-17T12:13:29Z</time>
      </trkpt>
      <trkpt lat="44.90761" lon="5.33111">
        <ele>1392.13</ele>
        <time>2024-09-17T12:13:41Z</time>
      </trkpt>
      <trkpt lat="44.90764" lon="5.33103">
        <ele>1392.61</ele>
        <time>2024-09-17T12:14:02Z</time>
      </trkpt>
      <trkpt lat="44.90762" lon="5.33107">
        <ele>1393.09</ele>
        <time>2024-09-17T12:14:20Z</time>
      </trkpt>
      <trkpt lat="44.90765" lon="5.33108">
        <ele>1389.72</ele>
        <time>2024-09-17T12:14:36Z</time>
      </trkpt>
      <trkpt lat="44.90764" lon="5.33098">
        <ele>1388.76</ele>
        <time>2024-09-17T12:14:54Z</time>
      </trkpt>
      <trkpt lat="44.90761" lon="5.33094">
        <ele>1388.76</ele>
        <time>2024-09-17T12:15:13Z</time>
      </trkpt>
      <trkpt lat="44.90764" lon="5.33099">
        <ele>1387.8</ele>
        <time>2024-09-17T12:15:30Z</time>
      </trkpt>
      <trkpt lat="44.90765" lon="5.33107">
        <ele>1392.13</ele>
        <time>2024-09-17T12:15:43Z</time>
      </trkpt>
      <trkpt lat="44.90764" lon="5.33099">
        <ele>1393.57</ele>
        <time>2024-09-17T12:16:00Z</time>
      </trkpt>
      <trkpt lat="44.90766" lon="5.33101">
        <ele>1392.61</ele>
        <time>2024-09-17T12:16:23Z</time>
      </trkpt>
      <trkpt lat="44.90766" lon="5.33105">
        <ele>1392.13</ele>
        <time>2024-09-17T12:16:51Z</time>
      </trkpt>
      <trkpt lat="44.90763" lon="5.331">
        <ele>1390.2</ele>
        <time>2024-09-17T12:17:13Z</time>
      </trkpt>
      <trkpt lat="44.90764" lon="5.331">
        <ele>1392.61</ele>
        <time>2024-09-17T12:17:29Z</time>
      </trkpt>
      <trkpt lat="44.90764" lon="5.33097">
        <ele>1395.97</ele>
        <time>2024-09-17T12:17:57Z</time>
      </trkpt>
      <trkpt lat="44.90767" lon="5.33112">
        <ele>1398.37</ele>
        <time>2024-09-17T12:18:16Z</time>
      </trkpt>
      <trkpt lat="44.90763" lon="5.33102">
        <ele>1396.45</ele>
        <time>2024-09-17T12:18:31Z</time>
      </trkpt>
      <trkpt lat="44.90764" lon="5.33101">
        <ele>1392.13</ele>
        <time>2024-09-17T12:18:47Z</time>
      </trkpt>
      <trkpt lat="44.90764" lon="5.331">
        <ele>1392.13</ele>
        <time>2024-09-17T12:19:13Z</time>
      </trkpt>
      <trkpt lat="44.90769" lon="5.33108">
        <ele>1395.97</ele>
        <time>2024-09-17T12:19:43Z</time>
      </trkpt>
      <trkpt lat="44.90765" lon="5.33102">
        <ele>1394.53</ele>
        <time>2024-09-17T12:19:56Z</time>
      </trkpt>
      <trkpt lat="44.90766" lon="5.331">
        <ele>1392.13</ele>
        <time>2024-09-17T12:20:28Z</time>
      </trkpt>
      <trkpt lat="44.90764" lon="5.33101">
        <ele>1393.09</ele>
        <time>2024-09-17T12:20:51Z</time>
      </trkpt>
      <trkpt lat="44.90762" lon="5.33105">
        <ele>1392.13</ele>
        <time>2024-09-17T12:21:08Z</time>
      </trkpt>
      <trkpt lat="44.90765" lon="5.33102">
        <ele>1396.93</ele>
        <time>2024-09-17T12:21:30Z</time>
      </trkpt>
      <trkpt lat="44.90765" lon="5.33101">
        <ele>1397.41</ele>
        <time>2024-09-17T12:21:49Z</time>
      </trkpt>
      <trkpt lat="44.90763" lon="5.33095">
        <ele>1396.45</ele>
        <time>2024-09-17T12:22:02Z</time>
      </trkpt>
      <trkpt lat="44.90767" lon="5.331">
        <ele>1395.97</ele>
        <time>2024-09-17T12:22:26Z</time>
      </trkpt>
      <trkpt lat="44.90766" lon="5.33103">
        <ele>1394.05</ele>
        <time>2024-09-17T12:22:40Z</time>
      </trkpt>
      <trkpt lat="44.90764" lon="5.33101">
        <ele>1394.05</ele>
        <time>2024-09-17T12:23:05Z</time>
      </trkpt>
      <trkpt lat="44.90764" lon="5.33102">
        <ele>1395.97</ele>
        <time>2024-09-17T12:23:26Z</time>
      </trkpt>
      <trkpt lat="44.90766" lon="5.33106">
        <ele>1395.49</ele>
        <time>2024-09-17T12:23:44Z</time>
      </trkpt>
      <trkpt lat="44.90768" lon="5.33101">
        <ele>1395.01</ele>
        <time>2024-09-17T12:24:00Z</time>
      </trkpt>
      <trkpt lat="44.90766" lon="5.33103">
        <ele>1399.34</ele>
        <time>2024-09-17T12:24:27Z</time>
      </trkpt>
      <trkpt lat="44.90767" lon="5.33102">
        <ele>1400.78</ele>
        <time>2024-09-17T12:25:01Z</time>
      </trkpt>
      <trkpt lat="44.90766" lon="5.33099">
        <ele>1404.62</ele>
        <time>2024-09-17T12:25:29Z</time>
      </trkpt>
      <trkpt lat="44.90763" lon="5.33097">
        <ele>1401.74</ele>
        <time>2024-09-17T12:25:43Z</time>
      </trkpt>
      <trkpt lat="44.90763" lon="5.33099">
        <ele>1398.37</ele>
        <time>2024-09-17T12:26:00Z</time>
      </trkpt>
      <trkpt lat="44.90765" lon="5.33098">
        <ele>1395.97</ele>
        <time>2024-09-17T12:26:20Z</time>
      </trkpt>
      <trkpt lat="44.90764" lon="5.33101">
        <ele>1394.53</ele>
        <time>2024-09-17T12:26:43Z</time>
      </trkpt>
      <trkpt lat="44.90766" lon="5.33095">
        <ele>1394.53</ele>
        <time>2024-09-17T12:27:08Z</time>
      </trkpt>
      <trkpt lat="44.9077" lon="5.33089">
        <ele>1390.68</ele>
        <time>2024-09-17T12:27:25Z</time>
      </trkpt>
      <trkpt lat="44.90769" lon="5.33097">
        <ele>1388.76</ele>
        <time>2024-09-17T12:27:49Z</time>
      </trkpt>
      <trkpt lat="44.90773" lon="5.33098">
        <ele>1385.4</ele>
        <time>2024-09-17T12:28:04Z</time>
      </trkpt>
      <trkpt lat="44.90776" lon="5.33094">
        <ele>1382.99</ele>
        <time>2024-09-17T12:28:22Z</time>
      </trkpt>
      <trkpt lat="44.90769" lon="5.33123">
        <ele>1437.31</ele>
        <time>2024-09-17T12:29:10Z</time>
      </trkpt>
      <trkpt lat="44.90759" lon="5.3312">
        <ele>1415.68</ele>
        <time>2024-09-17T12:29:27Z</time>
      </trkpt>
      <trkpt lat="44.90765" lon="5.33114">
        <ele>1401.74</ele>
        <time>2024-09-17T12:29:55Z</time>
      </trkpt>
      <trkpt lat="44.90764" lon="5.33095">
        <ele>1395.97</ele>
        <time>2024-09-17T12:30:10Z</time>
      </trkpt>
      <trkpt lat="44.90767" lon="5.33094">
        <ele>1390.68</ele>
        <time>2024-09-17T12:30:30Z</time>
      </trkpt>
      <trkpt lat="44.9077" lon="5.33094">
        <ele>1389.72</ele>
        <time>2024-09-17T12:30:53Z</time>
      </trkpt>
      <trkpt lat="44.9076" lon="5.33105">
        <ele>1390.2</ele>
        <time>2024-09-17T12:31:20Z</time>
      </trkpt>
      <trkpt lat="44.90759" lon="5.33107">
        <ele>1392.61</ele>
        <time>2024-09-17T12:31:36Z</time>
      </trkpt>
      <trkpt lat="44.90764" lon="5.33102">
        <ele>1397.41</ele>
        <time>2024-09-17T12:31:55Z</time>
      </trkpt>
      <trkpt lat="44.90761" lon="5.33099">
        <ele>1396.45</ele>
        <time>2024-09-17T12:32:15Z</time>
      </trkpt>
      <trkpt lat="44.90757" lon="5.33108">
        <ele>1394.53</ele>
        <time>2024-09-17T12:32:34Z</time>
      </trkpt>
      <trkpt lat="44.90753" lon="5.33111">
        <ele>1393.09</ele>
        <time>2024-09-17T12:32:51Z</time>
      </trkpt>
      <trkpt lat="44.90756" lon="5.33109">
        <ele>1393.57</ele>
        <time>2024-09-17T12:33:08Z</time>
      </trkpt>
      <trkpt lat="44.90761" lon="5.3311">
        <ele>1394.53</ele>
        <time>2024-09-17T12:33:21Z</time>
      </trkpt>
      <trkpt lat="44.90759" lon="5.33109">
        <ele>1392.13</ele>
        <time>2024-09-17T12:33:35Z</time>
      </trkpt>
      <trkpt lat="44.90764" lon="5.33112">
        <ele>1390.68</ele>
        <time>2024-09-17T12:33:48Z</time>
      </trkpt>
      <trkpt lat="44.90747" lon="5.33117">
        <ele>1389.24</ele>
        <time>2024-09-17T12:34:03Z</time>
      </trkpt>
      <trkpt lat="44.90751" lon="5.3312">
        <ele>1390.2</ele>
        <time>2024-09-17T12:34:17Z</time>
      </trkpt>
      <trkpt lat="44.90754" lon="5.33118">
        <ele>1392.13</ele>
        <time>2024-09-17T12:34:34Z</time>
      </trkpt>
      <trkpt lat="44.9075" lon="5.33119">
        <ele>1392.61</ele>
        <time>2024-09-17T12:34:46Z</time>
      </trkpt>
      <trkpt lat="44.90738" lon="5.33108">
        <ele>1392.13</ele>
        <time>2024-09-17T12:35:01Z</time>
      </trkpt>
      <trkpt lat="44.90729" lon="5.33085">
        <ele>1390.68</ele>
        <time>2024-09-17T12:35:14Z</time>
      </trkpt>
      <trkpt lat="44.90725" lon="5.33063">
        <ele>1390.2</ele>
        <time>2024-09-17T12:35:27Z</time>
      </trkpt>
      <trkpt lat="44.90719" lon="5.33035">
        <ele>1393.09</ele>
        <time>2024-09-17T12:35:41Z</time>
      </trkpt>
      <trkpt lat="44.90712" lon="5.33009">
        <ele>1391.65</ele>
        <time>2024-09-17T12:35:56Z</time>
      </trkpt>
      <trkpt lat="44.90703" lon="5.32977">
        <ele>1391.17</ele>
        <time>2024-09-17T12:36:13Z</time>
      </trkpt>
      <trkpt lat="44.90694" lon="5.32944">
        <ele>1395.01</ele>
        <time>2024-09-17T12:36:30Z</time>
      </trkpt>
      <trkpt lat="44.9069" lon="5.32914">
        <ele>1395.97</ele>
        <time>2024-09-17T12:36:46Z</time>
      </trkpt>
      <trkpt lat="44.90693" lon="5.32886">
        <ele>1393.09</ele>
        <time>2024-09-17T12:37:00Z</time>
      </trkpt>
      <trkpt lat="44.90691" lon="5.32853">
        <ele>1391.65</ele>
        <time>2024-09-17T12:37:15Z</time>
      </trkpt>
      <trkpt lat="44.90683" lon="5.32835">
        <ele>1389.72</ele>
        <time>2024-09-17T12:37:28Z</time>
      </trkpt>
      <trkpt lat="44.90665" lon="5.32813">
        <ele>1390.68</ele>
        <time>2024-09-17T12:37:44Z</time>
      </trkpt>
      <trkpt lat="44.90648" lon="5.32797">
        <ele>1389.24</ele>
        <time>2024-09-17T12:37:59Z</time>
      </trkpt>
      <trkpt lat="44.90628" lon="5.32789">
        <ele>1389.24</ele>
        <time>2024-09-17T12:38:11Z</time>
      </trkpt>
      <trkpt lat="44.90612" lon="5.32786">
        <ele>1389.72</ele>
        <time>2024-09-17T12:38:23Z</time>
      </trkpt>
      <trkpt lat="44.90588" lon="5.32779">
        <ele>1391.65</ele>
        <time>2024-09-17T12:38:37Z</time>
      </trkpt>
      <trkpt lat="44.9057" lon="5.32778">
        <ele>1394.53</ele>
        <time>2024-09-17T12:38:49Z</time>
      </trkpt>
      <trkpt lat="44.90549" lon="5.3278">
        <ele>1397.89</ele>
        <time>2024-09-17T12:39:04Z</time>
      </trkpt>
      <trkpt lat="44.90527" lon="5.32775">
        <ele>1398.86</ele>
        <time>2024-09-17T12:39:21Z</time>
      </trkpt>
      <trkpt lat="44.90509" lon="5.32756">
        <ele>1400.78</ele>
        <time>2024-09-17T12:39:34Z</time>
      </trkpt>
      <trkpt lat="44.90485" lon="5.32725">
        <ele>1402.22</ele>
        <time>2024-09-17T12:39:56Z</time>
      </trkpt>
      <trkpt lat="44.90468" lon="5.32704">
        <ele>1404.62</ele>
        <time>2024-09-17T12:40:12Z</time>
      </trkpt>
      <trkpt lat="44.90449" lon="5.32685">
        <ele>1404.62</ele>
        <time>2024-09-17T12:40:29Z</time>
      </trkpt>
      <trkpt lat="44.90429" lon="5.32664">
        <ele>1406.55</ele>
        <time>2024-09-17T12:40:46Z</time>
      </trkpt>
      <trkpt lat="44.90408" lon="5.32643">
        <ele>1409.43</ele>
        <time>2024-09-17T12:41:04Z</time>
      </trkpt>
      <trkpt lat="44.90391" lon="5.32618">
        <ele>1412.79</ele>
        <time>2024-09-17T12:41:20Z</time>
      </trkpt>
      <trkpt lat="44.90369" lon="5.32603">
        <ele>1414.24</ele>
        <time>2024-09-17T12:41:37Z</time>
      </trkpt>
      <trkpt lat="44.90344" lon="5.32599">
        <ele>1416.16</ele>
        <time>2024-09-17T12:41:56Z</time>
      </trkpt>
      <trkpt lat="44.90322" lon="5.32595">
        <ele>1419.04</ele>
        <time>2024-09-17T12:42:12Z</time>
      </trkpt>
      <trkpt lat="44.90297" lon="5.32587">
        <ele>1422.41</ele>
        <time>2024-09-17T12:42:31Z</time>
      </trkpt>
      <trkpt lat="44.90275" lon="5.32581">
        <ele>1425.29</ele>
        <time>2024-09-17T12:42:48Z</time>
      </trkpt>
      <trkpt lat="44.90255" lon="5.32575">
        <ele>1427.7</ele>
        <time>2024-09-17T12:43:02Z</time>
      </trkpt>
      <trkpt lat="44.90228" lon="5.32563">
        <ele>1431.54</ele>
        <time>2024-09-17T12:43:19Z</time>
      </trkpt>
      <trkpt lat="44.90207" lon="5.32554">
        <ele>1433.94</ele>
        <time>2024-09-17T12:43:37Z</time>
      </trkpt>
      <trkpt lat="44.9018" lon="5.32545">
        <ele>1436.83</ele>
        <time>2024-09-17T12:43:54Z</time>
      </trkpt>
      <trkpt lat="44.90161" lon="5.32547">
        <ele>1438.75</ele>
        <time>2024-09-17T12:44:10Z</time>
      </trkpt>
      <trkpt lat="44.90139" lon="5.32554">
        <ele>1439.23</ele>
        <time>2024-09-17T12:44:25Z</time>
      </trkpt>
      <trkpt lat="44.90112" lon="5.32547">
        <ele>1440.19</ele>
        <time>2024-09-17T12:44:40Z</time>
      </trkpt>
      <trkpt lat="44.90091" lon="5.32537">
        <ele>1442.11</ele>
        <time>2024-09-17T12:44:57Z</time>
      </trkpt>
      <trkpt lat="44.90073" lon="5.3252">
        <ele>1444.52</ele>
        <time>2024-09-17T12:45:14Z</time>
      </trkpt>
      <trkpt lat="44.90071" lon="5.32487">
        <ele>1445</ele>
        <time>2024-09-17T12:45:29Z</time>
      </trkpt>
      <trkpt lat="44.90065" lon="5.32456">
        <ele>1442.6</ele>
        <time>2024-09-17T12:45:44Z</time>
      </trkpt>
      <trkpt lat="44.90061" lon="5.32421">
        <ele>1440.19</ele>
        <time>2024-09-17T12:46:01Z</time>
      </trkpt>
      <trkpt lat="44.90061" lon="5.32391">
        <ele>1440.19</ele>
        <time>2024-09-17T12:46:15Z</time>
      </trkpt>
      <trkpt lat="44.90056" lon="5.32362">
        <ele>1436.83</ele>
        <time>2024-09-17T12:46:31Z</time>
      </trkpt>
      <trkpt lat="44.90055" lon="5.32359">
        <ele>1436.83</ele>
        <time>2024-09-17T12:46:33Z</time>
      </trkpt>
      <trkpt lat="44.90054" lon="5.32358">
        <ele>1436.35</ele>
        <time>2024-09-17T12:46:34Z</time>
      </trkpt>
      <trkpt lat="44.90036" lon="5.3234">
        <ele>1432.98</ele>
        <time>2024-09-17T12:46:50Z</time>
      </trkpt>
      <trkpt lat="44.90016" lon="5.32319">
        <ele>1432.5</ele>
        <time>2024-09-17T12:47:04Z</time>
      </trkpt>
      <trkpt lat="44.89998" lon="5.32303">
        <ele>1435.39</ele>
        <time>2024-09-17T12:47:18Z</time>
      </trkpt>
      <trkpt lat="44.89975" lon="5.32296">
        <ele>1433.46</ele>
        <time>2024-09-17T12:47:33Z</time>
      </trkpt>
      <trkpt lat="44.89962" lon="5.32297">
        <ele>1433.46</ele>
        <time>2024-09-17T12:47:42Z</time>
      </trkpt>
      <trkpt lat="44.89961" lon="5.32297">
        <ele>1433.46</ele>
        <time>2024-09-17T12:47:43Z</time>
      </trkpt>
      <trkpt lat="44.89959" lon="5.32298">
        <ele>1433.46</ele>
        <time>2024-09-17T12:47:44Z</time>
      </trkpt>
      <trkpt lat="44.89953" lon="5.32298">
        <ele>1433.94</ele>
        <time>2024-09-17T12:47:49Z</time>
      </trkpt>
      <trkpt lat="44.89952" lon="5.32297">
        <ele>1433.94</ele>
        <time>2024-09-17T12:47:50Z</time>
      </trkpt>
      <trkpt lat="44.89951" lon="5.32296">
        <ele>1434.42</ele>
        <time>2024-09-17T12:47:51Z</time>
      </trkpt>
      <trkpt lat="44.89949" lon="5.32295">
        <ele>1434.91</ele>
        <time>2024-09-17T12:47:52Z</time>
      </trkpt>
      <trkpt lat="44.89948" lon="5.32294">
        <ele>1434.91</ele>
        <time>2024-09-17T12:47:53Z</time>
      </trkpt>
      <trkpt lat="44.89947" lon="5.32292">
        <ele>1434.91</ele>
        <time>2024-09-17T12:47:54Z</time>
      </trkpt>
      <trkpt lat="44.89947" lon="5.3229">
        <ele>1434.91</ele>
        <time>2024-09-17T12:47:55Z</time>
      </trkpt>
      <trkpt lat="44.89946" lon="5.32288">
        <ele>1434.91</ele>
        <time>2024-09-17T12:47:56Z</time>
      </trkpt>
      <trkpt lat="44.89942" lon="5.32257">
        <ele>1436.35</ele>
        <time>2024-09-17T12:48:12Z</time>
      </trkpt>
      <trkpt lat="44.89945" lon="5.32213">
        <ele>1436.83</ele>
        <time>2024-09-17T12:48:26Z</time>
      </trkpt>
      <trkpt lat="44.89945" lon="5.32181">
        <ele>1438.27</ele>
        <time>2024-09-17T12:48:40Z</time>
      </trkpt>
      <trkpt lat="44.89945" lon="5.32145">
        <ele>1439.23</ele>
        <time>2024-09-17T12:48:55Z</time>
      </trkpt>
      <trkpt lat="44.89944" lon="5.32113">
        <ele>1440.19</ele>
        <time>2024-09-17T12:49:10Z</time>
      </trkpt>
      <trkpt lat="44.89942" lon="5.32071">
        <ele>1440.19</ele>
        <time>2024-09-17T12:49:30Z</time>
      </trkpt>
      <trkpt lat="44.89929" lon="5.32044">
        <ele>1440.19</ele>
        <time>2024-09-17T12:49:45Z</time>
      </trkpt>
      <trkpt lat="44.89917" lon="5.32032">
        <ele>1440.67</ele>
        <time>2024-09-17T12:50:01Z</time>
      </trkpt>
      <trkpt lat="44.89916" lon="5.3203">
        <ele>1440.67</ele>
        <time>2024-09-17T12:50:20Z</time>
      </trkpt>
      <trkpt lat="44.89914" lon="5.32031">
        <ele>1440.19</ele>
        <time>2024-09-17T12:50:46Z</time>
      </trkpt>
      <trkpt lat="44.89915" lon="5.32031">
        <ele>1438.75</ele>
        <time>2024-09-17T12:51:17Z</time>
      </trkpt>
      <trkpt lat="44.89915" lon="5.32029">
        <ele>1438.75</ele>
        <time>2024-09-17T12:51:35Z</time>
      </trkpt>
      <trkpt lat="44.89915" lon="5.32029">
        <ele>1441.15</ele>
        <time>2024-09-17T12:52:01Z</time>
      </trkpt>
      <trkpt lat="44.89915" lon="5.32029">
        <ele>1441.15</ele>
        <time>2024-09-17T12:52:29Z</time>
      </trkpt>
      <trkpt lat="44.89912" lon="5.3203">
        <ele>1440.67</ele>
        <time>2024-09-17T12:52:48Z</time>
      </trkpt>
      <trkpt lat="44.89893" lon="5.32033">
        <ele>1441.15</ele>
        <time>2024-09-17T12:53:05Z</time>
      </trkpt>
      <trkpt lat="44.89872" lon="5.32034">
        <ele>1442.11</ele>
        <time>2024-09-17T12:53:24Z</time>
      </trkpt>
      <trkpt lat="44.89859" lon="5.32034">
        <ele>1442.11</ele>
        <time>2024-09-17T12:53:37Z</time>
      </trkpt>
      <trkpt lat="44.89831" lon="5.32045">
        <ele>1444.04</ele>
        <time>2024-09-17T12:54:01Z</time>
      </trkpt>
      <trkpt lat="44.89808" lon="5.32044">
        <ele>1444.52</ele>
        <time>2024-09-17T12:54:18Z</time>
      </trkpt>
      <trkpt lat="44.898" lon="5.32032">
        <ele>1445</ele>
        <time>2024-09-17T12:54:29Z</time>
      </trkpt>
      <trkpt lat="44.89796" lon="5.32031">
        <ele>1445</ele>
        <time>2024-09-17T12:54:33Z</time>
      </trkpt>
      <trkpt lat="44.89795" lon="5.32032">
        <ele>1445</ele>
        <time>2024-09-17T12:54:34Z</time>
      </trkpt>
      <trkpt lat="44.89793" lon="5.32032">
        <ele>1445</ele>
        <time>2024-09-17T12:54:35Z</time>
      </trkpt>
      <trkpt lat="44.89792" lon="5.32033">
        <ele>1444.52</ele>
        <time>2024-09-17T12:54:37Z</time>
      </trkpt>
      <trkpt lat="44.8978" lon="5.32044">
        <ele>1443.56</ele>
        <time>2024-09-17T12:54:51Z</time>
      </trkpt>
      <trkpt lat="44.89779" lon="5.32042">
        <ele>1443.56</ele>
        <time>2024-09-17T12:54:54Z</time>
      </trkpt>
      <trkpt lat="44.89772" lon="5.32015">
        <ele>1443.56</ele>
        <time>2024-09-17T12:55:10Z</time>
      </trkpt>
      <trkpt lat="44.89762" lon="5.3199">
        <ele>1443.08</ele>
        <time>2024-09-17T12:55:27Z</time>
      </trkpt>
      <trkpt lat="44.89746" lon="5.31973">
        <ele>1444.52</ele>
        <time>2024-09-17T12:55:44Z</time>
      </trkpt>
      <trkpt lat="44.89727" lon="5.3197">
        <ele>1446.44</ele>
        <time>2024-09-17T12:55:59Z</time>
      </trkpt>
      <trkpt lat="44.89704" lon="5.31967">
        <ele>1448.36</ele>
        <time>2024-09-17T12:56:17Z</time>
      </trkpt>
      <trkpt lat="44.89679" lon="5.31963">
        <ele>1449.81</ele>
        <time>2024-09-17T12:56:37Z</time>
      </trkpt>
      <trkpt lat="44.89655" lon="5.3196">
        <ele>1449.81</ele>
        <time>2024-09-17T12:56:56Z</time>
      </trkpt>
      <trkpt lat="44.89628" lon="5.31959">
        <ele>1450.29</ele>
        <time>2024-09-17T12:57:15Z</time>
      </trkpt>
      <trkpt lat="44.89609" lon="5.31956">
        <ele>1451.73</ele>
        <time>2024-09-17T12:57:30Z</time>
      </trkpt>
      <trkpt lat="44.89586" lon="5.3196">
        <ele>1454.13</ele>
        <time>2024-09-17T12:57:47Z</time>
      </trkpt>
      <trkpt lat="44.89565" lon="5.31968">
        <ele>1456.05</ele>
        <time>2024-09-17T12:58:03Z</time>
      </trkpt>
      <trkpt lat="44.89545" lon="5.31979">
        <ele>1457.02</ele>
        <time>2024-09-17T12:58:21Z</time>
      </trkpt>
      <trkpt lat="44.89521" lon="5.31985">
        <ele>1457.98</ele>
        <time>2024-09-17T12:58:35Z</time>
      </trkpt>
      <trkpt lat="44.89499" lon="5.31988">
        <ele>1459.42</ele>
        <time>2024-09-17T12:58:54Z</time>
      </trkpt>
      <trkpt lat="44.89497" lon="5.31987">
        <ele>1459.9</ele>
        <time>2024-09-17T12:58:56Z</time>
      </trkpt>
      <trkpt lat="44.89473" lon="5.31984">
        <ele>1461.34</ele>
        <time>2024-09-17T12:59:10Z</time>
      </trkpt>
      <trkpt lat="44.89453" lon="5.31984">
        <ele>1465.19</ele>
        <time>2024-09-17T12:59:25Z</time>
      </trkpt>
      <trkpt lat="44.89432" lon="5.31982">
        <ele>1469.03</ele>
        <time>2024-09-17T12:59:39Z</time>
      </trkpt>
      <trkpt lat="44.8941" lon="5.31976">
        <ele>1471.92</ele>
        <time>2024-09-17T12:59:54Z</time>
      </trkpt>
      <trkpt lat="44.89382" lon="5.31972">
        <ele>1476.24</ele>
        <time>2024-09-17T13:00:14Z</time>
      </trkpt>
      <trkpt lat="44.89364" lon="5.31966">
        <ele>1479.61</ele>
        <time>2024-09-17T13:00:29Z</time>
      </trkpt>
      <trkpt lat="44.8934" lon="5.31964">
        <ele>1481.53</ele>
        <time>2024-09-17T13:00:44Z</time>
      </trkpt>
      <trkpt lat="44.89325" lon="5.3196">
        <ele>1482.97</ele>
        <time>2024-09-17T13:00:55Z</time>
      </trkpt>
      <trkpt lat="44.89305" lon="5.31956">
        <ele>1486.82</ele>
        <time>2024-09-17T13:01:06Z</time>
      </trkpt>
      <trkpt lat="44.8928" lon="5.31952">
        <ele>1489.22</ele>
        <time>2024-09-17T13:01:22Z</time>
      </trkpt>
      <trkpt lat="44.89274" lon="5.31946">
        <ele>1491.62</ele>
        <time>2024-09-17T13:01:36Z</time>
      </trkpt>
      <trkpt lat="44.8927" lon="5.31939">
        <ele>1491.14</ele>
        <time>2024-09-17T13:01:54Z</time>
      </trkpt>
      <trkpt lat="44.89269" lon="5.3194">
        <ele>1491.14</ele>
        <time>2024-09-17T13:02:18Z</time>
      </trkpt>
      <trkpt lat="44.89272" lon="5.3194">
        <ele>1491.14</ele>
        <time>2024-09-17T13:02:24Z</time>
      </trkpt>
      <trkpt lat="44.89273" lon="5.31942">
        <ele>1491.14</ele>
        <time>2024-09-17T13:02:25Z</time>
      </trkpt>
      <trkpt lat="44.89294" lon="5.31955">
        <ele>1489.22</ele>
        <time>2024-09-17T13:02:43Z</time>
      </trkpt>
      <trkpt lat="44.89314" lon="5.31957">
        <ele>1486.82</ele>
        <time>2024-09-17T13:02:58Z</time>
      </trkpt>
      <trkpt lat="44.89346" lon="5.31963">
        <ele>1482.97</ele>
        <time>2024-09-17T13:03:15Z</time>
      </trkpt>
      <trkpt lat="44.89371" lon="5.31969">
        <ele>1478.65</ele>
        <time>2024-09-17T13:03:30Z</time>
      </trkpt>
      <trkpt lat="44.89375" lon="5.3197">
        <ele>1477.2</ele>
        <time>2024-09-17T13:03:45Z</time>
      </trkpt>
      <trkpt lat="44.89374" lon="5.31976">
        <ele>1475.76</ele>
        <time>2024-09-17T13:04:01Z</time>
      </trkpt>
      <trkpt lat="44.89366" lon="5.3198">
        <ele>1476.72</ele>
        <time>2024-09-17T13:04:17Z</time>
      </trkpt>
      <trkpt lat="44.89358" lon="5.31993">
        <ele>1479.13</ele>
        <time>2024-09-17T13:04:35Z</time>
      </trkpt>
      <trkpt lat="44.8935" lon="5.32005">
        <ele>1479.61</ele>
        <time>2024-09-17T13:04:49Z</time>
      </trkpt>
      <trkpt lat="44.89331" lon="5.32034">
        <ele>1480.57</ele>
        <time>2024-09-17T13:05:09Z</time>
      </trkpt>
      <trkpt lat="44.89312" lon="5.32061">
        <ele>1481.05</ele>
        <time>2024-09-17T13:05:25Z</time>
      </trkpt>
      <trkpt lat="44.89295" lon="5.32086">
        <ele>1481.05</ele>
        <time>2024-09-17T13:05:41Z</time>
      </trkpt>
      <trkpt lat="44.89282" lon="5.32119">
        <ele>1482.49</ele>
        <time>2024-09-17T13:05:55Z</time>
      </trkpt>
      <trkpt lat="44.89288" lon="5.32157">
        <ele>1486.34</ele>
        <time>2024-09-17T13:06:12Z</time>
      </trkpt>
      <trkpt lat="44.8928" lon="5.32184">
        <ele>1487.78</ele>
        <time>2024-09-17T13:06:27Z</time>
      </trkpt>
      <trkpt lat="44.89262" lon="5.32195">
        <ele>1489.7</ele>
        <time>2024-09-17T13:06:43Z</time>
      </trkpt>
      <trkpt lat="44.89252" lon="5.32201">
        <ele>1489.22</ele>
        <time>2024-09-17T13:07:00Z</time>
      </trkpt>
      <trkpt lat="44.89242" lon="5.32212">
        <ele>1489.22</ele>
        <time>2024-09-17T13:07:14Z</time>
      </trkpt>
      <trkpt lat="44.89239" lon="5.32215">
        <ele>1490.18</ele>
        <time>2024-09-17T13:07:34Z</time>
      </trkpt>
      <trkpt lat="44.89227" lon="5.32232">
        <ele>1492.1</ele>
        <time>2024-09-17T13:07:52Z</time>
      </trkpt>
      <trkpt lat="44.89219" lon="5.32256">
        <ele>1494.03</ele>
        <time>2024-09-17T13:08:09Z</time>
      </trkpt>
      <trkpt lat="44.89217" lon="5.32261">
        <ele>1493.55</ele>
        <time>2024-09-17T13:08:13Z</time>
      </trkpt>
      <trkpt lat="44.8921" lon="5.32277">
        <ele>1493.06</ele>
        <time>2024-09-17T13:08:28Z</time>
      </trkpt>
      <trkpt lat="44.89209" lon="5.32286">
        <ele>1494.03</ele>
        <time>2024-09-17T13:08:40Z</time>
      </trkpt>
      <trkpt lat="44.89208" lon="5.32288">
        <ele>1494.03</ele>
        <time>2024-09-17T13:08:41Z</time>
      </trkpt>
      <trkpt lat="44.89207" lon="5.32296">
        <ele>1495.47</ele>
        <time>2024-09-17T13:08:56Z</time>
      </trkpt>
      <trkpt lat="44.89206" lon="5.32296">
        <ele>1495.95</ele>
        <time>2024-09-17T13:09:13Z</time>
      </trkpt>
      <trkpt lat="44.89201" lon="5.32298">
        <ele>1499.31</ele>
        <time>2024-09-17T13:09:36Z</time>
      </trkpt>
      <trkpt lat="44.89199" lon="5.323">
        <ele>1499.79</ele>
        <time>2024-09-17T13:09:39Z</time>
      </trkpt>
      <trkpt lat="44.89175" lon="5.32308">
        <ele>1501.72</ele>
        <time>2024-09-17T13:09:58Z</time>
      </trkpt>
      <trkpt lat="44.89174" lon="5.32309">
        <ele>1501.72</ele>
        <time>2024-09-17T13:09:59Z</time>
      </trkpt>
      <trkpt lat="44.89153" lon="5.32315">
        <ele>1502.68</ele>
        <time>2024-09-17T13:10:17Z</time>
      </trkpt>
      <trkpt lat="44.89133" lon="5.32303">
        <ele>1503.16</ele>
        <time>2024-09-17T13:10:33Z</time>
      </trkpt>
      <trkpt lat="44.89113" lon="5.32288">
        <ele>1504.6</ele>
        <time>2024-09-17T13:10:49Z</time>
      </trkpt>
      <trkpt lat="44.89095" lon="5.32273">
        <ele>1506.04</ele>
        <time>2024-09-17T13:11:05Z</time>
      </trkpt>
      <trkpt lat="44.89094" lon="5.32272">
        <ele>1506.04</ele>
        <time>2024-09-17T13:11:06Z</time>
      </trkpt>
      <trkpt lat="44.89093" lon="5.32271">
        <ele>1506.04</ele>
        <time>2024-09-17T13:11:07Z</time>
      </trkpt>
      <trkpt lat="44.89092" lon="5.32269">
        <ele>1506.04</ele>
        <time>2024-09-17T13:11:08Z</time>
      </trkpt>
      <trkpt lat="44.89091" lon="5.32268">
        <ele>1506.04</ele>
        <time>2024-09-17T13:11:09Z</time>
      </trkpt>
      <trkpt lat="44.8909" lon="5.32267">
        <ele>1506.52</ele>
        <time>2024-09-17T13:11:10Z</time>
      </trkpt>
      <trkpt lat="44.89074" lon="5.32248">
        <ele>1507.48</ele>
        <time>2024-09-17T13:11:26Z</time>
      </trkpt>
      <trkpt lat="44.89054" lon="5.32234">
        <ele>1507.97</ele>
        <time>2024-09-17T13:11:44Z</time>
      </trkpt>
      <trkpt lat="44.89033" lon="5.32218">
        <ele>1509.41</ele>
        <time>2024-09-17T13:12:00Z</time>
      </trkpt>
      <trkpt lat="44.89008" lon="5.32206">
        <ele>1511.81</ele>
        <time>2024-09-17T13:12:15Z</time>
      </trkpt>
      <trkpt lat="44.88982" lon="5.32201">
        <ele>1515.18</ele>
        <time>2024-09-17T13:12:30Z</time>
      </trkpt>
      <trkpt lat="44.88962" lon="5.3221">
        <ele>1517.1</ele>
        <time>2024-09-17T13:12:45Z</time>
      </trkpt>
      <trkpt lat="44.88961" lon="5.32212">
        <ele>1517.1</ele>
        <time>2024-09-17T13:12:46Z</time>
      </trkpt>
      <trkpt lat="44.88958" lon="5.32214">
        <ele>1517.58</ele>
        <time>2024-09-17T13:12:50Z</time>
      </trkpt>
      <trkpt lat="44.88936" lon="5.32199">
        <ele>1519.98</ele>
        <time>2024-09-17T13:13:04Z</time>
      </trkpt>
      <trkpt lat="44.88916" lon="5.3218">
        <ele>1520.46</ele>
        <time>2024-09-17T13:13:18Z</time>
      </trkpt>
      <trkpt lat="44.88902" lon="5.32153">
        <ele>1521.42</ele>
        <time>2024-09-17T13:13:33Z</time>
      </trkpt>
      <trkpt lat="44.88886" lon="5.32128">
        <ele>1522.87</ele>
        <time>2024-09-17T13:13:48Z</time>
      </trkpt>
      <trkpt lat="44.88869" lon="5.32106">
        <ele>1522.87</ele>
        <time>2024-09-17T13:14:05Z</time>
      </trkpt>
      <trkpt lat="44.88857" lon="5.32095">
        <ele>1521.42</ele>
        <time>2024-09-17T13:14:14Z</time>
      </trkpt>
      <trkpt lat="44.88842" lon="5.32086">
        <ele>1524.79</ele>
        <time>2024-09-17T13:14:26Z</time>
      </trkpt>
      <trkpt lat="44.88841" lon="5.32083">
        <ele>1526.71</ele>
        <time>2024-09-17T13:14:42Z</time>
      </trkpt>
      <trkpt lat="44.88842" lon="5.3208">
        <ele>1526.71</ele>
        <time>2024-09-17T13:15:07Z</time>
      </trkpt>
      <trkpt lat="44.88841" lon="5.32068">
        <ele>1526.23</ele>
        <time>2024-09-17T13:15:21Z</time>
      </trkpt>
      <trkpt lat="44.88835" lon="5.32062">
        <ele>1527.67</ele>
        <time>2024-09-17T13:15:33Z</time>
      </trkpt>
      <trkpt lat="44.88831" lon="5.32063">
        <ele>1528.63</ele>
        <time>2024-09-17T13:15:50Z</time>
      </trkpt>
      <trkpt lat="44.88822" lon="5.32057">
        <ele>1529.59</ele>
        <time>2024-09-17T13:16:09Z</time>
      </trkpt>
      <trkpt lat="44.88804" lon="5.32044">
        <ele>1532</ele>
        <time>2024-09-17T13:16:26Z</time>
      </trkpt>
      <trkpt lat="44.88791" lon="5.32038">
        <ele>1534.4</ele>
        <time>2024-09-17T13:16:39Z</time>
      </trkpt>
      <trkpt lat="44.88789" lon="5.32038">
        <ele>1534.4</ele>
        <time>2024-09-17T13:16:41Z</time>
      </trkpt>
      <trkpt lat="44.88788" lon="5.32037">
        <ele>1534.88</ele>
        <time>2024-09-17T13:16:42Z</time>
      </trkpt>
      <trkpt lat="44.8877" lon="5.32027">
        <ele>1536.8</ele>
        <time>2024-09-17T13:16:56Z</time>
      </trkpt>
      <trkpt lat="44.8875" lon="5.32021">
        <ele>1541.61</ele>
        <time>2024-09-17T13:17:14Z</time>
      </trkpt>
      <trkpt lat="44.8873" lon="5.32032">
        <ele>1543.05</ele>
        <time>2024-09-17T13:17:31Z</time>
      </trkpt>
      <trkpt lat="44.88711" lon="5.32044">
        <ele>1543.05</ele>
        <time>2024-09-17T13:17:48Z</time>
      </trkpt>
      <trkpt lat="44.88704" lon="5.32047">
        <ele>1543.53</ele>
        <time>2024-09-17T13:17:54Z</time>
      </trkpt>
      <trkpt lat="44.88703" lon="5.32047">
        <ele>1543.53</ele>
        <time>2024-09-17T13:17:55Z</time>
      </trkpt>
      <trkpt lat="44.88685" lon="5.32053">
        <ele>1544.98</ele>
        <time>2024-09-17T13:18:12Z</time>
      </trkpt>
      <trkpt lat="44.88668" lon="5.32062">
        <ele>1544.5</ele>
        <time>2024-09-17T13:18:28Z</time>
      </trkpt>
      <trkpt lat="44.88654" lon="5.32077">
        <ele>1544.01</ele>
        <time>2024-09-17T13:18:45Z</time>
      </trkpt>
      <trkpt lat="44.88634" lon="5.3209">
        <ele>1544.01</ele>
        <time>2024-09-17T13:19:01Z</time>
      </trkpt>
      <trkpt lat="44.88608" lon="5.32101">
        <ele>1545.46</ele>
        <time>2024-09-17T13:19:21Z</time>
      </trkpt>
      <trkpt lat="44.88587" lon="5.32112">
        <ele>1544.5</ele>
        <time>2024-09-17T13:19:36Z</time>
      </trkpt>
      <trkpt lat="44.88564" lon="5.32127">
        <ele>1543.53</ele>
        <time>2024-09-17T13:19:51Z</time>
      </trkpt>
      <trkpt lat="44.88541" lon="5.32138">
        <ele>1542.57</ele>
        <time>2024-09-17T13:20:04Z</time>
      </trkpt>
      <trkpt lat="44.88526" lon="5.32167">
        <ele>1542.57</ele>
        <time>2024-09-17T13:20:18Z</time>
      </trkpt>
      <trkpt lat="44.88521" lon="5.32201">
        <ele>1543.53</ele>
        <time>2024-09-17T13:20:35Z</time>
      </trkpt>
      <trkpt lat="44.8852" lon="5.32207">
        <ele>1543.53</ele>
        <time>2024-09-17T13:20:38Z</time>
      </trkpt>
      <trkpt lat="44.88518" lon="5.32207">
        <ele>1543.53</ele>
        <time>2024-09-17T13:20:40Z</time>
      </trkpt>
      <trkpt lat="44.88516" lon="5.32207">
        <ele>1543.53</ele>
        <time>2024-09-17T13:20:41Z</time>
      </trkpt>
      <trkpt lat="44.88515" lon="5.32207">
        <ele>1543.53</ele>
        <time>2024-09-17T13:20:42Z</time>
      </trkpt>
      <trkpt lat="44.8849" lon="5.32204">
        <ele>1544.01</ele>
        <time>2024-09-17T13:20:56Z</time>
      </trkpt>
      <trkpt lat="44.88467" lon="5.32208">
        <ele>1545.94</ele>
        <time>2024-09-17T13:21:13Z</time>
      </trkpt>
      <trkpt lat="44.88464" lon="5.32212">
        <ele>1546.9</ele>
        <time>2024-09-17T13:21:16Z</time>
      </trkpt>
      <trkpt lat="44.88464" lon="5.32213">
        <ele>1546.9</ele>
        <time>2024-09-17T13:21:17Z</time>
      </trkpt>
      <trkpt lat="44.8845" lon="5.32237">
        <ele>1547.38</ele>
        <time>2024-09-17T13:21:31Z</time>
      </trkpt>
      <trkpt lat="44.88447" lon="5.32241">
        <ele>1547.86</ele>
        <time>2024-09-17T13:21:45Z</time>
      </trkpt>
      <trkpt lat="44.88448" lon="5.32242">
        <ele>1545.94</ele>
        <time>2024-09-17T13:22:07Z</time>
      </trkpt>
      <trkpt lat="44.88448" lon="5.32242">
        <ele>1544.5</ele>
        <time>2024-09-17T13:22:33Z</time>
      </trkpt>
      <trkpt lat="44.88449" lon="5.32239">
        <ele>1543.05</ele>
        <time>2024-09-17T13:22:44Z</time>
      </trkpt>
      <trkpt lat="44.88454" lon="5.32232">
        <ele>1544.5</ele>
        <time>2024-09-17T13:22:51Z</time>
      </trkpt>
      <trkpt lat="44.88462" lon="5.32209">
        <ele>1546.9</ele>
        <time>2024-09-17T13:23:07Z</time>
      </trkpt>
      <trkpt lat="44.88465" lon="5.32204">
        <ele>1546.9</ele>
        <time>2024-09-17T13:23:12Z</time>
      </trkpt>
      <trkpt lat="44.88489" lon="5.32204">
        <ele>1543.53</ele>
        <time>2024-09-17T13:23:31Z</time>
      </trkpt>
      <trkpt lat="44.88512" lon="5.32207">
        <ele>1543.05</ele>
        <time>2024-09-17T13:23:49Z</time>
      </trkpt>
      <trkpt lat="44.88516" lon="5.32212">
        <ele>1542.09</ele>
        <time>2024-09-17T13:24:01Z</time>
      </trkpt>
      <trkpt lat="44.88511" lon="5.32218">
        <ele>1542.09</ele>
        <time>2024-09-17T13:24:13Z</time>
      </trkpt>
      <trkpt lat="44.88505" lon="5.32222">
        <ele>1542.09</ele>
        <time>2024-09-17T13:24:26Z</time>
      </trkpt>
      <trkpt lat="44.88504" lon="5.32223">
        <ele>1542.09</ele>
        <time>2024-09-17T13:24:33Z</time>
      </trkpt>
      <trkpt lat="44.88493" lon="5.32239">
        <ele>1542.57</ele>
        <time>2024-09-17T13:24:46Z</time>
      </trkpt>
      <trkpt lat="44.88486" lon="5.32247">
        <ele>1544.01</ele>
        <time>2024-09-17T13:24:53Z</time>
      </trkpt>
      <trkpt lat="44.88473" lon="5.32269">
        <ele>1547.38</ele>
        <time>2024-09-17T13:25:07Z</time>
      </trkpt>
      <trkpt lat="44.88468" lon="5.32297">
        <ele>1547.38</ele>
        <time>2024-09-17T13:25:24Z</time>
      </trkpt>
      <trkpt lat="44.88464" lon="5.32325">
        <ele>1547.86</ele>
        <time>2024-09-17T13:25:41Z</time>
      </trkpt>
      <trkpt lat="44.8846" lon="5.32352">
        <ele>1548.82</ele>
        <time>2024-09-17T13:25:56Z</time>
      </trkpt>
      <trkpt lat="44.88457" lon="5.32376">
        <ele>1549.78</ele>
        <time>2024-09-17T13:26:12Z</time>
      </trkpt>
      <trkpt lat="44.88449" lon="5.32397">
        <ele>1549.78</ele>
        <time>2024-09-17T13:26:29Z</time>
      </trkpt>
      <trkpt lat="44.88446" lon="5.32407">
        <ele>1549.3</ele>
        <time>2024-09-17T13:26:37Z</time>
      </trkpt>
      <trkpt lat="44.88452" lon="5.32432">
        <ele>1549.3</ele>
        <time>2024-09-17T13:26:55Z</time>
      </trkpt>
      <trkpt lat="44.88456" lon="5.32448">
        <ele>1550.26</ele>
        <time>2024-09-17T13:27:09Z</time>
      </trkpt>
      <trkpt lat="44.8846" lon="5.32476">
        <ele>1553.15</ele>
        <time>2024-09-17T13:27:28Z</time>
      </trkpt>
      <trkpt lat="44.8846" lon="5.32488">
        <ele>1555.07</ele>
        <time>2024-09-17T13:27:45Z</time>
      </trkpt>
      <trkpt lat="44.88459" lon="5.32488">
        <ele>1554.59</ele>
        <time>2024-09-17T13:28:15Z</time>
      </trkpt>
      <trkpt lat="44.88459" lon="5.32493">
        <ele>1555.07</ele>
        <time>2024-09-17T13:28:33Z</time>
      </trkpt>
      <trkpt lat="44.88456" lon="5.32509">
        <ele>1553.63</ele>
        <time>2024-09-17T13:28:46Z</time>
      </trkpt>
      <trkpt lat="44.88455" lon="5.32511">
        <ele>1553.63</ele>
        <time>2024-09-17T13:28:47Z</time>
      </trkpt>
      <trkpt lat="44.88451" lon="5.32518">
        <ele>1552.19</ele>
        <time>2024-09-17T13:28:53Z</time>
      </trkpt>
      <trkpt lat="44.88445" lon="5.32524">
        <ele>1551.22</ele>
        <time>2024-09-17T13:29:00Z</time>
      </trkpt>
      <trkpt lat="44.88443" lon="5.32533">
        <ele>1550.74</ele>
        <time>2024-09-17T13:29:07Z</time>
      </trkpt>
      <trkpt lat="44.88435" lon="5.32544">
        <ele>1548.82</ele>
        <time>2024-09-17T13:29:17Z</time>
      </trkpt>
      <trkpt lat="44.88431" lon="5.32539">
        <ele>1548.34</ele>
        <time>2024-09-17T13:29:21Z</time>
      </trkpt>
      <trkpt lat="44.88419" lon="5.32518">
        <ele>1545.46</ele>
        <time>2024-09-17T13:29:38Z</time>
      </trkpt>
      <trkpt lat="44.88409" lon="5.325">
        <ele>1545.46</ele>
        <time>2024-09-17T13:29:51Z</time>
      </trkpt>
      <trkpt lat="44.88377" lon="5.32488">
        <ele>1546.42</ele>
        <time>2024-09-17T13:30:16Z</time>
      </trkpt>
      <trkpt lat="44.88362" lon="5.32486">
        <ele>1547.38</ele>
        <time>2024-09-17T13:30:33Z</time>
      </trkpt>
      <trkpt lat="44.8836" lon="5.32485">
        <ele>1547.86</ele>
        <time>2024-09-17T13:30:52Z</time>
      </trkpt>
      <trkpt lat="44.8836" lon="5.32486">
        <ele>1547.38</ele>
        <time>2024-09-17T13:31:08Z</time>
      </trkpt>
      <trkpt lat="44.88352" lon="5.32481">
        <ele>1546.42</ele>
        <time>2024-09-17T13:31:23Z</time>
      </trkpt>
      <trkpt lat="44.88329" lon="5.32482">
        <ele>1546.42</ele>
        <time>2024-09-17T13:31:44Z</time>
      </trkpt>
      <trkpt lat="44.88313" lon="5.32479">
        <ele>1544.01</ele>
        <time>2024-09-17T13:31:58Z</time>
      </trkpt>
      <trkpt lat="44.88293" lon="5.32476">
        <ele>1540.17</ele>
        <time>2024-09-17T13:32:15Z</time>
      </trkpt>
      <trkpt lat="44.88279" lon="5.32474">
        <ele>1542.57</ele>
        <time>2024-09-17T13:32:31Z</time>
      </trkpt>
      <trkpt lat="44.88274" lon="5.32469">
        <ele>1543.05</ele>
        <time>2024-09-17T13:32:44Z</time>
      </trkpt>
      <trkpt lat="44.88269" lon="5.32468">
        <ele>1543.53</ele>
        <time>2024-09-17T13:33:07Z</time>
      </trkpt>
      <trkpt lat="44.88252" lon="5.3246">
        <ele>1545.46</ele>
        <time>2024-09-17T13:33:24Z</time>
      </trkpt>
      <trkpt lat="44.88246" lon="5.32463">
        <ele>1544.5</ele>
        <time>2024-09-17T13:33:34Z</time>
      </trkpt>
      <trkpt lat="44.88221" lon="5.32463">
        <ele>1542.09</ele>
        <time>2024-09-17T13:33:54Z</time>
      </trkpt>
      <trkpt lat="44.88202" lon="5.32459">
        <ele>1543.53</ele>
        <time>2024-09-17T13:34:10Z</time>
      </trkpt>
      <trkpt lat="44.88178" lon="5.32462">
        <ele>1542.57</ele>
        <time>2024-09-17T13:34:30Z</time>
      </trkpt>
      <trkpt lat="44.88163" lon="5.32465">
        <ele>1541.13</ele>
        <time>2024-09-17T13:34:45Z</time>
      </trkpt>
      <trkpt lat="44.88142" lon="5.32469">
        <ele>1542.57</ele>
        <time>2024-09-17T13:35:04Z</time>
      </trkpt>
      <trkpt lat="44.88119" lon="5.32475">
        <ele>1544.01</ele>
        <time>2024-09-17T13:35:22Z</time>
      </trkpt>
      <trkpt lat="44.8811" lon="5.32474">
        <ele>1544.01</ele>
        <time>2024-09-17T13:35:37Z</time>
      </trkpt>
      <trkpt lat="44.88108" lon="5.32478">
        <ele>1542.57</ele>
        <time>2024-09-17T13:35:53Z</time>
      </trkpt>
      <trkpt lat="44.88098" lon="5.32497">
        <ele>1542.57</ele>
        <time>2024-09-17T13:36:09Z</time>
      </trkpt>
      <trkpt lat="44.88093" lon="5.32502">
        <ele>1542.09</ele>
        <time>2024-09-17T13:36:17Z</time>
      </trkpt>
      <trkpt lat="44.88086" lon="5.32518">
        <ele>1542.09</ele>
        <time>2024-09-17T13:36:32Z</time>
      </trkpt>
      <trkpt lat="44.88089" lon="5.32519">
        <ele>1539.69</ele>
        <time>2024-09-17T13:36:55Z</time>
      </trkpt>
      <trkpt lat="44.88088" lon="5.32536">
        <ele>1539.21</ele>
        <time>2024-09-17T13:37:12Z</time>
      </trkpt>
      <trkpt lat="44.88088" lon="5.32554">
        <ele>1539.69</ele>
        <time>2024-09-17T13:37:24Z</time>
      </trkpt>
      <trkpt lat="44.88085" lon="5.32579">
        <ele>1539.21</ele>
        <time>2024-09-17T13:37:41Z</time>
      </trkpt>
      <trkpt lat="44.88083" lon="5.32607">
        <ele>1540.17</ele>
        <time>2024-09-17T13:37:59Z</time>
      </trkpt>
      <trkpt lat="44.88083" lon="5.32608">
        <ele>1540.17</ele>
        <time>2024-09-17T13:38:00Z</time>
      </trkpt>
      <trkpt lat="44.8808" lon="5.32634">
        <ele>1538.73</ele>
        <time>2024-09-17T13:38:18Z</time>
      </trkpt>
      <trkpt lat="44.88082" lon="5.32657">
        <ele>1537.77</ele>
        <time>2024-09-17T13:38:34Z</time>
      </trkpt>
      <trkpt lat="44.88077" lon="5.32684">
        <ele>1538.73</ele>
        <time>2024-09-17T13:38:53Z</time>
      </trkpt>
      <trkpt lat="44.88077" lon="5.32707">
        <ele>1538.25</ele>
        <time>2024-09-17T13:39:09Z</time>
      </trkpt>
      <trkpt lat="44.88078" lon="5.32728">
        <ele>1538.25</ele>
        <time>2024-09-17T13:39:25Z</time>
      </trkpt>
      <trkpt lat="44.88081" lon="5.32741">
        <ele>1538.25</ele>
        <time>2024-09-17T13:39:37Z</time>
      </trkpt>
      <trkpt lat="44.88085" lon="5.3276">
        <ele>1539.21</ele>
        <time>2024-09-17T13:39:54Z</time>
      </trkpt>
      <trkpt lat="44.88094" lon="5.32775">
        <ele>1538.25</ele>
        <time>2024-09-17T13:40:08Z</time>
      </trkpt>
      <trkpt lat="44.88105" lon="5.32787">
        <ele>1535.84</ele>
        <time>2024-09-17T13:40:22Z</time>
      </trkpt>
      <trkpt lat="44.88118" lon="5.32804">
        <ele>1533.92</ele>
        <time>2024-09-17T13:40:37Z</time>
      </trkpt>
      <trkpt lat="44.88129" lon="5.32823">
        <ele>1533.92</ele>
        <time>2024-09-17T13:40:54Z</time>
      </trkpt>
      <trkpt lat="44.88132" lon="5.32824">
        <ele>1533.44</ele>
        <time>2024-09-17T13:40:56Z</time>
      </trkpt>
      <trkpt lat="44.88146" lon="5.32843">
        <ele>1529.59</ele>
        <time>2024-09-17T13:41:13Z</time>
      </trkpt>
      <trkpt lat="44.88157" lon="5.32848">
        <ele>1529.59</ele>
        <time>2024-09-17T13:41:29Z</time>
      </trkpt>
      <trkpt lat="44.88158" lon="5.32848">
        <ele>1530.08</ele>
        <time>2024-09-17T13:41:44Z</time>
      </trkpt>
      <trkpt lat="44.88159" lon="5.32847">
        <ele>1531.52</ele>
        <time>2024-09-17T13:42:02Z</time>
      </trkpt>
      <trkpt lat="44.88166" lon="5.32851">
        <ele>1530.08</ele>
        <time>2024-09-17T13:42:19Z</time>
      </trkpt>
      <trkpt lat="44.88178" lon="5.32848">
        <ele>1527.67</ele>
        <time>2024-09-17T13:42:34Z</time>
      </trkpt>
      <trkpt lat="44.88181" lon="5.32852">
        <ele>1526.71</ele>
        <time>2024-09-17T13:42:52Z</time>
      </trkpt>
      <trkpt lat="44.88182" lon="5.32852">
        <ele>1525.75</ele>
        <time>2024-09-17T13:43:08Z</time>
      </trkpt>
      <trkpt lat="44.88185" lon="5.32851">
        <ele>1526.23</ele>
        <time>2024-09-17T13:43:27Z</time>
      </trkpt>
      <trkpt lat="44.88189" lon="5.32853">
        <ele>1526.71</ele>
        <time>2024-09-17T13:43:43Z</time>
      </trkpt>
      <trkpt lat="44.88213" lon="5.32862">
        <ele>1526.71</ele>
        <time>2024-09-17T13:44:00Z</time>
      </trkpt>
      <trkpt lat="44.88231" lon="5.32881">
        <ele>1524.79</ele>
        <time>2024-09-17T13:44:15Z</time>
      </trkpt>
      <trkpt lat="44.8825" lon="5.32899">
        <ele>1522.87</ele>
        <time>2024-09-17T13:44:30Z</time>
      </trkpt>
      <trkpt lat="44.88251" lon="5.329">
        <ele>1522.39</ele>
        <time>2024-09-17T13:44:31Z</time>
      </trkpt>
      <trkpt lat="44.88254" lon="5.32905">
        <ele>1521.9</ele>
        <time>2024-09-17T13:44:34Z</time>
      </trkpt>
      <trkpt lat="44.88254" lon="5.32908">
        <ele>1521.42</ele>
        <time>2024-09-17T13:44:36Z</time>
      </trkpt>
      <trkpt lat="44.88242" lon="5.32935">
        <ele>1517.58</ele>
        <time>2024-09-17T13:44:47Z</time>
      </trkpt>
      <trkpt lat="44.88215" lon="5.33069">
        <ele>1530.08</ele>
        <time>2024-09-17T13:45:22Z</time>
      </trkpt>
      <trkpt lat="44.88204" lon="5.33198">
        <ele>1548.82</ele>
        <time>2024-09-17T13:46:23Z</time>
      </trkpt>
      <trkpt lat="44.88214" lon="5.33223">
        <ele>1544.98</ele>
        <time>2024-09-17T13:46:47Z</time>
      </trkpt>
      <trkpt lat="44.88215" lon="5.33223">
        <ele>1544.5</ele>
        <time>2024-09-17T13:46:48Z</time>
      </trkpt>
      <trkpt lat="44.88221" lon="5.33218">
        <ele>1541.61</ele>
        <time>2024-09-17T13:46:55Z</time>
      </trkpt>
      <trkpt lat="44.88219" lon="5.33351">
        <ele>1529.59</ele>
        <time>2024-09-17T13:47:56Z</time>
      </trkpt>
      <trkpt lat="44.88229" lon="5.33382">
        <ele>1527.19</ele>
        <time>2024-09-17T13:48:10Z</time>
      </trkpt>
      <trkpt lat="44.88246" lon="5.33403">
        <ele>1524.79</ele>
        <time>2024-09-17T13:48:24Z</time>
      </trkpt>
      <trkpt lat="44.88261" lon="5.33426">
        <ele>1521.9</ele>
        <time>2024-09-17T13:48:38Z</time>
      </trkpt>
      <trkpt lat="44.88262" lon="5.33433">
        <ele>1520.94</ele>
        <time>2024-09-17T13:48:42Z</time>
      </trkpt>
      <trkpt lat="44.88249" lon="5.33455">
        <ele>1520.46</ele>
        <time>2024-09-17T13:48:57Z</time>
      </trkpt>
      <trkpt lat="44.88256" lon="5.33468">
        <ele>1519.98</ele>
        <time>2024-09-17T13:49:14Z</time>
      </trkpt>
      <trkpt lat="44.88257" lon="5.33472">
        <ele>1519.98</ele>
        <time>2024-09-17T13:49:22Z</time>
      </trkpt>
      <trkpt lat="44.88277" lon="5.33488">
        <ele>1521.9</ele>
        <time>2024-09-17T13:49:36Z</time>
      </trkpt>
      <trkpt lat="44.88299" lon="5.33496">
        <ele>1522.87</ele>
        <time>2024-09-17T13:49:50Z</time>
      </trkpt>
      <trkpt lat="44.88307" lon="5.33523">
        <ele>1524.79</ele>
        <time>2024-09-17T13:50:05Z</time>
      </trkpt>
      <trkpt lat="44.883" lon="5.33552">
        <ele>1526.71</ele>
        <time>2024-09-17T13:50:19Z</time>
      </trkpt>
      <trkpt lat="44.88299" lon="5.3359">
        <ele>1528.15</ele>
        <time>2024-09-17T13:50:35Z</time>
      </trkpt>
      <trkpt lat="44.883" lon="5.33624">
        <ele>1530.56</ele>
        <time>2024-09-17T13:50:50Z</time>
      </trkpt>
      <trkpt lat="44.88305" lon="5.33657">
        <ele>1532.48</ele>
        <time>2024-09-17T13:51:04Z</time>
      </trkpt>
      <trkpt lat="44.88307" lon="5.33664">
        <ele>1533.44</ele>
        <time>2024-09-17T13:51:08Z</time>
      </trkpt>
      <trkpt lat="44.88306" lon="5.33666">
        <ele>1533.44</ele>
        <time>2024-09-17T13:51:09Z</time>
      </trkpt>
      <trkpt lat="44.88301" lon="5.33673">
        <ele>1533.92</ele>
        <time>2024-09-17T13:51:13Z</time>
      </trkpt>
      <trkpt lat="44.88299" lon="5.33676">
        <ele>1533.92</ele>
        <time>2024-09-17T13:51:14Z</time>
      </trkpt>
      <trkpt lat="44.88298" lon="5.33677">
        <ele>1534.4</ele>
        <time>2024-09-17T13:51:15Z</time>
      </trkpt>
      <trkpt lat="44.88295" lon="5.33685">
        <ele>1534.88</ele>
        <time>2024-09-17T13:51:19Z</time>
      </trkpt>
      <trkpt lat="44.88295" lon="5.33687">
        <ele>1535.36</ele>
        <time>2024-09-17T13:51:20Z</time>
      </trkpt>
      <trkpt lat="44.88295" lon="5.33692">
        <ele>1537.29</ele>
        <time>2024-09-17T13:51:33Z</time>
      </trkpt>
      <trkpt lat="44.88296" lon="5.33693">
        <ele>1537.29</ele>
        <time>2024-09-17T13:51:43Z</time>
      </trkpt>
      <trkpt lat="44.88297" lon="5.33692">
        <ele>1536.8</ele>
        <time>2024-09-17T13:51:44Z</time>
      </trkpt>
      <trkpt lat="44.88298" lon="5.33692">
        <ele>1536.8</ele>
        <time>2024-09-17T13:51:45Z</time>
      </trkpt>
      <trkpt lat="44.88298" lon="5.33691">
        <ele>1536.8</ele>
        <time>2024-09-17T13:51:46Z</time>
      </trkpt>
      <trkpt lat="44.88299" lon="5.33691">
        <ele>1536.8</ele>
        <time>2024-09-17T13:51:47Z</time>
      </trkpt>
      <trkpt lat="44.88301" lon="5.33691">
        <ele>1536.8</ele>
        <time>2024-09-17T13:51:48Z</time>
      </trkpt>
      <trkpt lat="44.88303" lon="5.33692">
        <ele>1536.8</ele>
        <time>2024-09-17T13:51:49Z</time>
      </trkpt>
      <trkpt lat="44.88305" lon="5.33692">
        <ele>1536.8</ele>
        <time>2024-09-17T13:51:50Z</time>
      </trkpt>
      <trkpt lat="44.88307" lon="5.33692">
        <ele>1537.29</ele>
        <time>2024-09-17T13:51:51Z</time>
      </trkpt>
      <trkpt lat="44.88308" lon="5.33693">
        <ele>1537.29</ele>
        <time>2024-09-17T13:51:52Z</time>
      </trkpt>
      <trkpt lat="44.88325" lon="5.33703">
        <ele>1539.21</ele>
        <time>2024-09-17T13:52:07Z</time>
      </trkpt>
      <trkpt lat="44.88332" lon="5.33709">
        <ele>1540.65</ele>
        <time>2024-09-17T13:52:11Z</time>
      </trkpt>
      <trkpt lat="44.88335" lon="5.33721">
        <ele>1543.05</ele>
        <time>2024-09-17T13:52:17Z</time>
      </trkpt>
      <trkpt lat="44.88335" lon="5.33722">
        <ele>1543.05</ele>
        <time>2024-09-17T13:52:18Z</time>
      </trkpt>
      <trkpt lat="44.88343" lon="5.33744">
        <ele>1547.38</ele>
        <time>2024-09-17T13:52:30Z</time>
      </trkpt>
      <trkpt lat="44.8835" lon="5.33771">
        <ele>1551.71</ele>
        <time>2024-09-17T13:52:43Z</time>
      </trkpt>
      <trkpt lat="44.88351" lon="5.33774">
        <ele>1551.71</ele>
        <time>2024-09-17T13:52:45Z</time>
      </trkpt>
      <trkpt lat="44.88356" lon="5.338">
        <ele>1555.55</ele>
        <time>2024-09-17T13:52:57Z</time>
      </trkpt>
      <trkpt lat="44.88354" lon="5.33831">
        <ele>1557.95</ele>
        <time>2024-09-17T13:53:10Z</time>
      </trkpt>
      <trkpt lat="44.88345" lon="5.33856">
        <ele>1557.95</ele>
        <time>2024-09-17T13:53:22Z</time>
      </trkpt>
      <trkpt lat="44.88349" lon="5.33893">
        <ele>1558.43</ele>
        <time>2024-09-17T13:53:36Z</time>
      </trkpt>
      <trkpt lat="44.88356" lon="5.33927">
        <ele>1557.95</ele>
        <time>2024-09-17T13:53:50Z</time>
      </trkpt>
      <trkpt lat="44.8836" lon="5.3396">
        <ele>1557.95</ele>
        <time>2024-09-17T13:54:04Z</time>
      </trkpt>
      <trkpt lat="44.88367" lon="5.33988">
        <ele>1558.92</ele>
        <time>2024-09-17T13:54:16Z</time>
      </trkpt>
      <trkpt lat="44.88383" lon="5.34019">
        <ele>1556.03</ele>
        <time>2024-09-17T13:54:31Z</time>
      </trkpt>
      <trkpt lat="44.88397" lon="5.34042">
        <ele>1553.63</ele>
        <time>2024-09-17T13:54:44Z</time>
      </trkpt>
      <trkpt lat="44.88419" lon="5.34073">
        <ele>1550.74</ele>
        <time>2024-09-17T13:55:02Z</time>
      </trkpt>
      <trkpt lat="44.88438" lon="5.34086">
        <ele>1548.82</ele>
        <time>2024-09-17T13:55:15Z</time>
      </trkpt>
      <trkpt lat="44.88461" lon="5.34095">
        <ele>1547.86</ele>
        <time>2024-09-17T13:55:28Z</time>
      </trkpt>
      <trkpt lat="44.88462" lon="5.34097">
        <ele>1547.86</ele>
        <time>2024-09-17T13:55:29Z</time>
      </trkpt>
      <trkpt lat="44.88479" lon="5.34115">
        <ele>1545.46</ele>
        <time>2024-09-17T13:55:42Z</time>
      </trkpt>
      <trkpt lat="44.885" lon="5.34138">
        <ele>1545.46</ele>
        <time>2024-09-17T13:55:57Z</time>
      </trkpt>
      <trkpt lat="44.88501" lon="5.34139">
        <ele>1545.46</ele>
        <time>2024-09-17T13:55:58Z</time>
      </trkpt>
      <trkpt lat="44.88518" lon="5.34165">
        <ele>1544.5</ele>
        <time>2024-09-17T13:56:13Z</time>
      </trkpt>
      <trkpt lat="44.88535" lon="5.3419">
        <ele>1544.5</ele>
        <time>2024-09-17T13:56:27Z</time>
      </trkpt>
      <trkpt lat="44.88537" lon="5.34193">
        <ele>1544.01</ele>
        <time>2024-09-17T13:56:29Z</time>
      </trkpt>
      <trkpt lat="44.88547" lon="5.34219">
        <ele>1544.01</ele>
        <time>2024-09-17T13:56:42Z</time>
      </trkpt>
      <trkpt lat="44.88552" lon="5.34245">
        <ele>1544.5</ele>
        <time>2024-09-17T13:56:55Z</time>
      </trkpt>
      <trkpt lat="44.88552" lon="5.34251">
        <ele>1544.98</ele>
        <time>2024-09-17T13:56:59Z</time>
      </trkpt>
      <trkpt lat="44.88552" lon="5.34252">
        <ele>1544.5</ele>
        <time>2024-09-17T13:57:00Z</time>
      </trkpt>
      <trkpt lat="44.88551" lon="5.34254">
        <ele>1544.5</ele>
        <time>2024-09-17T13:57:01Z</time>
      </trkpt>
      <trkpt lat="44.8855" lon="5.34255">
        <ele>1544.5</ele>
        <time>2024-09-17T13:57:02Z</time>
      </trkpt>
      <trkpt lat="44.88549" lon="5.34256">
        <ele>1544.5</ele>
        <time>2024-09-17T13:57:03Z</time>
      </trkpt>
      <trkpt lat="44.88549" lon="5.34258">
        <ele>1544.01</ele>
        <time>2024-09-17T13:57:04Z</time>
      </trkpt>
      <trkpt lat="44.88549" lon="5.3426">
        <ele>1544.01</ele>
        <time>2024-09-17T13:57:05Z</time>
      </trkpt>
      <trkpt lat="44.88549" lon="5.34262">
        <ele>1544.01</ele>
        <time>2024-09-17T13:57:06Z</time>
      </trkpt>
      <trkpt lat="44.8855" lon="5.34264">
        <ele>1544.01</ele>
        <time>2024-09-17T13:57:07Z</time>
      </trkpt>
      <trkpt lat="44.88552" lon="5.34266">
        <ele>1544.01</ele>
        <time>2024-09-17T13:57:08Z</time>
      </trkpt>
      <trkpt lat="44.88567" lon="5.34292">
        <ele>1541.13</ele>
        <time>2024-09-17T13:57:23Z</time>
      </trkpt>
      <trkpt lat="44.88581" lon="5.34318">
        <ele>1537.29</ele>
        <time>2024-09-17T13:57:38Z</time>
      </trkpt>
      <trkpt lat="44.88601" lon="5.34336">
        <ele>1534.4</ele>
        <time>2024-09-17T13:57:50Z</time>
      </trkpt>
      <trkpt lat="44.88608" lon="5.34346">
        <ele>1532.96</ele>
        <time>2024-09-17T13:57:55Z</time>
      </trkpt>
      <trkpt lat="44.88637" lon="5.34368">
        <ele>1529.11</ele>
        <time>2024-09-17T13:58:09Z</time>
      </trkpt>
      <trkpt lat="44.88674" lon="5.34396">
        <ele>1522.39</ele>
        <time>2024-09-17T13:58:30Z</time>
      </trkpt>
      <trkpt lat="44.88721" lon="5.34415">
        <ele>1512.77</ele>
        <time>2024-09-17T13:58:58Z</time>
      </trkpt>
      <trkpt lat="44.88766" lon="5.34447">
        <ele>1509.41</ele>
        <time>2024-09-17T13:59:26Z</time>
      </trkpt>
      <trkpt lat="44.8877" lon="5.34448">
        <ele>1509.41</ele>
        <time>2024-09-17T13:59:29Z</time>
      </trkpt>
      <trkpt lat="44.88804" lon="5.34474">
        <ele>1508.93</ele>
        <time>2024-09-17T13:59:50Z</time>
      </trkpt>
      <trkpt lat="44.88831" lon="5.34495">
        <ele>1507.48</ele>
        <time>2024-09-17T14:00:08Z</time>
      </trkpt>
      <trkpt lat="44.88852" lon="5.34489">
        <ele>1507</ele>
        <time>2024-09-17T14:00:20Z</time>
      </trkpt>
      <trkpt lat="44.88877" lon="5.34495">
        <ele>1510.85</ele>
        <time>2024-09-17T14:00:34Z</time>
      </trkpt>
      <trkpt lat="44.889" lon="5.34499">
        <ele>1513.25</ele>
        <time>2024-09-17T14:00:48Z</time>
      </trkpt>
      <trkpt lat="44.88923" lon="5.34501">
        <ele>1518.06</ele>
        <time>2024-09-17T14:01:01Z</time>
      </trkpt>
      <trkpt lat="44.88948" lon="5.3449">
        <ele>1518.54</ele>
        <time>2024-09-17T14:01:14Z</time>
      </trkpt>
      <trkpt lat="44.88963" lon="5.34466">
        <ele>1521.9</ele>
        <time>2024-09-17T14:01:27Z</time>
      </trkpt>
      <trkpt lat="44.88964" lon="5.34458">
        <ele>1523.83</ele>
        <time>2024-09-17T14:01:40Z</time>
      </trkpt>
      <trkpt lat="44.88964" lon="5.34458">
        <ele>1523.83</ele>
        <time>2024-09-17T14:02:02Z</time>
      </trkpt>
      <trkpt lat="44.88966" lon="5.34457">
        <ele>1524.79</ele>
        <time>2024-09-17T14:02:26Z</time>
      </trkpt>
      <trkpt lat="44.88966" lon="5.34456">
        <ele>1526.23</ele>
        <time>2024-09-17T14:02:52Z</time>
      </trkpt>
      <trkpt lat="44.88971" lon="5.34459">
        <ele>1525.75</ele>
        <time>2024-09-17T14:03:08Z</time>
      </trkpt>
      <trkpt lat="44.88972" lon="5.3446">
        <ele>1525.75</ele>
        <time>2024-09-17T14:03:09Z</time>
      </trkpt>
      <trkpt lat="44.88973" lon="5.34461">
        <ele>1525.75</ele>
        <time>2024-09-17T14:03:10Z</time>
      </trkpt>
      <trkpt lat="44.88973" lon="5.34463">
        <ele>1525.75</ele>
        <time>2024-09-17T14:03:11Z</time>
      </trkpt>
      <trkpt lat="44.88974" lon="5.34465">
        <ele>1525.75</ele>
        <time>2024-09-17T14:03:12Z</time>
      </trkpt>
      <trkpt lat="44.88976" lon="5.34475">
        <ele>1525.27</ele>
        <time>2024-09-17T14:03:18Z</time>
      </trkpt>
      <trkpt lat="44.8898" lon="5.34504">
        <ele>1524.79</ele>
        <time>2024-09-17T14:03:34Z</time>
      </trkpt>
      <trkpt lat="44.8898" lon="5.34512">
        <ele>1524.31</ele>
        <time>2024-09-17T14:03:40Z</time>
      </trkpt>
      <trkpt lat="44.88996" lon="5.3452">
        <ele>1523.83</ele>
        <time>2024-09-17T14:03:55Z</time>
      </trkpt>
      <trkpt lat="44.89005" lon="5.34511">
        <ele>1520.94</ele>
        <time>2024-09-17T14:04:04Z</time>
      </trkpt>
      <trkpt lat="44.89009" lon="5.34509">
        <ele>1519.98</ele>
        <time>2024-09-17T14:04:08Z</time>
      </trkpt>
      <trkpt lat="44.89023" lon="5.34489">
        <ele>1515.66</ele>
        <time>2024-09-17T14:04:23Z</time>
      </trkpt>
      <trkpt lat="44.89033" lon="5.3449">
        <ele>1513.73</ele>
        <time>2024-09-17T14:04:31Z</time>
      </trkpt>
      <trkpt lat="44.89057" lon="5.34505">
        <ele>1508.93</ele>
        <time>2024-09-17T14:04:47Z</time>
      </trkpt>
      <trkpt lat="44.89084" lon="5.34524">
        <ele>1504.12</ele>
        <time>2024-09-17T14:05:03Z</time>
      </trkpt>
      <trkpt lat="44.89104" lon="5.34536">
        <ele>1503.64</ele>
        <time>2024-09-17T14:05:17Z</time>
      </trkpt>
      <trkpt lat="44.89122" lon="5.34548">
        <ele>1500.27</ele>
        <time>2024-09-17T14:05:30Z</time>
      </trkpt>
      <trkpt lat="44.89145" lon="5.34559">
        <ele>1491.14</ele>
        <time>2024-09-17T14:05:46Z</time>
      </trkpt>
      <trkpt lat="44.89167" lon="5.34576">
        <ele>1486.34</ele>
        <time>2024-09-17T14:06:04Z</time>
      </trkpt>
      <trkpt lat="44.89188" lon="5.34591">
        <ele>1493.06</ele>
        <time>2024-09-17T14:06:21Z</time>
      </trkpt>
      <trkpt lat="44.89203" lon="5.34598">
        <ele>1495.47</ele>
        <time>2024-09-17T14:06:37Z</time>
      </trkpt>
      <trkpt lat="44.89205" lon="5.346">
        <ele>1497.87</ele>
        <time>2024-09-17T14:07:02Z</time>
      </trkpt>
      <trkpt lat="44.892" lon="5.34599">
        <ele>1500.76</ele>
        <time>2024-09-17T14:07:22Z</time>
      </trkpt>
      <trkpt lat="44.89197" lon="5.34597">
        <ele>1506.04</ele>
        <time>2024-09-17T14:07:43Z</time>
      </trkpt>
      <trkpt lat="44.89198" lon="5.34599">
        <ele>1505.08</ele>
        <time>2024-09-17T14:08:09Z</time>
      </trkpt>
      <trkpt lat="44.892" lon="5.34605">
        <ele>1503.64</ele>
        <time>2024-09-17T14:08:29Z</time>
      </trkpt>
      <trkpt lat="44.89199" lon="5.34604">
        <ele>1505.56</ele>
        <time>2024-09-17T14:08:50Z</time>
      </trkpt>
      <trkpt lat="44.89205" lon="5.34607">
        <ele>1507.48</ele>
        <time>2024-09-17T14:09:17Z</time>
      </trkpt>
      <trkpt lat="44.89208" lon="5.34606">
        <ele>1510.37</ele>
        <time>2024-09-17T14:09:38Z</time>
      </trkpt>
      <trkpt lat="44.89204" lon="5.34609">
        <ele>1509.41</ele>
        <time>2024-09-17T14:09:57Z</time>
      </trkpt>
      <trkpt lat="44.89205" lon="5.3461">
        <ele>1505.56</ele>
        <time>2024-09-17T14:10:21Z</time>
      </trkpt>
      <trkpt lat="44.89205" lon="5.34609">
        <ele>1507.48</ele>
        <time>2024-09-17T14:10:48Z</time>
      </trkpt>
      <trkpt lat="44.89201" lon="5.34606">
        <ele>1508.93</ele>
        <time>2024-09-17T14:11:16Z</time>
      </trkpt>
      <trkpt lat="44.89201" lon="5.34608">
        <ele>1508.93</ele>
        <time>2024-09-17T14:11:40Z</time>
      </trkpt>
      <trkpt lat="44.89204" lon="5.34609">
        <ele>1506.04</ele>
        <time>2024-09-17T14:12:07Z</time>
      </trkpt>
      <trkpt lat="44.89199" lon="5.346">
        <ele>1505.08</ele>
        <time>2024-09-17T14:12:22Z</time>
      </trkpt>
      <trkpt lat="44.89206" lon="5.346">
        <ele>1503.16</ele>
        <time>2024-09-17T14:12:36Z</time>
      </trkpt>
      <trkpt lat="44.89214" lon="5.34597">
        <ele>1499.31</ele>
        <time>2024-09-17T14:12:54Z</time>
      </trkpt>
      <trkpt lat="44.89213" lon="5.34593">
        <ele>1499.31</ele>
        <time>2024-09-17T14:13:14Z</time>
      </trkpt>
      <trkpt lat="44.89226" lon="5.34598">
        <ele>1497.39</ele>
        <time>2024-09-17T14:13:31Z</time>
      </trkpt>
      <trkpt lat="44.89248" lon="5.34604">
        <ele>1494.51</ele>
        <time>2024-09-17T14:13:45Z</time>
      </trkpt>
      <trkpt lat="44.89265" lon="5.34616">
        <ele>1489.7</ele>
        <time>2024-09-17T14:13:58Z</time>
      </trkpt>
      <trkpt lat="44.89286" lon="5.34625">
        <ele>1485.37</ele>
        <time>2024-09-17T14:14:12Z</time>
      </trkpt>
      <trkpt lat="44.89309" lon="5.34637">
        <ele>1482.01</ele>
        <time>2024-09-17T14:14:26Z</time>
      </trkpt>
      <trkpt lat="44.89322" lon="5.34645">
        <ele>1476.24</ele>
        <time>2024-09-17T14:14:38Z</time>
      </trkpt>
      <trkpt lat="44.89343" lon="5.34651">
        <ele>1470.47</ele>
        <time>2024-09-17T14:14:50Z</time>
      </trkpt>
      <trkpt lat="44.89352" lon="5.34667">
        <ele>1473.36</ele>
        <time>2024-09-17T14:15:02Z</time>
      </trkpt>
      <trkpt lat="44.89349" lon="5.34676">
        <ele>1473.36</ele>
        <time>2024-09-17T14:15:08Z</time>
      </trkpt>
      <trkpt lat="44.89356" lon="5.34688">
        <ele>1475.28</ele>
        <time>2024-09-17T14:15:26Z</time>
      </trkpt>
      <trkpt lat="44.89355" lon="5.34687">
        <ele>1482.49</ele>
        <time>2024-09-17T14:15:46Z</time>
      </trkpt>
      <trkpt lat="44.89351" lon="5.34683">
        <ele>1485.37</ele>
        <time>2024-09-17T14:16:00Z</time>
      </trkpt>
      <trkpt lat="44.89353" lon="5.3469">
        <ele>1484.89</ele>
        <time>2024-09-17T14:16:14Z</time>
      </trkpt>
      <trkpt lat="44.89353" lon="5.34691">
        <ele>1484.89</ele>
        <time>2024-09-17T14:16:17Z</time>
      </trkpt>
      <trkpt lat="44.8935" lon="5.34675">
        <ele>1482.01</ele>
        <time>2024-09-17T14:16:27Z</time>
      </trkpt>
      <trkpt lat="44.89359" lon="5.34662">
        <ele>1478.16</ele>
        <time>2024-09-17T14:16:39Z</time>
      </trkpt>
      <trkpt lat="44.89367" lon="5.34663">
        <ele>1475.76</ele>
        <time>2024-09-17T14:16:44Z</time>
      </trkpt>
      <trkpt lat="44.89394" lon="5.34672">
        <ele>1468.55</ele>
        <time>2024-09-17T14:17:00Z</time>
      </trkpt>
      <trkpt lat="44.89407" lon="5.34684">
        <ele>1460.86</ele>
        <time>2024-09-17T14:17:17Z</time>
      </trkpt>
      <trkpt lat="44.89415" lon="5.34683">
        <ele>1461.34</ele>
        <time>2024-09-17T14:17:35Z</time>
      </trkpt>
      <trkpt lat="44.8942" lon="5.34682">
        <ele>1461.34</ele>
        <time>2024-09-17T14:17:57Z</time>
      </trkpt>
      <trkpt lat="44.89433" lon="5.34686">
        <ele>1461.34</ele>
        <time>2024-09-17T14:18:11Z</time>
      </trkpt>
      <trkpt lat="44.89441" lon="5.34692">
        <ele>1461.82</ele>
        <time>2024-09-17T14:18:28Z</time>
      </trkpt>
      <trkpt lat="44.89444" lon="5.34695">
        <ele>1461.82</ele>
        <time>2024-09-17T14:18:44Z</time>
      </trkpt>
      <trkpt lat="44.89448" lon="5.34702">
        <ele>1462.78</ele>
        <time>2024-09-17T14:19:01Z</time>
      </trkpt>
      <trkpt lat="44.89456" lon="5.34701">
        <ele>1464.23</ele>
        <time>2024-09-17T14:19:16Z</time>
      </trkpt>
      <trkpt lat="44.89455" lon="5.34703">
        <ele>1461.82</ele>
        <time>2024-09-17T14:19:36Z</time>
      </trkpt>
      <trkpt lat="44.89454" lon="5.34707">
        <ele>1461.34</ele>
        <time>2024-09-17T14:19:47Z</time>
      </trkpt>
      <trkpt lat="44.89458" lon="5.34706">
        <ele>1461.82</ele>
        <time>2024-09-17T14:19:58Z</time>
      </trkpt>
      <trkpt lat="44.89458" lon="5.34705">
        <ele>1463.26</ele>
        <time>2024-09-17T14:20:17Z</time>
      </trkpt>
      <trkpt lat="44.89462" lon="5.34709">
        <ele>1462.78</ele>
        <time>2024-09-17T14:20:32Z</time>
      </trkpt>
      <trkpt lat="44.89458" lon="5.34707">
        <ele>1461.82</ele>
        <time>2024-09-17T14:20:50Z</time>
      </trkpt>
      <trkpt lat="44.8946" lon="5.3471">
        <ele>1462.78</ele>
        <time>2024-09-17T14:21:12Z</time>
      </trkpt>
      <trkpt lat="44.89471" lon="5.34727">
        <ele>1461.82</ele>
        <time>2024-09-17T14:21:25Z</time>
      </trkpt>
      <trkpt lat="44.89486" lon="5.3474">
        <ele>1462.78</ele>
        <time>2024-09-17T14:21:39Z</time>
      </trkpt>
      <trkpt lat="44.89498" lon="5.34749">
        <ele>1461.82</ele>
        <time>2024-09-17T14:21:48Z</time>
      </trkpt>
      <trkpt lat="44.89505" lon="5.34754">
        <ele>1460.86</ele>
        <time>2024-09-17T14:22:02Z</time>
      </trkpt>
      <trkpt lat="44.89505" lon="5.34753">
        <ele>1460.86</ele>
        <time>2024-09-17T14:22:03Z</time>
      </trkpt>
      <trkpt lat="44.89499" lon="5.34747">
        <ele>1460.38</ele>
        <time>2024-09-17T14:22:09Z</time>
      </trkpt>
      <trkpt lat="44.89488" lon="5.34742">
        <ele>1458.46</ele>
        <time>2024-09-17T14:22:17Z</time>
      </trkpt>
      <trkpt lat="44.89474" lon="5.34733">
        <ele>1461.34</ele>
        <time>2024-09-17T14:22:28Z</time>
      </trkpt>
      <trkpt lat="44.89461" lon="5.34716">
        <ele>1462.3</ele>
        <time>2024-09-17T14:22:42Z</time>
      </trkpt>
      <trkpt lat="44.89437" lon="5.347">
        <ele>1466.63</ele>
        <time>2024-09-17T14:22:58Z</time>
      </trkpt>
      <trkpt lat="44.89418" lon="5.34697">
        <ele>1472.4</ele>
        <time>2024-09-17T14:23:12Z</time>
      </trkpt>
      <trkpt lat="44.89398" lon="5.34687">
        <ele>1471.92</ele>
        <time>2024-09-17T14:23:23Z</time>
      </trkpt>
      <trkpt lat="44.89376" lon="5.34666">
        <ele>1475.76</ele>
        <time>2024-09-17T14:23:36Z</time>
      </trkpt>
      <trkpt lat="44.89355" lon="5.34664">
        <ele>1478.16</ele>
        <time>2024-09-17T14:23:50Z</time>
      </trkpt>
      <trkpt lat="44.89354" lon="5.34666">
        <ele>1478.16</ele>
        <time>2024-09-17T14:23:51Z</time>
      </trkpt>
      <trkpt lat="44.89352" lon="5.34692">
        <ele>1481.05</ele>
        <time>2024-09-17T14:24:05Z</time>
      </trkpt>
      <trkpt lat="44.89353" lon="5.34695">
        <ele>1481.05</ele>
        <time>2024-09-17T14:24:06Z</time>
      </trkpt>
      <trkpt lat="44.89354" lon="5.34697">
        <ele>1481.05</ele>
        <time>2024-09-17T14:24:07Z</time>
      </trkpt>
      <trkpt lat="44.89366" lon="5.34722">
        <ele>1482.49</ele>
        <time>2024-09-17T14:24:19Z</time>
      </trkpt>
      <trkpt lat="44.89367" lon="5.34724">
        <ele>1482.49</ele>
        <time>2024-09-17T14:24:20Z</time>
      </trkpt>
      <trkpt lat="44.89379" lon="5.34742">
        <ele>1484.41</ele>
        <time>2024-09-17T14:24:34Z</time>
      </trkpt>
      <trkpt lat="44.89391" lon="5.34765">
        <ele>1484.41</ele>
        <time>2024-09-17T14:24:50Z</time>
      </trkpt>
      <trkpt lat="44.89416" lon="5.3479">
        <ele>1485.37</ele>
        <time>2024-09-17T14:25:04Z</time>
      </trkpt>
      <trkpt lat="44.89432" lon="5.34816">
        <ele>1478.16</ele>
        <time>2024-09-17T14:25:20Z</time>
      </trkpt>
      <trkpt lat="44.8944" lon="5.34843">
        <ele>1469.99</ele>
        <time>2024-09-17T14:25:32Z</time>
      </trkpt>
      <trkpt lat="44.89441" lon="5.34853">
        <ele>1466.15</ele>
        <time>2024-09-17T14:25:37Z</time>
      </trkpt>
      <trkpt lat="44.89458" lon="5.34881">
        <ele>1469.99</ele>
        <time>2024-09-17T14:25:49Z</time>
      </trkpt>
      <trkpt lat="44.8948" lon="5.34909">
        <ele>1477.2</ele>
        <time>2024-09-17T14:26:05Z</time>
      </trkpt>
      <trkpt lat="44.89497" lon="5.34936">
        <ele>1483.45</ele>
        <time>2024-09-17T14:26:19Z</time>
      </trkpt>
      <trkpt lat="44.89512" lon="5.34958">
        <ele>1485.85</ele>
        <time>2024-09-17T14:26:32Z</time>
      </trkpt>
      <trkpt lat="44.89531" lon="5.34978">
        <ele>1487.78</ele>
        <time>2024-09-17T14:26:47Z</time>
      </trkpt>
      <trkpt lat="44.8955" lon="5.35">
        <ele>1495.47</ele>
        <time>2024-09-17T14:27:01Z</time>
      </trkpt>
      <trkpt lat="44.89564" lon="5.35022">
        <ele>1497.39</ele>
        <time>2024-09-17T14:27:14Z</time>
      </trkpt>
      <trkpt lat="44.89579" lon="5.35047">
        <ele>1500.27</ele>
        <time>2024-09-17T14:27:29Z</time>
      </trkpt>
      <trkpt lat="44.89594" lon="5.35066">
        <ele>1501.72</ele>
        <time>2024-09-17T14:27:41Z</time>
      </trkpt>
      <trkpt lat="44.89606" lon="5.35081">
        <ele>1500.76</ele>
        <time>2024-09-17T14:27:51Z</time>
      </trkpt>
      <trkpt lat="44.89608" lon="5.35084">
        <ele>1500.76</ele>
        <time>2024-09-17T14:27:52Z</time>
      </trkpt>
      <trkpt lat="44.89609" lon="5.35086">
        <ele>1500.27</ele>
        <time>2024-09-17T14:27:53Z</time>
      </trkpt>
      <trkpt lat="44.89621" lon="5.35112">
        <ele>1499.79</ele>
        <time>2024-09-17T14:28:07Z</time>
      </trkpt>
      <trkpt lat="44.89634" lon="5.35138">
        <ele>1498.83</ele>
        <time>2024-09-17T14:28:21Z</time>
      </trkpt>
      <trkpt lat="44.89642" lon="5.3515">
        <ele>1501.72</ele>
        <time>2024-09-17T14:28:29Z</time>
      </trkpt>
      <trkpt lat="44.89643" lon="5.35151">
        <ele>1502.2</ele>
        <time>2024-09-17T14:28:30Z</time>
      </trkpt>
      <trkpt lat="44.89653" lon="5.3517">
        <ele>1503.16</ele>
        <time>2024-09-17T14:28:46Z</time>
      </trkpt>
      <trkpt lat="44.8965" lon="5.35171">
        <ele>1503.16</ele>
        <time>2024-09-17T14:28:48Z</time>
      </trkpt>
      <trkpt lat="44.89648" lon="5.35171">
        <ele>1502.68</ele>
        <time>2024-09-17T14:28:49Z</time>
      </trkpt>
      <trkpt lat="44.89646" lon="5.3517">
        <ele>1502.68</ele>
        <time>2024-09-17T14:28:50Z</time>
      </trkpt>
      <trkpt lat="44.89645" lon="5.3517">
        <ele>1502.68</ele>
        <time>2024-09-17T14:28:51Z</time>
      </trkpt>
      <trkpt lat="44.89644" lon="5.3517">
        <ele>1502.2</ele>
        <time>2024-09-17T14:28:52Z</time>
      </trkpt>
      <trkpt lat="44.89624" lon="5.3517">
        <ele>1501.24</ele>
        <time>2024-09-17T14:29:07Z</time>
      </trkpt>
      <trkpt lat="44.89603" lon="5.35159">
        <ele>1500.76</ele>
        <time>2024-09-17T14:29:26Z</time>
      </trkpt>
      <trkpt lat="44.89577" lon="5.3514">
        <ele>1505.08</ele>
        <time>2024-09-17T14:29:42Z</time>
      </trkpt>
      <trkpt lat="44.89549" lon="5.35116">
        <ele>1513.73</ele>
        <time>2024-09-17T14:29:59Z</time>
      </trkpt>
      <trkpt lat="44.89528" lon="5.35101">
        <ele>1517.1</ele>
        <time>2024-09-17T14:30:12Z</time>
      </trkpt>
      <trkpt lat="44.89511" lon="5.35091">
        <ele>1520.46</ele>
        <time>2024-09-17T14:30:26Z</time>
      </trkpt>
      <trkpt lat="44.89483" lon="5.35076">
        <ele>1524.79</ele>
        <time>2024-09-17T14:30:43Z</time>
      </trkpt>
      <trkpt lat="44.89465" lon="5.35071">
        <ele>1525.27</ele>
        <time>2024-09-17T14:30:57Z</time>
      </trkpt>
      <trkpt lat="44.89438" lon="5.35073">
        <ele>1526.71</ele>
        <time>2024-09-17T14:31:14Z</time>
      </trkpt>
      <trkpt lat="44.89414" lon="5.35078">
        <ele>1526.71</ele>
        <time>2024-09-17T14:31:28Z</time>
      </trkpt>
      <trkpt lat="44.89395" lon="5.35079">
        <ele>1526.23</ele>
        <time>2024-09-17T14:31:42Z</time>
      </trkpt>
      <trkpt lat="44.89367" lon="5.35082">
        <ele>1528.15</ele>
        <time>2024-09-17T14:31:59Z</time>
      </trkpt>
      <trkpt lat="44.89345" lon="5.3508">
        <ele>1528.63</ele>
        <time>2024-09-17T14:32:13Z</time>
      </trkpt>
      <trkpt lat="44.89318" lon="5.35082">
        <ele>1530.56</ele>
        <time>2024-09-17T14:32:29Z</time>
      </trkpt>
      <trkpt lat="44.89308" lon="5.35079">
        <ele>1531.04</ele>
        <time>2024-09-17T14:32:37Z</time>
      </trkpt>
      <trkpt lat="44.89279" lon="5.35069">
        <ele>1532.96</ele>
        <time>2024-09-17T14:32:55Z</time>
      </trkpt>
      <trkpt lat="44.89265" lon="5.35064">
        <ele>1533.44</ele>
        <time>2024-09-17T14:33:05Z</time>
      </trkpt>
      <trkpt lat="44.89244" lon="5.35055">
        <ele>1533.92</ele>
        <time>2024-09-17T14:33:20Z</time>
      </trkpt>
      <trkpt lat="44.89225" lon="5.35039">
        <ele>1533.92</ele>
        <time>2024-09-17T14:33:34Z</time>
      </trkpt>
      <trkpt lat="44.89202" lon="5.35028">
        <ele>1534.88</ele>
        <time>2024-09-17T14:33:49Z</time>
      </trkpt>
      <trkpt lat="44.89181" lon="5.35019">
        <ele>1534.4</ele>
        <time>2024-09-17T14:34:02Z</time>
      </trkpt>
      <trkpt lat="44.89155" lon="5.35027">
        <ele>1540.65</ele>
        <time>2024-09-17T14:34:19Z</time>
      </trkpt>
      <trkpt lat="44.8914" lon="5.35021">
        <ele>1540.65</ele>
        <time>2024-09-17T14:34:31Z</time>
      </trkpt>
      <trkpt lat="44.89118" lon="5.35015">
        <ele>1541.61</ele>
        <time>2024-09-17T14:34:43Z</time>
      </trkpt>
      <trkpt lat="44.89098" lon="5.35007">
        <ele>1541.61</ele>
        <time>2024-09-17T14:34:57Z</time>
      </trkpt>
      <trkpt lat="44.89075" lon="5.35">
        <ele>1540.17</ele>
        <time>2024-09-17T14:35:09Z</time>
      </trkpt>
      <trkpt lat="44.89046" lon="5.34991">
        <ele>1540.65</ele>
        <time>2024-09-17T14:35:26Z</time>
      </trkpt>
      <trkpt lat="44.8903" lon="5.34986">
        <ele>1540.65</ele>
        <time>2024-09-17T14:35:39Z</time>
      </trkpt>
      <trkpt lat="44.89009" lon="5.34975">
        <ele>1540.17</ele>
        <time>2024-09-17T14:35:52Z</time>
      </trkpt>
      <trkpt lat="44.89005" lon="5.34973">
        <ele>1540.17</ele>
        <time>2024-09-17T14:35:55Z</time>
      </trkpt>
      <trkpt lat="44.88981" lon="5.34962">
        <ele>1540.17</ele>
        <time>2024-09-17T14:36:10Z</time>
      </trkpt>
      <trkpt lat="44.88961" lon="5.3495">
        <ele>1540.65</ele>
        <time>2024-09-17T14:36:24Z</time>
      </trkpt>
      <trkpt lat="44.88937" lon="5.34938">
        <ele>1540.65</ele>
        <time>2024-09-17T14:36:38Z</time>
      </trkpt>
      <trkpt lat="44.88922" lon="5.34941">
        <ele>1542.09</ele>
        <time>2024-09-17T14:36:47Z</time>
      </trkpt>
      <trkpt lat="44.8892" lon="5.34942">
        <ele>1543.05</ele>
        <time>2024-09-17T14:36:48Z</time>
      </trkpt>
      <trkpt lat="44.88918" lon="5.34942">
        <ele>1543.05</ele>
        <time>2024-09-17T14:36:49Z</time>
      </trkpt>
      <trkpt lat="44.88916" lon="5.34942">
        <ele>1543.53</ele>
        <time>2024-09-17T14:36:50Z</time>
      </trkpt>
      <trkpt lat="44.88914" lon="5.34941">
        <ele>1544.01</ele>
        <time>2024-09-17T14:36:51Z</time>
      </trkpt>
      <trkpt lat="44.88912" lon="5.34941">
        <ele>1544.01</ele>
        <time>2024-09-17T14:36:52Z</time>
      </trkpt>
      <trkpt lat="44.88888" lon="5.34934">
        <ele>1547.38</ele>
        <time>2024-09-17T14:37:06Z</time>
      </trkpt>
      <trkpt lat="44.88865" lon="5.3493">
        <ele>1549.78</ele>
        <time>2024-09-17T14:37:21Z</time>
      </trkpt>
      <trkpt lat="44.88844" lon="5.34924">
        <ele>1550.26</ele>
        <time>2024-09-17T14:37:32Z</time>
      </trkpt>
      <trkpt lat="44.88823" lon="5.34917">
        <ele>1548.34</ele>
        <time>2024-09-17T14:37:48Z</time>
      </trkpt>
      <trkpt lat="44.88801" lon="5.34908">
        <ele>1549.78</ele>
        <time>2024-09-17T14:38:03Z</time>
      </trkpt>
      <trkpt lat="44.88773" lon="5.34895">
        <ele>1550.26</ele>
        <time>2024-09-17T14:38:24Z</time>
      </trkpt>
      <trkpt lat="44.88752" lon="5.34885">
        <ele>1549.78</ele>
        <time>2024-09-17T14:38:39Z</time>
      </trkpt>
      <trkpt lat="44.88725" lon="5.34888">
        <ele>1548.82</ele>
        <time>2024-09-17T14:38:55Z</time>
      </trkpt>
      <trkpt lat="44.88705" lon="5.3489">
        <ele>1546.9</ele>
        <time>2024-09-17T14:39:08Z</time>
      </trkpt>
      <trkpt lat="44.88681" lon="5.34889">
        <ele>1545.94</ele>
        <time>2024-09-17T14:39:23Z</time>
      </trkpt>
      <trkpt lat="44.8866" lon="5.34889">
        <ele>1547.38</ele>
        <time>2024-09-17T14:39:38Z</time>
      </trkpt>
      <trkpt lat="44.88638" lon="5.34886">
        <ele>1546.42</ele>
        <time>2024-09-17T14:39:53Z</time>
      </trkpt>
      <trkpt lat="44.88617" lon="5.34879">
        <ele>1545.46</ele>
        <time>2024-09-17T14:40:08Z</time>
      </trkpt>
      <trkpt lat="44.88597" lon="5.34875">
        <ele>1544.5</ele>
        <time>2024-09-17T14:40:23Z</time>
      </trkpt>
      <trkpt lat="44.88575" lon="5.34862">
        <ele>1541.61</ele>
        <time>2024-09-17T14:40:39Z</time>
      </trkpt>
      <trkpt lat="44.88554" lon="5.34857">
        <ele>1541.13</ele>
        <time>2024-09-17T14:40:53Z</time>
      </trkpt>
      <trkpt lat="44.8854" lon="5.34857">
        <ele>1541.61</ele>
        <time>2024-09-17T14:41:03Z</time>
      </trkpt>
      <trkpt lat="44.88539" lon="5.34858">
        <ele>1541.61</ele>
        <time>2024-09-17T14:41:04Z</time>
      </trkpt>
      <trkpt lat="44.88537" lon="5.34857">
        <ele>1541.61</ele>
        <time>2024-09-17T14:41:05Z</time>
      </trkpt>
      <trkpt lat="44.88522" lon="5.34852">
        <ele>1542.09</ele>
        <time>2024-09-17T14:41:17Z</time>
      </trkpt>
      <trkpt lat="44.8852" lon="5.34851">
        <ele>1542.09</ele>
        <time>2024-09-17T14:41:18Z</time>
      </trkpt>
      <trkpt lat="44.88498" lon="5.34838">
        <ele>1541.13</ele>
        <time>2024-09-17T14:41:34Z</time>
      </trkpt>
      <trkpt lat="44.88479" lon="5.34829">
        <ele>1540.65</ele>
        <time>2024-09-17T14:41:47Z</time>
      </trkpt>
      <trkpt lat="44.88457" lon="5.34818">
        <ele>1540.17</ele>
        <time>2024-09-17T14:42:02Z</time>
      </trkpt>
      <trkpt lat="44.88437" lon="5.34812">
        <ele>1540.65</ele>
        <time>2024-09-17T14:42:18Z</time>
      </trkpt>
      <trkpt lat="44.88415" lon="5.348">
        <ele>1541.13</ele>
        <time>2024-09-17T14:42:34Z</time>
      </trkpt>
      <trkpt lat="44.88401" lon="5.34792">
        <ele>1542.09</ele>
        <time>2024-09-17T14:42:45Z</time>
      </trkpt>
      <trkpt lat="44.884" lon="5.34791">
        <ele>1542.09</ele>
        <time>2024-09-17T14:42:46Z</time>
      </trkpt>
      <trkpt lat="44.88377" lon="5.34785">
        <ele>1541.61</ele>
        <time>2024-09-17T14:43:00Z</time>
      </trkpt>
      <trkpt lat="44.88355" lon="5.34777">
        <ele>1541.61</ele>
        <time>2024-09-17T14:43:15Z</time>
      </trkpt>
      <trkpt lat="44.88328" lon="5.34771">
        <ele>1541.13</ele>
        <time>2024-09-17T14:43:30Z</time>
      </trkpt>
      <trkpt lat="44.88306" lon="5.34767">
        <ele>1540.65</ele>
        <time>2024-09-17T14:43:45Z</time>
      </trkpt>
      <trkpt lat="44.88281" lon="5.34764">
        <ele>1539.21</ele>
        <time>2024-09-17T14:44:02Z</time>
      </trkpt>
      <trkpt lat="44.8826" lon="5.34764">
        <ele>1537.29</ele>
        <time>2024-09-17T14:44:17Z</time>
      </trkpt>
      <trkpt lat="44.88238" lon="5.34763">
        <ele>1535.84</ele>
        <time>2024-09-17T14:44:31Z</time>
      </trkpt>
      <trkpt lat="44.88215" lon="5.34762">
        <ele>1534.4</ele>
        <time>2024-09-17T14:44:45Z</time>
      </trkpt>
      <trkpt lat="44.88207" lon="5.3476">
        <ele>1533.92</ele>
        <time>2024-09-17T14:44:50Z</time>
      </trkpt>
      <trkpt lat="44.88185" lon="5.34757">
        <ele>1532.96</ele>
        <time>2024-09-17T14:45:03Z</time>
      </trkpt>
      <trkpt lat="44.88167" lon="5.34756">
        <ele>1531.52</ele>
        <time>2024-09-17T14:45:15Z</time>
      </trkpt>
      <trkpt lat="44.88143" lon="5.34757">
        <ele>1529.11</ele>
        <time>2024-09-17T14:45:31Z</time>
      </trkpt>
      <trkpt lat="44.88123" lon="5.34753">
        <ele>1527.19</ele>
        <time>2024-09-17T14:45:44Z</time>
      </trkpt>
      <trkpt lat="44.88119" lon="5.34752">
        <ele>1527.19</ele>
        <time>2024-09-17T14:45:47Z</time>
      </trkpt>
      <trkpt lat="44.88118" lon="5.34751">
        <ele>1526.71</ele>
        <time>2024-09-17T14:45:48Z</time>
      </trkpt>
      <trkpt lat="44.88117" lon="5.3475">
        <ele>1526.71</ele>
        <time>2024-09-17T14:45:49Z</time>
      </trkpt>
      <trkpt lat="44.88115" lon="5.3475">
        <ele>1526.71</ele>
        <time>2024-09-17T14:45:50Z</time>
      </trkpt>
      <trkpt lat="44.88114" lon="5.3475">
        <ele>1526.23</ele>
        <time>2024-09-17T14:45:51Z</time>
      </trkpt>
      <trkpt lat="44.88094" lon="5.34744">
        <ele>1524.79</ele>
        <time>2024-09-17T14:46:05Z</time>
      </trkpt>
      <trkpt lat="44.88093" lon="5.34744">
        <ele>1524.79</ele>
        <time>2024-09-17T14:46:06Z</time>
      </trkpt>
      <trkpt lat="44.8807" lon="5.34737">
        <ele>1523.83</ele>
        <time>2024-09-17T14:46:21Z</time>
      </trkpt>
      <trkpt lat="44.88047" lon="5.34731">
        <ele>1522.87</ele>
        <time>2024-09-17T14:46:35Z</time>
      </trkpt>
      <trkpt lat="44.88025" lon="5.34726">
        <ele>1521.9</ele>
        <time>2024-09-17T14:46:51Z</time>
      </trkpt>
      <trkpt lat="44.88002" lon="5.34723">
        <ele>1520.46</ele>
        <time>2024-09-17T14:47:04Z</time>
      </trkpt>
      <trkpt lat="44.87982" lon="5.34725">
        <ele>1518.06</ele>
        <time>2024-09-17T14:47:18Z</time>
      </trkpt>
      <trkpt lat="44.87962" lon="5.34723">
        <ele>1514.69</ele>
        <time>2024-09-17T14:47:32Z</time>
      </trkpt>
      <trkpt lat="44.87943" lon="5.3472">
        <ele>1512.77</ele>
        <time>2024-09-17T14:47:44Z</time>
      </trkpt>
      <trkpt lat="44.87923" lon="5.34717">
        <ele>1510.85</ele>
        <time>2024-09-17T14:47:57Z</time>
      </trkpt>
      <trkpt lat="44.87922" lon="5.34717">
        <ele>1510.85</ele>
        <time>2024-09-17T14:47:58Z</time>
      </trkpt>
      <trkpt lat="44.8792" lon="5.34716">
        <ele>1510.37</ele>
        <time>2024-09-17T14:47:59Z</time>
      </trkpt>
      <trkpt lat="44.87918" lon="5.34716">
        <ele>1510.37</ele>
        <time>2024-09-17T14:48:00Z</time>
      </trkpt>
      <trkpt lat="44.87896" lon="5.34709">
        <ele>1509.41</ele>
        <time>2024-09-17T14:48:16Z</time>
      </trkpt>
      <trkpt lat="44.87884" lon="5.34703">
        <ele>1508.45</ele>
        <time>2024-09-17T14:48:25Z</time>
      </trkpt>
      <trkpt lat="44.8786" lon="5.34699">
        <ele>1506.52</ele>
        <time>2024-09-17T14:48:38Z</time>
      </trkpt>
      <trkpt lat="44.87837" lon="5.34696">
        <ele>1504.12</ele>
        <time>2024-09-17T14:48:52Z</time>
      </trkpt>
      <trkpt lat="44.87817" lon="5.34694">
        <ele>1501.72</ele>
        <time>2024-09-17T14:49:07Z</time>
      </trkpt>
      <trkpt lat="44.87794" lon="5.34691">
        <ele>1498.83</ele>
        <time>2024-09-17T14:49:21Z</time>
      </trkpt>
      <trkpt lat="44.8777" lon="5.34685">
        <ele>1496.43</ele>
        <time>2024-09-17T14:49:37Z</time>
      </trkpt>
      <trkpt lat="44.87752" lon="5.3467">
        <ele>1493.55</ele>
        <time>2024-09-17T14:49:51Z</time>
      </trkpt>
      <trkpt lat="44.87741" lon="5.34661">
        <ele>1492.58</ele>
        <time>2024-09-17T14:49:58Z</time>
      </trkpt>
      <trkpt lat="44.87722" lon="5.34654">
        <ele>1488.74</ele>
        <time>2024-09-17T14:50:11Z</time>
      </trkpt>
      <trkpt lat="44.87703" lon="5.34654">
        <ele>1485.37</ele>
        <time>2024-09-17T14:50:25Z</time>
      </trkpt>
      <trkpt lat="44.87682" lon="5.34651">
        <ele>1483.93</ele>
        <time>2024-09-17T14:50:39Z</time>
      </trkpt>
      <trkpt lat="44.87669" lon="5.34649">
        <ele>1482.49</ele>
        <time>2024-09-17T14:50:47Z</time>
      </trkpt>
      <trkpt lat="44.87667" lon="5.34649">
        <ele>1482.49</ele>
        <time>2024-09-17T14:50:48Z</time>
      </trkpt>
      <trkpt lat="44.87665" lon="5.34649">
        <ele>1482.01</ele>
        <time>2024-09-17T14:50:49Z</time>
      </trkpt>
      <trkpt lat="44.87647" lon="5.34646">
        <ele>1479.13</ele>
        <time>2024-09-17T14:51:02Z</time>
      </trkpt>
      <trkpt lat="44.87617" lon="5.34634">
        <ele>1476.72</ele>
        <time>2024-09-17T14:51:19Z</time>
      </trkpt>
      <trkpt lat="44.87596" lon="5.34625">
        <ele>1474.32</ele>
        <time>2024-09-17T14:51:34Z</time>
      </trkpt>
      <trkpt lat="44.87575" lon="5.34608">
        <ele>1472.88</ele>
        <time>2024-09-17T14:51:48Z</time>
      </trkpt>
      <trkpt lat="44.87559" lon="5.34591">
        <ele>1471.44</ele>
        <time>2024-09-17T14:52:02Z</time>
      </trkpt>
      <trkpt lat="44.87542" lon="5.3458">
        <ele>1470.95</ele>
        <time>2024-09-17T14:52:15Z</time>
      </trkpt>
      <trkpt lat="44.8754" lon="5.34579">
        <ele>1470.47</ele>
        <time>2024-09-17T14:52:16Z</time>
      </trkpt>
      <trkpt lat="44.87528" lon="5.34575">
        <ele>1469.03</ele>
        <time>2024-09-17T14:52:25Z</time>
      </trkpt>
      <trkpt lat="44.87526" lon="5.34574">
        <ele>1468.55</ele>
        <time>2024-09-17T14:52:26Z</time>
      </trkpt>
      <trkpt lat="44.87525" lon="5.34573">
        <ele>1468.55</ele>
        <time>2024-09-17T14:52:27Z</time>
      </trkpt>
      <trkpt lat="44.87506" lon="5.34562">
        <ele>1462.3</ele>
        <time>2024-09-17T14:52:41Z</time>
      </trkpt>
      <trkpt lat="44.87484" lon="5.34552">
        <ele>1455.57</ele>
        <time>2024-09-17T14:52:56Z</time>
      </trkpt>
      <trkpt lat="44.87482" lon="5.34551">
        <ele>1455.57</ele>
        <time>2024-09-17T14:52:57Z</time>
      </trkpt>
      <trkpt lat="44.8748" lon="5.34551">
        <ele>1455.57</ele>
        <time>2024-09-17T14:52:58Z</time>
      </trkpt>
      <trkpt lat="44.87479" lon="5.34551">
        <ele>1455.57</ele>
        <time>2024-09-17T14:52:59Z</time>
      </trkpt>
      <trkpt lat="44.87477" lon="5.34552">
        <ele>1455.57</ele>
        <time>2024-09-17T14:53:00Z</time>
      </trkpt>
      <trkpt lat="44.87454" lon="5.34546">
        <ele>1456.53</ele>
        <time>2024-09-17T14:53:16Z</time>
      </trkpt>
      <trkpt lat="44.8743" lon="5.34532">
        <ele>1456.05</ele>
        <time>2024-09-17T14:53:35Z</time>
      </trkpt>
      <trkpt lat="44.87419" lon="5.3451">
        <ele>1455.57</ele>
        <time>2024-09-17T14:53:50Z</time>
      </trkpt>
      <trkpt lat="44.87403" lon="5.34479">
        <ele>1455.57</ele>
        <time>2024-09-17T14:54:06Z</time>
      </trkpt>
      <trkpt lat="44.87385" lon="5.34457">
        <ele>1457.5</ele>
        <time>2024-09-17T14:54:22Z</time>
      </trkpt>
      <trkpt lat="44.87367" lon="5.34452">
        <ele>1460.38</ele>
        <time>2024-09-17T14:54:35Z</time>
      </trkpt>
      <trkpt lat="44.87345" lon="5.34447">
        <ele>1459.42</ele>
        <time>2024-09-17T14:54:51Z</time>
      </trkpt>
      <trkpt lat="44.87321" lon="5.34448">
        <ele>1458.94</ele>
        <time>2024-09-17T14:55:08Z</time>
      </trkpt>
      <trkpt lat="44.87298" lon="5.34454">
        <ele>1459.42</ele>
        <time>2024-09-17T14:55:24Z</time>
      </trkpt>
      <trkpt lat="44.87271" lon="5.34461">
        <ele>1458.46</ele>
        <time>2024-09-17T14:55:41Z</time>
      </trkpt>
      <trkpt lat="44.87245" lon="5.34458">
        <ele>1457.5</ele>
        <time>2024-09-17T14:55:58Z</time>
      </trkpt>
      <trkpt lat="44.87218" lon="5.34454">
        <ele>1457.98</ele>
        <time>2024-09-17T14:56:13Z</time>
      </trkpt>
      <trkpt lat="44.87191" lon="5.34448">
        <ele>1459.42</ele>
        <time>2024-09-17T14:56:32Z</time>
      </trkpt>
      <trkpt lat="44.8717" lon="5.34449">
        <ele>1458.94</ele>
        <time>2024-09-17T14:56:44Z</time>
      </trkpt>
      <trkpt lat="44.87145" lon="5.34449">
        <ele>1458.94</ele>
        <time>2024-09-17T14:57:02Z</time>
      </trkpt>
      <trkpt lat="44.87123" lon="5.34442">
        <ele>1460.38</ele>
        <time>2024-09-17T14:57:18Z</time>
      </trkpt>
      <trkpt lat="44.87106" lon="5.34441">
        <ele>1461.82</ele>
        <time>2024-09-17T14:57:32Z</time>
      </trkpt>
      <trkpt lat="44.87081" lon="5.34439">
        <ele>1461.82</ele>
        <time>2024-09-17T14:57:50Z</time>
      </trkpt>
      <trkpt lat="44.87057" lon="5.34435">
        <ele>1459.42</ele>
        <time>2024-09-17T14:58:07Z</time>
      </trkpt>
      <trkpt lat="44.87047" lon="5.34435">
        <ele>1458.94</ele>
        <time>2024-09-17T14:58:14Z</time>
      </trkpt>
      <trkpt lat="44.87046" lon="5.34436">
        <ele>1458.94</ele>
        <time>2024-09-17T14:58:15Z</time>
      </trkpt>
      <trkpt lat="44.87033" lon="5.3444">
        <ele>1458.94</ele>
        <time>2024-09-17T14:58:25Z</time>
      </trkpt>
      <trkpt lat="44.87032" lon="5.34441">
        <ele>1458.94</ele>
        <time>2024-09-17T14:58:26Z</time>
      </trkpt>
      <trkpt lat="44.8703" lon="5.34441">
        <ele>1458.94</ele>
        <time>2024-09-17T14:58:27Z</time>
      </trkpt>
      <trkpt lat="44.87008" lon="5.34448">
        <ele>1458.46</ele>
        <time>2024-09-17T14:58:43Z</time>
      </trkpt>
      <trkpt lat="44.86992" lon="5.34454">
        <ele>1457.98</ele>
        <time>2024-09-17T14:58:56Z</time>
      </trkpt>
      <trkpt lat="44.86972" lon="5.34454">
        <ele>1456.05</ele>
        <time>2024-09-17T14:59:12Z</time>
      </trkpt>
      <trkpt lat="44.86947" lon="5.34455">
        <ele>1454.13</ele>
        <time>2024-09-17T14:59:29Z</time>
      </trkpt>
      <trkpt lat="44.86928" lon="5.34461">
        <ele>1453.17</ele>
        <time>2024-09-17T14:59:42Z</time>
      </trkpt>
      <trkpt lat="44.86902" lon="5.34469">
        <ele>1450.29</ele>
        <time>2024-09-17T14:59:57Z</time>
      </trkpt>
      <trkpt lat="44.86877" lon="5.34473">
        <ele>1448.36</ele>
        <time>2024-09-17T15:00:13Z</time>
      </trkpt>
      <trkpt lat="44.86855" lon="5.34477">
        <ele>1444.04</ele>
        <time>2024-09-17T15:00:28Z</time>
      </trkpt>
      <trkpt lat="44.86828" lon="5.34475">
        <ele>1440.19</ele>
        <time>2024-09-17T15:00:46Z</time>
      </trkpt>
      <trkpt lat="44.86802" lon="5.34474">
        <ele>1439.71</ele>
        <time>2024-09-17T15:01:04Z</time>
      </trkpt>
      <trkpt lat="44.86778" lon="5.34473">
        <ele>1438.75</ele>
        <time>2024-09-17T15:01:20Z</time>
      </trkpt>
      <trkpt lat="44.86764" lon="5.34466">
        <ele>1437.79</ele>
        <time>2024-09-17T15:01:33Z</time>
      </trkpt>
      <trkpt lat="44.86748" lon="5.34462">
        <ele>1433.46</ele>
        <time>2024-09-17T15:01:46Z</time>
      </trkpt>
      <trkpt lat="44.8673" lon="5.34458">
        <ele>1426.73</ele>
        <time>2024-09-17T15:02:00Z</time>
      </trkpt>
      <trkpt lat="44.86712" lon="5.3445">
        <ele>1419.04</ele>
        <time>2024-09-17T15:02:15Z</time>
      </trkpt>
      <trkpt lat="44.86705" lon="5.34448">
        <ele>1416.64</ele>
        <time>2024-09-17T15:02:21Z</time>
      </trkpt>
      <trkpt lat="44.86704" lon="5.34448">
        <ele>1416.16</ele>
        <time>2024-09-17T15:02:22Z</time>
      </trkpt>
      <trkpt lat="44.86686" lon="5.34439">
        <ele>1412.79</ele>
        <time>2024-09-17T15:02:36Z</time>
      </trkpt>
      <trkpt lat="44.86669" lon="5.34437">
        <ele>1408.95</ele>
        <time>2024-09-17T15:02:50Z</time>
      </trkpt>
      <trkpt lat="44.86669" lon="5.34443">
        <ele>1408.47</ele>
        <time>2024-09-17T15:02:55Z</time>
      </trkpt>
      <trkpt lat="44.8667" lon="5.34444">
        <ele>1408.47</ele>
        <time>2024-09-17T15:02:56Z</time>
      </trkpt>
      <trkpt lat="44.86671" lon="5.34446">
        <ele>1408.47</ele>
        <time>2024-09-17T15:02:57Z</time>
      </trkpt>
      <trkpt lat="44.86671" lon="5.34447">
        <ele>1407.99</ele>
        <time>2024-09-17T15:02:58Z</time>
      </trkpt>
      <trkpt lat="44.86672" lon="5.3445">
        <ele>1407.99</ele>
        <time>2024-09-17T15:02:59Z</time>
      </trkpt>
      <trkpt lat="44.86679" lon="5.34468">
        <ele>1403.66</ele>
        <time>2024-09-17T15:03:12Z</time>
      </trkpt>
      <trkpt lat="44.86696" lon="5.34496">
        <ele>1399.82</ele>
        <time>2024-09-17T15:03:29Z</time>
      </trkpt>
      <trkpt lat="44.86703" lon="5.3453">
        <ele>1396.93</ele>
        <time>2024-09-17T15:03:45Z</time>
      </trkpt>
      <trkpt lat="44.86713" lon="5.34554">
        <ele>1395.97</ele>
        <time>2024-09-17T15:03:59Z</time>
      </trkpt>
      <trkpt lat="44.86722" lon="5.34577">
        <ele>1395.97</ele>
        <time>2024-09-17T15:04:14Z</time>
      </trkpt>
      <trkpt lat="44.86735" lon="5.34595">
        <ele>1392.13</ele>
        <time>2024-09-17T15:04:31Z</time>
      </trkpt>
      <trkpt lat="44.86751" lon="5.34616">
        <ele>1386.84</ele>
        <time>2024-09-17T15:04:49Z</time>
      </trkpt>
      <trkpt lat="44.8677" lon="5.34639">
        <ele>1381.55</ele>
        <time>2024-09-17T15:05:08Z</time>
      </trkpt>
      <trkpt lat="44.8679" lon="5.34648">
        <ele>1380.11</ele>
        <time>2024-09-17T15:05:21Z</time>
      </trkpt>
      <trkpt lat="44.86805" lon="5.34661">
        <ele>1380.59</ele>
        <time>2024-09-17T15:05:36Z</time>
      </trkpt>
      <trkpt lat="44.86827" lon="5.34678">
        <ele>1375.78</ele>
        <time>2024-09-17T15:05:54Z</time>
      </trkpt>
      <trkpt lat="44.86848" lon="5.34688">
        <ele>1373.38</ele>
        <time>2024-09-17T15:06:10Z</time>
      </trkpt>
      <trkpt lat="44.86867" lon="5.34701">
        <ele>1368.09</ele>
        <time>2024-09-17T15:06:25Z</time>
      </trkpt>
      <trkpt lat="44.86888" lon="5.34712">
        <ele>1364.73</ele>
        <time>2024-09-17T15:06:41Z</time>
      </trkpt>
      <trkpt lat="44.86906" lon="5.34721">
        <ele>1358.96</ele>
        <time>2024-09-17T15:06:56Z</time>
      </trkpt>
      <trkpt lat="44.8692" lon="5.34732">
        <ele>1350.31</ele>
        <time>2024-09-17T15:07:13Z</time>
      </trkpt>
      <trkpt lat="44.86952" lon="5.34745">
        <ele>1342.62</ele>
        <time>2024-09-17T15:07:30Z</time>
      </trkpt>
      <trkpt lat="44.86976" lon="5.3476">
        <ele>1335.41</ele>
        <time>2024-09-17T15:07:46Z</time>
      </trkpt>
      <trkpt lat="44.86994" lon="5.3478">
        <ele>1328.68</ele>
        <time>2024-09-17T15:08:03Z</time>
      </trkpt>
      <trkpt lat="44.87016" lon="5.348">
        <ele>1327.72</ele>
        <time>2024-09-17T15:08:19Z</time>
      </trkpt>
      <trkpt lat="44.87028" lon="5.34816">
        <ele>1329.16</ele>
        <time>2024-09-17T15:08:34Z</time>
      </trkpt>
      <trkpt lat="44.87042" lon="5.34833">
        <ele>1323.87</ele>
        <time>2024-09-17T15:08:49Z</time>
      </trkpt>
      <trkpt lat="44.87053" lon="5.34855">
        <ele>1317.14</ele>
        <time>2024-09-17T15:09:04Z</time>
      </trkpt>
      <trkpt lat="44.87069" lon="5.3487">
        <ele>1309.45</ele>
        <time>2024-09-17T15:09:20Z</time>
      </trkpt>
      <trkpt lat="44.87086" lon="5.34886">
        <ele>1301.28</ele>
        <time>2024-09-17T15:09:37Z</time>
      </trkpt>
      <trkpt lat="44.87087" lon="5.34887">
        <ele>1300.8</ele>
        <time>2024-09-17T15:09:38Z</time>
      </trkpt>
      <trkpt lat="44.87088" lon="5.34888">
        <ele>1300.32</ele>
        <time>2024-09-17T15:09:39Z</time>
      </trkpt>
      <trkpt lat="44.87089" lon="5.3489">
        <ele>1299.84</ele>
        <time>2024-09-17T15:09:40Z</time>
      </trkpt>
      <trkpt lat="44.87104" lon="5.34901">
        <ele>1294.07</ele>
        <time>2024-09-17T15:09:55Z</time>
      </trkpt>
      <trkpt lat="44.87127" lon="5.3491">
        <ele>1286.86</ele>
        <time>2024-09-17T15:10:12Z</time>
      </trkpt>
      <trkpt lat="44.87153" lon="5.34919">
        <ele>1285.42</ele>
        <time>2024-09-17T15:10:28Z</time>
      </trkpt>
      <trkpt lat="44.87172" lon="5.34921">
        <ele>1284.94</ele>
        <time>2024-09-17T15:10:42Z</time>
      </trkpt>
      <trkpt lat="44.8719" lon="5.34935">
        <ele>1283.5</ele>
        <time>2024-09-17T15:10:55Z</time>
      </trkpt>
      <trkpt lat="44.87197" lon="5.34942">
        <ele>1283.5</ele>
        <time>2024-09-17T15:11:00Z</time>
      </trkpt>
      <trkpt lat="44.8721" lon="5.34971">
        <ele>1278.21</ele>
        <time>2024-09-17T15:11:15Z</time>
      </trkpt>
      <trkpt lat="44.87224" lon="5.34991">
        <ele>1271</ele>
        <time>2024-09-17T15:11:30Z</time>
      </trkpt>
      <trkpt lat="44.87244" lon="5.35014">
        <ele>1265.23</ele>
        <time>2024-09-17T15:11:47Z</time>
      </trkpt>
      <trkpt lat="44.87258" lon="5.3503">
        <ele>1261.87</ele>
        <time>2024-09-17T15:11:59Z</time>
      </trkpt>
      <trkpt lat="44.87273" lon="5.35061">
        <ele>1258.5</ele>
        <time>2024-09-17T15:12:15Z</time>
      </trkpt>
      <trkpt lat="44.87278" lon="5.35088">
        <ele>1252.74</ele>
        <time>2024-09-17T15:12:30Z</time>
      </trkpt>
      <trkpt lat="44.87279" lon="5.35091">
        <ele>1252.25</ele>
        <time>2024-09-17T15:12:32Z</time>
      </trkpt>
      <trkpt lat="44.87279" lon="5.35093">
        <ele>1252.25</ele>
        <time>2024-09-17T15:12:33Z</time>
      </trkpt>
      <trkpt lat="44.8728" lon="5.35095">
        <ele>1252.25</ele>
        <time>2024-09-17T15:12:34Z</time>
      </trkpt>
      <trkpt lat="44.87281" lon="5.35097">
        <ele>1252.25</ele>
        <time>2024-09-17T15:12:35Z</time>
      </trkpt>
      <trkpt lat="44.87281" lon="5.35099">
        <ele>1252.25</ele>
        <time>2024-09-17T15:12:36Z</time>
      </trkpt>
      <trkpt lat="44.87293" lon="5.35121">
        <ele>1250.81</ele>
        <time>2024-09-17T15:12:50Z</time>
      </trkpt>
      <trkpt lat="44.87306" lon="5.35143">
        <ele>1248.89</ele>
        <time>2024-09-17T15:13:04Z</time>
      </trkpt>
      <trkpt lat="44.87322" lon="5.35167">
        <ele>1244.08</ele>
        <time>2024-09-17T15:13:20Z</time>
      </trkpt>
      <trkpt lat="44.87327" lon="5.35172">
        <ele>1242.16</ele>
        <time>2024-09-17T15:13:25Z</time>
      </trkpt>
      <trkpt lat="44.87328" lon="5.35173">
        <ele>1241.68</ele>
        <time>2024-09-17T15:13:26Z</time>
      </trkpt>
      <trkpt lat="44.87345" lon="5.35194">
        <ele>1240.72</ele>
        <time>2024-09-17T15:13:41Z</time>
      </trkpt>
      <trkpt lat="44.87347" lon="5.35198">
        <ele>1240.72</ele>
        <time>2024-09-17T15:13:43Z</time>
      </trkpt>
      <trkpt lat="44.87349" lon="5.35201">
        <ele>1240.72</ele>
        <time>2024-09-17T15:13:45Z</time>
      </trkpt>
      <trkpt lat="44.87364" lon="5.35224">
        <ele>1240.72</ele>
        <time>2024-09-17T15:14:01Z</time>
      </trkpt>
      <trkpt lat="44.87382" lon="5.35248">
        <ele>1236.39</ele>
        <time>2024-09-17T15:14:17Z</time>
      </trkpt>
      <trkpt lat="44.8739" lon="5.35273">
        <ele>1228.22</ele>
        <time>2024-09-17T15:14:32Z</time>
      </trkpt>
      <trkpt lat="44.87406" lon="5.35289">
        <ele>1221.01</ele>
        <time>2024-09-17T15:14:48Z</time>
      </trkpt>
      <trkpt lat="44.87424" lon="5.35307">
        <ele>1214.76</ele>
        <time>2024-09-17T15:15:04Z</time>
      </trkpt>
      <trkpt lat="44.87425" lon="5.35308">
        <ele>1214.28</ele>
        <time>2024-09-17T15:15:05Z</time>
      </trkpt>
      <trkpt lat="44.87427" lon="5.3531">
        <ele>1214.28</ele>
        <time>2024-09-17T15:15:06Z</time>
      </trkpt>
      <trkpt lat="44.87428" lon="5.35312">
        <ele>1213.8</ele>
        <time>2024-09-17T15:15:07Z</time>
      </trkpt>
      <trkpt lat="44.87444" lon="5.3534">
        <ele>1208.03</ele>
        <time>2024-09-17T15:15:24Z</time>
      </trkpt>
      <trkpt lat="44.87458" lon="5.3537">
        <ele>1201.3</ele>
        <time>2024-09-17T15:15:41Z</time>
      </trkpt>
      <trkpt lat="44.87471" lon="5.35396">
        <ele>1193.13</ele>
        <time>2024-09-17T15:15:57Z</time>
      </trkpt>
      <trkpt lat="44.87478" lon="5.35412">
        <ele>1188.33</ele>
        <time>2024-09-17T15:16:06Z</time>
      </trkpt>
      <trkpt lat="44.87483" lon="5.35437">
        <ele>1182.56</ele>
        <time>2024-09-17T15:16:19Z</time>
      </trkpt>
      <trkpt lat="44.87483" lon="5.3544">
        <ele>1182.08</ele>
        <time>2024-09-17T15:16:20Z</time>
      </trkpt>
      <trkpt lat="44.87484" lon="5.35442">
        <ele>1182.08</ele>
        <time>2024-09-17T15:16:21Z</time>
      </trkpt>
      <trkpt lat="44.87484" lon="5.35444">
        <ele>1182.08</ele>
        <time>2024-09-17T15:16:22Z</time>
      </trkpt>
      <trkpt lat="44.87487" lon="5.35474">
        <ele>1182.08</ele>
        <time>2024-09-17T15:16:36Z</time>
      </trkpt>
      <trkpt lat="44.87492" lon="5.35507">
        <ele>1182.08</ele>
        <time>2024-09-17T15:16:51Z</time>
      </trkpt>
      <trkpt lat="44.87499" lon="5.35523">
        <ele>1178.71</ele>
        <time>2024-09-17T15:17:00Z</time>
      </trkpt>
      <trkpt lat="44.87516" lon="5.35543">
        <ele>1178.71</ele>
        <time>2024-09-17T15:17:14Z</time>
      </trkpt>
      <trkpt lat="44.87517" lon="5.35544">
        <ele>1178.23</ele>
        <time>2024-09-17T15:17:15Z</time>
      </trkpt>
      <trkpt lat="44.87518" lon="5.35546">
        <ele>1178.23</ele>
        <time>2024-09-17T15:17:16Z</time>
      </trkpt>
      <trkpt lat="44.8752" lon="5.35548">
        <ele>1177.75</ele>
        <time>2024-09-17T15:17:17Z</time>
      </trkpt>
      <trkpt lat="44.87522" lon="5.35549">
        <ele>1177.27</ele>
        <time>2024-09-17T15:17:18Z</time>
      </trkpt>
      <trkpt lat="44.87523" lon="5.35551">
        <ele>1176.79</ele>
        <time>2024-09-17T15:17:19Z</time>
      </trkpt>
      <trkpt lat="44.87528" lon="5.35555">
        <ele>1175.35</ele>
        <time>2024-09-17T15:17:23Z</time>
      </trkpt>
      <trkpt lat="44.87545" lon="5.35581">
        <ele>1167.18</ele>
        <time>2024-09-17T15:17:40Z</time>
      </trkpt>
      <trkpt lat="44.87562" lon="5.35588">
        <ele>1159.01</ele>
        <time>2024-09-17T15:17:53Z</time>
      </trkpt>
      <trkpt lat="44.87568" lon="5.3559">
        <ele>1157.08</ele>
        <time>2024-09-17T15:17:57Z</time>
      </trkpt>
      <trkpt lat="44.8757" lon="5.35591">
        <ele>1156.6</ele>
        <time>2024-09-17T15:17:58Z</time>
      </trkpt>
      <trkpt lat="44.87572" lon="5.35592">
        <ele>1156.12</ele>
        <time>2024-09-17T15:17:59Z</time>
      </trkpt>
      <trkpt lat="44.87599" lon="5.35619">
        <ele>1152.76</ele>
        <time>2024-09-17T15:18:17Z</time>
      </trkpt>
      <trkpt lat="44.87616" lon="5.35651">
        <ele>1148.91</ele>
        <time>2024-09-17T15:18:33Z</time>
      </trkpt>
      <trkpt lat="44.87637" lon="5.35678">
        <ele>1146.03</ele>
        <time>2024-09-17T15:18:50Z</time>
      </trkpt>
      <trkpt lat="44.87656" lon="5.35695">
        <ele>1143.63</ele>
        <time>2024-09-17T15:19:04Z</time>
      </trkpt>
      <trkpt lat="44.87678" lon="5.35722">
        <ele>1140.26</ele>
        <time>2024-09-17T15:19:21Z</time>
      </trkpt>
      <trkpt lat="44.87704" lon="5.35744">
        <ele>1138.34</ele>
        <time>2024-09-17T15:19:38Z</time>
      </trkpt>
      <trkpt lat="44.87726" lon="5.35761">
        <ele>1134.49</ele>
        <time>2024-09-17T15:19:54Z</time>
      </trkpt>
      <trkpt lat="44.8775" lon="5.35783">
        <ele>1130.65</ele>
        <time>2024-09-17T15:20:09Z</time>
      </trkpt>
      <trkpt lat="44.8777" lon="5.35807">
        <ele>1128.73</ele>
        <time>2024-09-17T15:20:23Z</time>
      </trkpt>
      <trkpt lat="44.87794" lon="5.3584">
        <ele>1123.44</ele>
        <time>2024-09-17T15:20:43Z</time>
      </trkpt>
      <trkpt lat="44.87816" lon="5.35877">
        <ele>1122.96</ele>
        <time>2024-09-17T15:21:03Z</time>
      </trkpt>
      <trkpt lat="44.87836" lon="5.35904">
        <ele>1123.44</ele>
        <time>2024-09-17T15:21:19Z</time>
      </trkpt>
      <trkpt lat="44.87846" lon="5.35914">
        <ele>1122.48</ele>
        <time>2024-09-17T15:21:32Z</time>
      </trkpt>
      <trkpt lat="44.87847" lon="5.35914">
        <ele>1121.52</ele>
        <time>2024-09-17T15:21:48Z</time>
      </trkpt>
      <trkpt lat="44.87847" lon="5.35913">
        <ele>1121.03</ele>
        <time>2024-09-17T15:22:11Z</time>
      </trkpt>
      <trkpt lat="44.8785" lon="5.35914">
        <ele>1121.03</ele>
        <time>2024-09-17T15:22:28Z</time>
      </trkpt>
      <trkpt lat="44.87852" lon="5.35913">
        <ele>1120.07</ele>
        <time>2024-09-17T15:22:46Z</time>
      </trkpt>
      <trkpt lat="44.87852" lon="5.35912">
        <ele>1122</ele>
        <time>2024-09-17T15:23:00Z</time>
      </trkpt>
      <trkpt lat="44.87852" lon="5.35915">
        <ele>1124.88</ele>
        <time>2024-09-17T15:23:20Z</time>
      </trkpt>
      <trkpt lat="44.87852" lon="5.35913">
        <ele>1124.88</ele>
        <time>2024-09-17T15:23:36Z</time>
      </trkpt>
      <trkpt lat="44.87852" lon="5.35914">
        <ele>1124.4</ele>
        <time>2024-09-17T15:23:59Z</time>
      </trkpt>
      <trkpt lat="44.87853" lon="5.35913">
        <ele>1122.48</ele>
        <time>2024-09-17T15:24:15Z</time>
      </trkpt>
      <trkpt lat="44.87858" lon="5.35912">
        <ele>1122.96</ele>
        <time>2024-09-17T15:24:39Z</time>
      </trkpt>
      <trkpt lat="44.87857" lon="5.35914">
        <ele>1122.48</ele>
        <time>2024-09-17T15:24:58Z</time>
      </trkpt>
      <trkpt lat="44.87859" lon="5.35913">
        <ele>1122</ele>
        <time>2024-09-17T15:25:17Z</time>
      </trkpt>
      <trkpt lat="44.8786" lon="5.35915">
        <ele>1124.4</ele>
        <time>2024-09-17T15:25:53Z</time>
      </trkpt>
      <trkpt lat="44.87859" lon="5.3591">
        <ele>1123.92</ele>
        <time>2024-09-17T15:26:24Z</time>
      </trkpt>
      <trkpt lat="44.87858" lon="5.3591">
        <ele>1122.96</ele>
        <time>2024-09-17T15:26:48Z</time>
      </trkpt>
      <trkpt lat="44.87859" lon="5.3591">
        <ele>1124.4</ele>
        <time>2024-09-17T15:27:18Z</time>
      </trkpt>
      <trkpt lat="44.8786" lon="5.35912">
        <ele>1122.96</ele>
        <time>2024-09-17T15:27:42Z</time>
      </trkpt>
      <trkpt lat="44.8786" lon="5.35912">
        <ele>1124.4</ele>
        <time>2024-09-17T15:28:08Z</time>
      </trkpt>
      <trkpt lat="44.8786" lon="5.35912">
        <ele>1126.8</ele>
        <time>2024-09-17T15:28:41Z</time>
      </trkpt>
      <trkpt lat="44.8786" lon="5.35912">
        <ele>1126.8</ele>
        <time>2024-09-17T15:29:04Z</time>
      </trkpt>
      <trkpt lat="44.87858" lon="5.35915">
        <ele>1124.88</ele>
        <time>2024-09-17T15:29:38Z</time>
      </trkpt>
      <trkpt lat="44.87858" lon="5.35913">
        <ele>1123.92</ele>
        <time>2024-09-17T15:30:04Z</time>
      </trkpt>
      <trkpt lat="44.8786" lon="5.35913">
        <ele>1122.96</ele>
        <time>2024-09-17T15:30:34Z</time>
      </trkpt>
      <trkpt lat="44.87859" lon="5.35912">
        <ele>1121.03</ele>
        <time>2024-09-17T15:31:02Z</time>
      </trkpt>
      <trkpt lat="44.87859" lon="5.35914">
        <ele>1121.03</ele>
        <time>2024-09-17T15:31:32Z</time>
      </trkpt>
      <trkpt lat="44.8786" lon="5.35914">
        <ele>1121.03</ele>
        <time>2024-09-17T15:31:56Z</time>
      </trkpt>
      <trkpt lat="44.8786" lon="5.35913">
        <ele>1120.55</ele>
        <time>2024-09-17T15:32:27Z</time>
      </trkpt>
      <trkpt lat="44.87858" lon="5.35913">
        <ele>1122.96</ele>
        <time>2024-09-17T15:32:57Z</time>
      </trkpt>
      <trkpt lat="44.87857" lon="5.35914">
        <ele>1123.44</ele>
        <time>2024-09-17T15:33:28Z</time>
      </trkpt>
      <trkpt lat="44.87858" lon="5.35915">
        <ele>1123.44</ele>
        <time>2024-09-17T15:33:54Z</time>
      </trkpt>
      <trkpt lat="44.87861" lon="5.35912">
        <ele>1125.84</ele>
        <time>2024-09-17T15:34:25Z</time>
      </trkpt>
      <trkpt lat="44.87861" lon="5.35914">
        <ele>1125.84</ele>
        <time>2024-09-17T15:34:58Z</time>
      </trkpt>
      <trkpt lat="44.87861" lon="5.35911">
        <ele>1127.28</ele>
        <time>2024-09-17T15:35:37Z</time>
      </trkpt>
      <trkpt lat="44.87861" lon="5.35914">
        <ele>1125.36</ele>
        <time>2024-09-17T15:36:03Z</time>
      </trkpt>
      <trkpt lat="44.87861" lon="5.35914">
        <ele>1125.84</ele>
        <time>2024-09-17T15:36:35Z</time>
      </trkpt>
      <trkpt lat="44.8786" lon="5.35915">
        <ele>1123.44</ele>
        <time>2024-09-17T15:37:01Z</time>
      </trkpt>
      <trkpt lat="44.87859" lon="5.35914">
        <ele>1123.44</ele>
        <time>2024-09-17T15:37:33Z</time>
      </trkpt>
      <trkpt lat="44.87858" lon="5.35915">
        <ele>1124.88</ele>
        <time>2024-09-17T15:38:13Z</time>
      </trkpt>
      <trkpt lat="44.8786" lon="5.35915">
        <ele>1124.88</ele>
        <time>2024-09-17T15:38:47Z</time>
      </trkpt>
      <trkpt lat="44.87862" lon="5.35914">
        <ele>1127.76</ele>
        <time>2024-09-17T15:39:14Z</time>
      </trkpt>
      <trkpt lat="44.87858" lon="5.35917">
        <ele>1125.36</ele>
        <time>2024-09-17T15:39:30Z</time>
      </trkpt>
      <trkpt lat="44.87855" lon="5.35921">
        <ele>1125.36</ele>
        <time>2024-09-17T15:39:35Z</time>
      </trkpt>
      <trkpt lat="44.8784" lon="5.35933">
        <ele>1123.92</ele>
        <time>2024-09-17T15:39:53Z</time>
      </trkpt>
      <trkpt lat="44.8783" lon="5.35951">
        <ele>1122</ele>
        <time>2024-09-17T15:40:10Z</time>
      </trkpt>
      <trkpt lat="44.87821" lon="5.35975">
        <ele>1120.55</ele>
        <time>2024-09-17T15:40:27Z</time>
      </trkpt>
      <trkpt lat="44.87814" lon="5.35999">
        <ele>1118.15</ele>
        <time>2024-09-17T15:40:44Z</time>
      </trkpt>
      <trkpt lat="44.87804" lon="5.36022">
        <ele>1118.63</ele>
        <time>2024-09-17T15:41:02Z</time>
      </trkpt>
      <trkpt lat="44.87795" lon="5.36044">
        <ele>1117.19</ele>
        <time>2024-09-17T15:41:18Z</time>
      </trkpt>
      <trkpt lat="44.87785" lon="5.36069">
        <ele>1116.23</ele>
        <time>2024-09-17T15:41:34Z</time>
      </trkpt>
      <trkpt lat="44.87781" lon="5.36092">
        <ele>1114.79</ele>
        <time>2024-09-17T15:41:48Z</time>
      </trkpt>
      <trkpt lat="44.87775" lon="5.36116">
        <ele>1118.63</ele>
        <time>2024-09-17T15:42:04Z</time>
      </trkpt>
      <trkpt lat="44.87767" lon="5.36144">
        <ele>1117.67</ele>
        <time>2024-09-17T15:42:21Z</time>
      </trkpt>
      <trkpt lat="44.87759" lon="5.36173">
        <ele>1115.27</ele>
        <time>2024-09-17T15:42:38Z</time>
      </trkpt>
      <trkpt lat="44.8775" lon="5.36198">
        <ele>1114.31</ele>
        <time>2024-09-17T15:42:55Z</time>
      </trkpt>
      <trkpt lat="44.8774" lon="5.36221">
        <ele>1112.86</ele>
        <time>2024-09-17T15:43:11Z</time>
      </trkpt>
      <trkpt lat="44.87723" lon="5.36245">
        <ele>1111.9</ele>
        <time>2024-09-17T15:43:31Z</time>
      </trkpt>
      <trkpt lat="44.87718" lon="5.36258">
        <ele>1111.42</ele>
        <time>2024-09-17T15:43:40Z</time>
      </trkpt>
      <trkpt lat="44.87717" lon="5.3626">
        <ele>1111.42</ele>
        <time>2024-09-17T15:43:41Z</time>
      </trkpt>
      <trkpt lat="44.87717" lon="5.36261">
        <ele>1111.42</ele>
        <time>2024-09-17T15:43:42Z</time>
      </trkpt>
      <trkpt lat="44.87717" lon="5.36263">
        <ele>1111.42</ele>
        <time>2024-09-17T15:43:43Z</time>
      </trkpt>
      <trkpt lat="44.87716" lon="5.36265">
        <ele>1111.42</ele>
        <time>2024-09-17T15:43:44Z</time>
      </trkpt>
      <trkpt lat="44.87707" lon="5.36285">
        <ele>1112.38</ele>
        <time>2024-09-17T15:43:59Z</time>
      </trkpt>
      <trkpt lat="44.87687" lon="5.36284">
        <ele>1109.98</ele>
        <time>2024-09-17T15:44:15Z</time>
      </trkpt>
      <trkpt lat="44.87686" lon="5.36284">
        <ele>1109.98</ele>
        <time>2024-09-17T15:44:16Z</time>
      </trkpt>
      <trkpt lat="44.87679" lon="5.36278">
        <ele>1109.02</ele>
        <time>2024-09-17T15:44:26Z</time>
      </trkpt>
      <trkpt lat="44.87662" lon="5.36266">
        <ele>1106.61</ele>
        <time>2024-09-17T15:44:43Z</time>
      </trkpt>
      <trkpt lat="44.87655" lon="5.3626">
        <ele>1107.58</ele>
        <time>2024-09-17T15:44:50Z</time>
      </trkpt>
      <trkpt lat="44.87654" lon="5.36259">
        <ele>1108.06</ele>
        <time>2024-09-17T15:44:51Z</time>
      </trkpt>
      <trkpt lat="44.87652" lon="5.36256">
        <ele>1108.54</ele>
        <time>2024-09-17T15:44:54Z</time>
      </trkpt>
      <trkpt lat="44.87651" lon="5.36255">
        <ele>1109.02</ele>
        <time>2024-09-17T15:44:55Z</time>
      </trkpt>
      <trkpt lat="44.87638" lon="5.36242">
        <ele>1111.42</ele>
        <time>2024-09-17T15:45:08Z</time>
      </trkpt>
      <trkpt lat="44.87637" lon="5.36241">
        <ele>1111.9</ele>
        <time>2024-09-17T15:45:09Z</time>
      </trkpt>
      <trkpt lat="44.87636" lon="5.3624">
        <ele>1111.9</ele>
        <time>2024-09-17T15:45:10Z</time>
      </trkpt>
      <trkpt lat="44.87635" lon="5.36239">
        <ele>1111.9</ele>
        <time>2024-09-17T15:45:11Z</time>
      </trkpt>
      <trkpt lat="44.87634" lon="5.36238">
        <ele>1112.38</ele>
        <time>2024-09-17T15:45:12Z</time>
      </trkpt>
      <trkpt lat="44.87633" lon="5.36237">
        <ele>1112.38</ele>
        <time>2024-09-17T15:45:13Z</time>
      </trkpt>
      <trkpt lat="44.87632" lon="5.36237">
        <ele>1112.86</ele>
        <time>2024-09-17T15:45:14Z</time>
      </trkpt>
      <trkpt lat="44.87615" lon="5.36223">
        <ele>1114.31</ele>
        <time>2024-09-17T15:45:31Z</time>
      </trkpt>
      <trkpt lat="44.87596" lon="5.36211">
        <ele>1114.79</ele>
        <time>2024-09-17T15:45:48Z</time>
      </trkpt>
      <trkpt lat="44.87594" lon="5.36211">
        <ele>1114.31</ele>
        <time>2024-09-17T15:46:01Z</time>
      </trkpt>
      <trkpt lat="44.87594" lon="5.36212">
        <ele>1114.31</ele>
        <time>2024-09-17T15:46:18Z</time>
      </trkpt>
      <trkpt lat="44.87593" lon="5.36211">
        <ele>1112.86</ele>
        <time>2024-09-17T15:46:42Z</time>
      </trkpt>
      <trkpt lat="44.87594" lon="5.36211">
        <ele>1113.34</ele>
        <time>2024-09-17T15:47:01Z</time>
      </trkpt>
      <trkpt lat="44.87593" lon="5.36212">
        <ele>1114.79</ele>
        <time>2024-09-17T15:47:19Z</time>
      </trkpt>
      <trkpt lat="44.87594" lon="5.36211">
        <ele>1114.31</ele>
        <time>2024-09-17T15:47:36Z</time>
      </trkpt>
      <trkpt lat="44.87595" lon="5.36212">
        <ele>1114.31</ele>
        <time>2024-09-17T15:47:51Z</time>
      </trkpt>
      <trkpt lat="44.87593" lon="5.36213">
        <ele>1114.31</ele>
        <time>2024-09-17T15:47:54Z</time>
      </trkpt>
      <trkpt lat="44.87591" lon="5.36211">
        <ele>1114.79</ele>
        <time>2024-09-17T15:48:04Z</time>
      </trkpt>
      <trkpt lat="44.87592" lon="5.36213">
        <ele>1114.31</ele>
        <time>2024-09-17T15:48:19Z</time>
      </trkpt>
      <trkpt lat="44.87595" lon="5.36212">
        <ele>1113.82</ele>
        <time>2024-09-17T15:48:37Z</time>
      </trkpt>
      <trkpt lat="44.87593" lon="5.3621">
        <ele>1114.31</ele>
        <time>2024-09-17T15:48:54Z</time>
      </trkpt>
      <trkpt lat="44.87594" lon="5.36212">
        <ele>1114.79</ele>
        <time>2024-09-17T15:49:08Z</time>
      </trkpt>
      <trkpt lat="44.87594" lon="5.36212">
        <ele>1115.75</ele>
        <time>2024-09-17T15:49:28Z</time>
      </trkpt>
      <trkpt lat="44.87596" lon="5.36212">
        <ele>1115.75</ele>
        <time>2024-09-17T15:49:49Z</time>
      </trkpt>
      <trkpt lat="44.87595" lon="5.36212">
        <ele>1115.75</ele>
        <time>2024-09-17T15:50:06Z</time>
      </trkpt>
      <trkpt lat="44.87594" lon="5.36214">
        <ele>1115.75</ele>
        <time>2024-09-17T15:50:20Z</time>
      </trkpt>
      <trkpt lat="44.87594" lon="5.36213">
        <ele>1115.75</ele>
        <time>2024-09-17T15:50:21Z</time>
      </trkpt>
      <trkpt lat="44.87589" lon="5.3621">
        <ele>1115.75</ele>
        <time>2024-09-17T15:50:27Z</time>
      </trkpt>
      <trkpt lat="44.87572" lon="5.36202">
        <ele>1119.11</ele>
        <time>2024-09-17T15:50:43Z</time>
      </trkpt>
      <trkpt lat="44.87554" lon="5.36194">
        <ele>1119.59</ele>
        <time>2024-09-17T15:50:59Z</time>
      </trkpt>
      <trkpt lat="44.87539" lon="5.36186">
        <ele>1119.11</ele>
        <time>2024-09-17T15:51:13Z</time>
      </trkpt>
      <trkpt lat="44.87518" lon="5.36178">
        <ele>1119.11</ele>
        <time>2024-09-17T15:51:31Z</time>
      </trkpt>
      <trkpt lat="44.87493" lon="5.36173">
        <ele>1119.59</ele>
        <time>2024-09-17T15:51:51Z</time>
      </trkpt>
      <trkpt lat="44.87471" lon="5.36168">
        <ele>1121.52</ele>
        <time>2024-09-17T15:52:09Z</time>
      </trkpt>
      <trkpt lat="44.87451" lon="5.36164">
        <ele>1122.48</ele>
        <time>2024-09-17T15:52:25Z</time>
      </trkpt>
      <trkpt lat="44.8743" lon="5.36161">
        <ele>1124.4</ele>
        <time>2024-09-17T15:52:43Z</time>
      </trkpt>
      <trkpt lat="44.87424" lon="5.36162">
        <ele>1125.36</ele>
        <time>2024-09-17T15:52:48Z</time>
      </trkpt>
      <trkpt lat="44.87405" lon="5.36162">
        <ele>1124.88</ele>
        <time>2024-09-17T15:53:06Z</time>
      </trkpt>
      <trkpt lat="44.87383" lon="5.36161">
        <ele>1123.92</ele>
        <time>2024-09-17T15:53:24Z</time>
      </trkpt>
      <trkpt lat="44.87379" lon="5.36164">
        <ele>1123.44</ele>
        <time>2024-09-17T15:53:29Z</time>
      </trkpt>
      <trkpt lat="44.8737" lon="5.36166">
        <ele>1125.36</ele>
        <time>2024-09-17T15:53:45Z</time>
      </trkpt>
      <trkpt lat="44.87371" lon="5.36166">
        <ele>1124.88</ele>
        <time>2024-09-17T15:53:57Z</time>
      </trkpt>
      <trkpt lat="44.87372" lon="5.3617">
        <ele>1122.96</ele>
        <time>2024-09-17T15:54:12Z</time>
      </trkpt>
      <trkpt lat="44.87372" lon="5.3617">
        <ele>1123.44</ele>
        <time>2024-09-17T15:54:29Z</time>
      </trkpt>
      <trkpt lat="44.87371" lon="5.36171">
        <ele>1122.96</ele>
        <time>2024-09-17T15:54:47Z</time>
      </trkpt>
      <trkpt lat="44.87371" lon="5.36172">
        <ele>1123.44</ele>
        <time>2024-09-17T15:55:02Z</time>
      </trkpt>
      <trkpt lat="44.87371" lon="5.36171">
        <ele>1122.48</ele>
        <time>2024-09-17T15:55:17Z</time>
      </trkpt>
      <trkpt lat="44.87371" lon="5.3617">
        <ele>1122.48</ele>
        <time>2024-09-17T15:55:19Z</time>
      </trkpt>
      <trkpt lat="44.87371" lon="5.36167">
        <ele>1122.48</ele>
        <time>2024-09-17T15:55:22Z</time>
      </trkpt>
      <trkpt lat="44.87375" lon="5.36162">
        <ele>1122.48</ele>
        <time>2024-09-17T15:55:29Z</time>
      </trkpt>
      <trkpt lat="44.8735" lon="5.36154">
        <ele>1122.96</ele>
        <time>2024-09-17T15:55:42Z</time>
      </trkpt>
      <trkpt lat="44.87324" lon="5.36146">
        <ele>1124.4</ele>
        <time>2024-09-17T15:55:58Z</time>
      </trkpt>
      <trkpt lat="44.87303" lon="5.36142">
        <ele>1127.28</ele>
        <time>2024-09-17T15:56:13Z</time>
      </trkpt>
      <trkpt lat="44.87278" lon="5.36137">
        <ele>1129.21</ele>
        <time>2024-09-17T15:56:29Z</time>
      </trkpt>
      <trkpt lat="44.87254" lon="5.36133">
        <ele>1129.69</ele>
        <time>2024-09-17T15:56:45Z</time>
      </trkpt>
      <trkpt lat="44.87229" lon="5.36126">
        <ele>1129.69</ele>
        <time>2024-09-17T15:57:02Z</time>
      </trkpt>
      <trkpt lat="44.87202" lon="5.36118">
        <ele>1130.17</ele>
        <time>2024-09-17T15:57:19Z</time>
      </trkpt>
      <trkpt lat="44.87185" lon="5.36112">
        <ele>1130.17</ele>
        <time>2024-09-17T15:57:30Z</time>
      </trkpt>
      <trkpt lat="44.87163" lon="5.36108">
        <ele>1130.65</ele>
        <time>2024-09-17T15:57:44Z</time>
      </trkpt>
      <trkpt lat="44.87139" lon="5.36108">
        <ele>1131.13</ele>
        <time>2024-09-17T15:57:58Z</time>
      </trkpt>
      <trkpt lat="44.87113" lon="5.36103">
        <ele>1132.57</ele>
        <time>2024-09-17T15:58:14Z</time>
      </trkpt>
      <trkpt lat="44.87087" lon="5.36099">
        <ele>1132.57</ele>
        <time>2024-09-17T15:58:30Z</time>
      </trkpt>
      <trkpt lat="44.87065" lon="5.36099">
        <ele>1134.01</ele>
        <time>2024-09-17T15:58:46Z</time>
      </trkpt>
      <trkpt lat="44.87044" lon="5.36098">
        <ele>1134.49</ele>
        <time>2024-09-17T15:59:00Z</time>
      </trkpt>
      <trkpt lat="44.87019" lon="5.36098">
        <ele>1135.94</ele>
        <time>2024-09-17T15:59:19Z</time>
      </trkpt>
      <trkpt lat="44.86998" lon="5.36095">
        <ele>1135.94</ele>
        <time>2024-09-17T15:59:34Z</time>
      </trkpt>
      <trkpt lat="44.8697" lon="5.36094">
        <ele>1135.45</ele>
        <time>2024-09-17T15:59:52Z</time>
      </trkpt>
      <trkpt lat="44.8695" lon="5.361">
        <ele>1134.01</ele>
        <time>2024-09-17T16:00:06Z</time>
      </trkpt>
      <trkpt lat="44.8692" lon="5.36106">
        <ele>1133.53</ele>
        <time>2024-09-17T16:00:21Z</time>
      </trkpt>
      <trkpt lat="44.86912" lon="5.36109">
        <ele>1133.05</ele>
        <time>2024-09-17T16:00:27Z</time>
      </trkpt>
      <trkpt lat="44.8689" lon="5.36103">
        <ele>1131.61</ele>
        <time>2024-09-17T16:00:43Z</time>
      </trkpt>
      <trkpt lat="44.86864" lon="5.36098">
        <ele>1131.61</ele>
        <time>2024-09-17T16:00:57Z</time>
      </trkpt>
      <trkpt lat="44.8684" lon="5.36093">
        <ele>1133.53</ele>
        <time>2024-09-17T16:01:14Z</time>
      </trkpt>
      <trkpt lat="44.86813" lon="5.36094">
        <ele>1134.01</ele>
        <time>2024-09-17T16:01:31Z</time>
      </trkpt>
      <trkpt lat="44.86791" lon="5.36097">
        <ele>1134.97</ele>
        <time>2024-09-17T16:01:45Z</time>
      </trkpt>
      <trkpt lat="44.86771" lon="5.36095">
        <ele>1134.97</ele>
        <time>2024-09-17T16:02:00Z</time>
      </trkpt>
      <trkpt lat="44.86746" lon="5.36098">
        <ele>1137.38</ele>
        <time>2024-09-17T16:02:17Z</time>
      </trkpt>
      <trkpt lat="44.8673" lon="5.36085">
        <ele>1139.3</ele>
        <time>2024-09-17T16:02:29Z</time>
      </trkpt>
      <trkpt lat="44.86723" lon="5.36079">
        <ele>1139.78</ele>
        <time>2024-09-17T16:02:36Z</time>
      </trkpt>
      <trkpt lat="44.86722" lon="5.36079">
        <ele>1139.78</ele>
        <time>2024-09-17T16:02:37Z</time>
      </trkpt>
      <trkpt lat="44.86715" lon="5.36078">
        <ele>1140.26</ele>
        <time>2024-09-17T16:02:42Z</time>
      </trkpt>
      <trkpt lat="44.86702" lon="5.36073">
        <ele>1139.78</ele>
        <time>2024-09-17T16:02:52Z</time>
      </trkpt>
      <trkpt lat="44.86701" lon="5.36073">
        <ele>1139.78</ele>
        <time>2024-09-17T16:02:53Z</time>
      </trkpt>
      <trkpt lat="44.86699" lon="5.36073">
        <ele>1139.78</ele>
        <time>2024-09-17T16:02:54Z</time>
      </trkpt>
      <trkpt lat="44.86671" lon="5.36075">
        <ele>1139.3</ele>
        <time>2024-09-17T16:03:16Z</time>
      </trkpt>
      <trkpt lat="44.86661" lon="5.36073">
        <ele>1141.22</ele>
        <time>2024-09-17T16:03:33Z</time>
      </trkpt>
      <trkpt lat="44.86658" lon="5.36076">
        <ele>1143.14</ele>
        <time>2024-09-17T16:03:35Z</time>
      </trkpt>
      <trkpt lat="44.86656" lon="5.36077">
        <ele>1144.59</ele>
        <time>2024-09-17T16:03:36Z</time>
      </trkpt>
      <trkpt lat="44.86628" lon="5.36081">
        <ele>1149.39</ele>
        <time>2024-09-17T16:03:50Z</time>
      </trkpt>
      <trkpt lat="44.86597" lon="5.36076">
        <ele>1150.35</ele>
        <time>2024-09-17T16:04:04Z</time>
      </trkpt>
      <trkpt lat="44.86574" lon="5.36075">
        <ele>1149.87</ele>
        <time>2024-09-17T16:04:16Z</time>
      </trkpt>
      <trkpt lat="44.86548" lon="5.36068">
        <ele>1149.87</ele>
        <time>2024-09-17T16:04:34Z</time>
      </trkpt>
      <trkpt lat="44.86534" lon="5.36057">
        <ele>1155.16</ele>
        <time>2024-09-17T16:04:50Z</time>
      </trkpt>
      <trkpt lat="44.86516" lon="5.36059">
        <ele>1159.01</ele>
        <time>2024-09-17T16:05:07Z</time>
      </trkpt>
      <trkpt lat="44.86488" lon="5.36058">
        <ele>1163.33</ele>
        <time>2024-09-17T16:05:25Z</time>
      </trkpt>
      <trkpt lat="44.86454" lon="5.36059">
        <ele>1162.37</ele>
        <time>2024-09-17T16:05:40Z</time>
      </trkpt>
      <trkpt lat="44.86427" lon="5.36063">
        <ele>1164.29</ele>
        <time>2024-09-17T16:05:59Z</time>
      </trkpt>
      <trkpt lat="44.86413" lon="5.36086">
        <ele>1166.7</ele>
        <time>2024-09-17T16:06:15Z</time>
      </trkpt>
      <trkpt lat="44.86405" lon="5.36113">
        <ele>1169.58</ele>
        <time>2024-09-17T16:06:29Z</time>
      </trkpt>
      <trkpt lat="44.86397" lon="5.36147">
        <ele>1170.06</ele>
        <time>2024-09-17T16:06:46Z</time>
      </trkpt>
      <trkpt lat="44.86396" lon="5.36185">
        <ele>1170.06</ele>
        <time>2024-09-17T16:07:02Z</time>
      </trkpt>
      <trkpt lat="44.86375" lon="5.36211">
        <ele>1170.06</ele>
        <time>2024-09-17T16:07:23Z</time>
      </trkpt>
      <trkpt lat="44.86365" lon="5.36232">
        <ele>1171.5</ele>
        <time>2024-09-17T16:07:38Z</time>
      </trkpt>
      <trkpt lat="44.86364" lon="5.36233">
        <ele>1171.98</ele>
        <time>2024-09-17T16:07:39Z</time>
      </trkpt>
      <trkpt lat="44.86361" lon="5.36236">
        <ele>1171.98</ele>
        <time>2024-09-17T16:07:44Z</time>
      </trkpt>
      <trkpt lat="44.8636" lon="5.36234">
        <ele>1171.98</ele>
        <time>2024-09-17T16:07:45Z</time>
      </trkpt>
      <trkpt lat="44.8636" lon="5.36233">
        <ele>1171.5</ele>
        <time>2024-09-17T16:07:46Z</time>
      </trkpt>
      <trkpt lat="44.86359" lon="5.36231">
        <ele>1171.5</ele>
        <time>2024-09-17T16:07:47Z</time>
      </trkpt>
      <trkpt lat="44.86358" lon="5.36229">
        <ele>1171.5</ele>
        <time>2024-09-17T16:07:48Z</time>
      </trkpt>
      <trkpt lat="44.86357" lon="5.36228">
        <ele>1171.5</ele>
        <time>2024-09-17T16:07:49Z</time>
      </trkpt>
      <trkpt lat="44.86355" lon="5.36227">
        <ele>1171.5</ele>
        <time>2024-09-17T16:07:50Z</time>
      </trkpt>
      <trkpt lat="44.86352" lon="5.36226">
        <ele>1171.5</ele>
        <time>2024-09-17T16:07:51Z</time>
      </trkpt>
      <trkpt lat="44.8635" lon="5.36226">
        <ele>1171.5</ele>
        <time>2024-09-17T16:07:52Z</time>
      </trkpt>
      <trkpt lat="44.86324" lon="5.3623">
        <ele>1172.95</ele>
        <time>2024-09-17T16:08:08Z</time>
      </trkpt>
      <trkpt lat="44.86307" lon="5.36233">
        <ele>1174.39</ele>
        <time>2024-09-17T16:08:23Z</time>
      </trkpt>
      <trkpt lat="44.86277" lon="5.36225">
        <ele>1176.31</ele>
        <time>2024-09-17T16:08:42Z</time>
      </trkpt>
      <trkpt lat="44.86253" lon="5.3621">
        <ele>1178.23</ele>
        <time>2024-09-17T16:08:59Z</time>
      </trkpt>
      <trkpt lat="44.8623" lon="5.36199">
        <ele>1185.44</ele>
        <time>2024-09-17T16:09:19Z</time>
      </trkpt>
      <trkpt lat="44.86207" lon="5.36189">
        <ele>1188.81</ele>
        <time>2024-09-17T16:09:35Z</time>
      </trkpt>
      <trkpt lat="44.86194" lon="5.36183">
        <ele>1190.25</ele>
        <time>2024-09-17T16:09:45Z</time>
      </trkpt>
      <trkpt lat="44.86192" lon="5.36183">
        <ele>1189.77</ele>
        <time>2024-09-17T16:09:46Z</time>
      </trkpt>
      <trkpt lat="44.86166" lon="5.36169">
        <ele>1189.29</ele>
        <time>2024-09-17T16:10:02Z</time>
      </trkpt>
      <trkpt lat="44.86143" lon="5.36149">
        <ele>1191.21</ele>
        <time>2024-09-17T16:10:23Z</time>
      </trkpt>
      <trkpt lat="44.86137" lon="5.36152">
        <ele>1192.65</ele>
        <time>2024-09-17T16:10:28Z</time>
      </trkpt>
      <trkpt lat="44.86107" lon="5.3617">
        <ele>1200.82</ele>
        <time>2024-09-17T16:10:47Z</time>
      </trkpt>
      <trkpt lat="44.86078" lon="5.36184">
        <ele>1203.71</ele>
        <time>2024-09-17T16:11:08Z</time>
      </trkpt>
      <trkpt lat="44.86071" lon="5.3618">
        <ele>1205.15</ele>
        <time>2024-09-17T16:11:14Z</time>
      </trkpt>
      <trkpt lat="44.86066" lon="5.3617">
        <ele>1208.03</ele>
        <time>2024-09-17T16:11:23Z</time>
      </trkpt>
      <trkpt lat="44.8605" lon="5.36139">
        <ele>1207.55</ele>
        <time>2024-09-17T16:11:39Z</time>
      </trkpt>
      <trkpt lat="44.86049" lon="5.36137">
        <ele>1207.55</ele>
        <time>2024-09-17T16:11:40Z</time>
      </trkpt>
      <trkpt lat="44.86046" lon="5.36103">
        <ele>1206.11</ele>
        <time>2024-09-17T16:11:55Z</time>
      </trkpt>
      <trkpt lat="44.86032" lon="5.36095">
        <ele>1209</ele>
        <time>2024-09-17T16:12:07Z</time>
      </trkpt>
      <trkpt lat="44.86015" lon="5.36098">
        <ele>1214.76</ele>
        <time>2024-09-17T16:12:18Z</time>
      </trkpt>
      <trkpt lat="44.86004" lon="5.3611">
        <ele>1216.69</ele>
        <time>2024-09-17T16:12:27Z</time>
      </trkpt>
      <trkpt lat="44.85998" lon="5.36111">
        <ele>1216.21</ele>
        <time>2024-09-17T16:12:31Z</time>
      </trkpt>
      <trkpt lat="44.85975" lon="5.36115">
        <ele>1214.76</ele>
        <time>2024-09-17T16:12:46Z</time>
      </trkpt>
      <trkpt lat="44.85952" lon="5.36114">
        <ele>1217.17</ele>
        <time>2024-09-17T16:13:00Z</time>
      </trkpt>
      <trkpt lat="44.85928" lon="5.36108">
        <ele>1222.45</ele>
        <time>2024-09-17T16:13:18Z</time>
      </trkpt>
      <trkpt lat="44.85906" lon="5.361">
        <ele>1222.93</ele>
        <time>2024-09-17T16:13:33Z</time>
      </trkpt>
      <trkpt lat="44.85882" lon="5.36086">
        <ele>1222.93</ele>
        <time>2024-09-17T16:13:51Z</time>
      </trkpt>
      <trkpt lat="44.85859" lon="5.36084">
        <ele>1222.93</ele>
        <time>2024-09-17T16:14:07Z</time>
      </trkpt>
      <trkpt lat="44.85845" lon="5.36077">
        <ele>1222.93</ele>
        <time>2024-09-17T16:14:17Z</time>
      </trkpt>
      <trkpt lat="44.85843" lon="5.36077">
        <ele>1222.93</ele>
        <time>2024-09-17T16:14:18Z</time>
      </trkpt>
      <trkpt lat="44.85822" lon="5.36074">
        <ele>1224.38</ele>
        <time>2024-09-17T16:14:34Z</time>
      </trkpt>
      <trkpt lat="44.85805" lon="5.36064">
        <ele>1226.3</ele>
        <time>2024-09-17T16:14:46Z</time>
      </trkpt>
      <trkpt lat="44.85804" lon="5.36063">
        <ele>1226.3</ele>
        <time>2024-09-17T16:14:47Z</time>
      </trkpt>
      <trkpt lat="44.85802" lon="5.36063">
        <ele>1226.78</ele>
        <time>2024-09-17T16:14:48Z</time>
      </trkpt>
      <trkpt lat="44.85785" lon="5.36059">
        <ele>1232.07</ele>
        <time>2024-09-17T16:15:02Z</time>
      </trkpt>
      <trkpt lat="44.85765" lon="5.36051">
        <ele>1235.91</ele>
        <time>2024-09-17T16:15:16Z</time>
      </trkpt>
      <trkpt lat="44.85752" lon="5.36048">
        <ele>1239.28</ele>
        <time>2024-09-17T16:15:26Z</time>
      </trkpt>
      <trkpt lat="44.85749" lon="5.36046">
        <ele>1240.24</ele>
        <time>2024-09-17T16:15:28Z</time>
      </trkpt>
      <trkpt lat="44.85726" lon="5.36041">
        <ele>1243.12</ele>
        <time>2024-09-17T16:15:43Z</time>
      </trkpt>
      <trkpt lat="44.85718" lon="5.36049">
        <ele>1244.08</ele>
        <time>2024-09-17T16:15:49Z</time>
      </trkpt>
      <trkpt lat="44.85717" lon="5.36052">
        <ele>1244.08</ele>
        <time>2024-09-17T16:15:50Z</time>
      </trkpt>
      <trkpt lat="44.85711" lon="5.36073">
        <ele>1246.97</ele>
        <time>2024-09-17T16:16:00Z</time>
      </trkpt>
      <trkpt lat="44.85709" lon="5.36099">
        <ele>1247.93</ele>
        <time>2024-09-17T16:16:14Z</time>
      </trkpt>
      <trkpt lat="44.85713" lon="5.36125">
        <ele>1245.53</ele>
        <time>2024-09-17T16:16:26Z</time>
      </trkpt>
      <trkpt lat="44.85713" lon="5.36148">
        <ele>1243.6</ele>
        <time>2024-09-17T16:16:37Z</time>
      </trkpt>
      <trkpt lat="44.85713" lon="5.36151">
        <ele>1243.6</ele>
        <time>2024-09-17T16:16:38Z</time>
      </trkpt>
      <trkpt lat="44.85714" lon="5.36153">
        <ele>1243.12</ele>
        <time>2024-09-17T16:16:39Z</time>
      </trkpt>
      <trkpt lat="44.85714" lon="5.36156">
        <ele>1242.64</ele>
        <time>2024-09-17T16:16:40Z</time>
      </trkpt>
      <trkpt lat="44.85715" lon="5.36158">
        <ele>1242.16</ele>
        <time>2024-09-17T16:16:41Z</time>
      </trkpt>
      <trkpt lat="44.85715" lon="5.3616">
        <ele>1241.68</ele>
        <time>2024-09-17T16:16:42Z</time>
      </trkpt>
      <trkpt lat="44.85715" lon="5.36163">
        <ele>1241.68</ele>
        <time>2024-09-17T16:16:43Z</time>
      </trkpt>
      <trkpt lat="44.8572" lon="5.3619">
        <ele>1237.35</ele>
        <time>2024-09-17T16:16:56Z</time>
      </trkpt>
      <trkpt lat="44.85723" lon="5.36222">
        <ele>1235.91</ele>
        <time>2024-09-17T16:17:10Z</time>
      </trkpt>
      <trkpt lat="44.85723" lon="5.36254">
        <ele>1233.51</ele>
        <time>2024-09-17T16:17:24Z</time>
      </trkpt>
      <trkpt lat="44.85724" lon="5.36284">
        <ele>1231.11</ele>
        <time>2024-09-17T16:17:40Z</time>
      </trkpt>
      <trkpt lat="44.85728" lon="5.36304">
        <ele>1229.18</ele>
        <time>2024-09-17T16:17:58Z</time>
      </trkpt>
      <trkpt lat="44.85727" lon="5.36304">
        <ele>1229.18</ele>
        <time>2024-09-17T16:18:22Z</time>
      </trkpt>
      <trkpt lat="44.85721" lon="5.36307">
        <ele>1229.66</ele>
        <time>2024-09-17T16:18:43Z</time>
      </trkpt>
      <trkpt lat="44.85721" lon="5.36286">
        <ele>1224.86</ele>
        <time>2024-09-17T16:19:04Z</time>
      </trkpt>
      <trkpt lat="44.85727" lon="5.36295">
        <ele>1222.93</ele>
        <time>2024-09-17T16:19:25Z</time>
      </trkpt>
      <trkpt lat="44.85723" lon="5.363">
        <ele>1224.86</ele>
        <time>2024-09-17T16:19:49Z</time>
      </trkpt>
      <trkpt lat="44.85723" lon="5.3628">
        <ele>1224.38</ele>
        <time>2024-09-17T16:20:13Z</time>
      </trkpt>
      <trkpt lat="44.85742" lon="5.36257">
        <ele>1220.53</ele>
        <time>2024-09-17T16:20:33Z</time>
      </trkpt>
      <trkpt lat="44.85732" lon="5.36272">
        <ele>1220.53</ele>
        <time>2024-09-17T16:20:56Z</time>
      </trkpt>
      <trkpt lat="44.85731" lon="5.36313">
        <ele>1224.38</ele>
        <time>2024-09-17T16:21:14Z</time>
      </trkpt>
      <trkpt lat="44.85722" lon="5.36329">
        <ele>1223.42</ele>
        <time>2024-09-17T16:21:24Z</time>
      </trkpt>
      <trkpt lat="44.85721" lon="5.36328">
        <ele>1223.42</ele>
        <time>2024-09-17T16:21:25Z</time>
      </trkpt>
      <trkpt lat="44.85698" lon="5.36315">
        <ele>1223.9</ele>
        <time>2024-09-17T16:21:43Z</time>
      </trkpt>
      <trkpt lat="44.85691" lon="5.3631">
        <ele>1223.42</ele>
        <time>2024-09-17T16:21:49Z</time>
      </trkpt>
      <trkpt lat="44.8567" lon="5.36295">
        <ele>1223.9</ele>
        <time>2024-09-17T16:22:07Z</time>
      </trkpt>
      <trkpt lat="44.8564" lon="5.36264">
        <ele>1222.93</ele>
        <time>2024-09-17T16:22:32Z</time>
      </trkpt>
      <trkpt lat="44.8561" lon="5.3626">
        <ele>1222.45</ele>
        <time>2024-09-17T16:22:52Z</time>
      </trkpt>
      <trkpt lat="44.85592" lon="5.3623">
        <ele>1220.53</ele>
        <time>2024-09-17T16:23:11Z</time>
      </trkpt>
      <trkpt lat="44.85578" lon="5.36186">
        <ele>1218.13</ele>
        <time>2024-09-17T16:23:35Z</time>
      </trkpt>
      <trkpt lat="44.85568" lon="5.36157">
        <ele>1214.28</ele>
        <time>2024-09-17T16:23:50Z</time>
      </trkpt>
      <trkpt lat="44.85558" lon="5.36113">
        <ele>1207.07</ele>
        <time>2024-09-17T16:24:10Z</time>
      </trkpt>
      <trkpt lat="44.85545" lon="5.36068">
        <ele>1201.79</ele>
        <time>2024-09-17T16:24:34Z</time>
      </trkpt>
      <trkpt lat="44.85528" lon="5.36051">
        <ele>1196.98</ele>
        <time>2024-09-17T16:24:50Z</time>
      </trkpt>
      <trkpt lat="44.85507" lon="5.3604">
        <ele>1197.94</ele>
        <time>2024-09-17T16:25:07Z</time>
      </trkpt>
      <trkpt lat="44.85491" lon="5.36063">
        <ele>1203.23</ele>
        <time>2024-09-17T16:25:28Z</time>
      </trkpt>
      <trkpt lat="44.85486" lon="5.36068">
        <ele>1203.23</ele>
        <time>2024-09-17T16:25:34Z</time>
      </trkpt>
      <trkpt lat="44.85461" lon="5.36098">
        <ele>1210.92</ele>
        <time>2024-09-17T16:25:50Z</time>
      </trkpt>
      <trkpt lat="44.85454" lon="5.36101">
        <ele>1213.32</ele>
        <time>2024-09-17T16:25:55Z</time>
      </trkpt>
      <trkpt lat="44.8543" lon="5.36138">
        <ele>1218.13</ele>
        <time>2024-09-17T16:26:13Z</time>
      </trkpt>
      <trkpt lat="44.85428" lon="5.36148">
        <ele>1221.01</ele>
        <time>2024-09-17T16:26:18Z</time>
      </trkpt>
      <trkpt lat="44.85427" lon="5.36191">
        <ele>1225.34</ele>
        <time>2024-09-17T16:26:38Z</time>
      </trkpt>
      <trkpt lat="44.85431" lon="5.3623">
        <ele>1223.42</ele>
        <time>2024-09-17T16:26:59Z</time>
      </trkpt>
      <trkpt lat="44.85431" lon="5.36266">
        <ele>1223.42</ele>
        <time>2024-09-17T16:27:17Z</time>
      </trkpt>
      <trkpt lat="44.85431" lon="5.36301">
        <ele>1220.05</ele>
        <time>2024-09-17T16:27:35Z</time>
      </trkpt>
      <trkpt lat="44.8543" lon="5.36339">
        <ele>1219.57</ele>
        <time>2024-09-17T16:27:53Z</time>
      </trkpt>
      <trkpt lat="44.85428" lon="5.36364">
        <ele>1217.65</ele>
        <time>2024-09-17T16:28:05Z</time>
      </trkpt>
      <trkpt lat="44.85427" lon="5.36384">
        <ele>1216.69</ele>
        <time>2024-09-17T16:28:15Z</time>
      </trkpt>
      <trkpt lat="44.8542" lon="5.36422">
        <ele>1212.84</ele>
        <time>2024-09-17T16:28:35Z</time>
      </trkpt>
      <trkpt lat="44.85413" lon="5.36474">
        <ele>1213.8</ele>
        <time>2024-09-17T16:28:56Z</time>
      </trkpt>
      <trkpt lat="44.85409" lon="5.36506">
        <ele>1214.76</ele>
        <time>2024-09-17T16:29:12Z</time>
      </trkpt>
      <trkpt lat="44.85399" lon="5.36545">
        <ele>1214.28</ele>
        <time>2024-09-17T16:29:31Z</time>
      </trkpt>
      <trkpt lat="44.85386" lon="5.36585">
        <ele>1213.32</ele>
        <time>2024-09-17T16:29:50Z</time>
      </trkpt>
      <trkpt lat="44.8538" lon="5.36616">
        <ele>1214.28</ele>
        <time>2024-09-17T16:30:08Z</time>
      </trkpt>
      <trkpt lat="44.85361" lon="5.36653">
        <ele>1219.57</ele>
        <time>2024-09-17T16:30:29Z</time>
      </trkpt>
      <trkpt lat="44.85342" lon="5.3667">
        <ele>1220.53</ele>
        <time>2024-09-17T16:30:44Z</time>
      </trkpt>
      <trkpt lat="44.85311" lon="5.36683">
        <ele>1219.09</ele>
        <time>2024-09-17T16:31:03Z</time>
      </trkpt>
      <trkpt lat="44.85283" lon="5.36696">
        <ele>1214.28</ele>
        <time>2024-09-17T16:31:23Z</time>
      </trkpt>
      <trkpt lat="44.85253" lon="5.36708">
        <ele>1212.84</ele>
        <time>2024-09-17T16:31:45Z</time>
      </trkpt>
      <trkpt lat="44.85222" lon="5.3672">
        <ele>1211.4</ele>
        <time>2024-09-17T16:32:07Z</time>
      </trkpt>
      <trkpt lat="44.85196" lon="5.36732">
        <ele>1208.03</ele>
        <time>2024-09-17T16:32:27Z</time>
      </trkpt>
      <trkpt lat="44.85172" lon="5.36738">
        <ele>1208.51</ele>
        <time>2024-09-17T16:32:42Z</time>
      </trkpt>
      <trkpt lat="44.8514" lon="5.3675">
        <ele>1209.48</ele>
        <time>2024-09-17T16:33:04Z</time>
      </trkpt>
      <trkpt lat="44.85107" lon="5.36759">
        <ele>1221.01</ele>
        <time>2024-09-17T16:33:27Z</time>
      </trkpt>
      <trkpt lat="44.85079" lon="5.36762">
        <ele>1224.38</ele>
        <time>2024-09-17T16:33:45Z</time>
      </trkpt>
      <trkpt lat="44.85053" lon="5.36771">
        <ele>1225.34</ele>
        <time>2024-09-17T16:34:04Z</time>
      </trkpt>
      <trkpt lat="44.85024" lon="5.36777">
        <ele>1223.42</ele>
        <time>2024-09-17T16:34:23Z</time>
      </trkpt>
      <trkpt lat="44.8499" lon="5.36784">
        <ele>1220.53</ele>
        <time>2024-09-17T16:34:46Z</time>
      </trkpt>
      <trkpt lat="44.84961" lon="5.36796">
        <ele>1220.05</ele>
        <time>2024-09-17T16:35:09Z</time>
      </trkpt>
      <trkpt lat="44.84928" lon="5.36809">
        <ele>1218.61</ele>
        <time>2024-09-17T16:35:31Z</time>
      </trkpt>
      <trkpt lat="44.84901" lon="5.36826">
        <ele>1214.76</ele>
        <time>2024-09-17T16:35:50Z</time>
      </trkpt>
      <trkpt lat="44.8488" lon="5.36844">
        <ele>1210.44</ele>
        <time>2024-09-17T16:36:09Z</time>
      </trkpt>
      <trkpt lat="44.84852" lon="5.36858">
        <ele>1211.4</ele>
        <time>2024-09-17T16:36:29Z</time>
      </trkpt>
      <trkpt lat="44.84825" lon="5.36872">
        <ele>1211.4</ele>
        <time>2024-09-17T16:36:49Z</time>
      </trkpt>
      <trkpt lat="44.84794" lon="5.36886">
        <ele>1212.36</ele>
        <time>2024-09-17T16:37:12Z</time>
      </trkpt>
      <trkpt lat="44.84757" lon="5.36894">
        <ele>1210.92</ele>
        <time>2024-09-17T16:37:34Z</time>
      </trkpt>
      <trkpt lat="44.84727" lon="5.36896">
        <ele>1210.92</ele>
        <time>2024-09-17T16:37:56Z</time>
      </trkpt>
      <trkpt lat="44.84689" lon="5.36898">
        <ele>1211.88</ele>
        <time>2024-09-17T16:38:15Z</time>
      </trkpt>
      <trkpt lat="44.84662" lon="5.36906">
        <ele>1211.88</ele>
        <time>2024-09-17T16:38:37Z</time>
      </trkpt>
      <trkpt lat="44.84655" lon="5.36913">
        <ele>1215.24</ele>
        <time>2024-09-17T16:38:42Z</time>
      </trkpt>
      <trkpt lat="44.84662" lon="5.36922">
        <ele>1214.28</ele>
        <time>2024-09-17T16:39:01Z</time>
      </trkpt>
      <trkpt lat="44.84674" lon="5.36922">
        <ele>1219.09</ele>
        <time>2024-09-17T16:39:18Z</time>
      </trkpt>
      <trkpt lat="44.84684" lon="5.36924">
        <ele>1217.17</ele>
        <time>2024-09-17T16:39:25Z</time>
      </trkpt>
      <trkpt lat="44.84691" lon="5.36926">
        <ele>1213.32</ele>
        <time>2024-09-17T16:39:39Z</time>
      </trkpt>
      <trkpt lat="44.84664" lon="5.36923">
        <ele>1209.48</ele>
        <time>2024-09-17T16:40:00Z</time>
      </trkpt>
      <trkpt lat="44.84647" lon="5.36922">
        <ele>1208.51</ele>
        <time>2024-09-17T16:40:14Z</time>
      </trkpt>
      <trkpt lat="44.84624" lon="5.3695">
        <ele>1215.24</ele>
        <time>2024-09-17T16:40:34Z</time>
      </trkpt>
      <trkpt lat="44.84596" lon="5.36981">
        <ele>1214.76</ele>
        <time>2024-09-17T16:40:57Z</time>
      </trkpt>
      <trkpt lat="44.84576" lon="5.37004">
        <ele>1209.96</ele>
        <time>2024-09-17T16:41:16Z</time>
      </trkpt>
      <trkpt lat="44.84554" lon="5.37025">
        <ele>1206.59</ele>
        <time>2024-09-17T16:41:34Z</time>
      </trkpt>
      <trkpt lat="44.84542" lon="5.37033">
        <ele>1206.59</ele>
        <time>2024-09-17T16:41:49Z</time>
      </trkpt>
      <trkpt lat="44.84525" lon="5.37036">
        <ele>1207.07</ele>
        <time>2024-09-17T16:42:00Z</time>
      </trkpt>
      <trkpt lat="44.84513" lon="5.37035">
        <ele>1207.07</ele>
        <time>2024-09-17T16:42:06Z</time>
      </trkpt>
      <trkpt lat="44.84479" lon="5.37029">
        <ele>1206.59</ele>
        <time>2024-09-17T16:42:25Z</time>
      </trkpt>
      <trkpt lat="44.84458" lon="5.37023">
        <ele>1207.55</ele>
        <time>2024-09-17T16:42:39Z</time>
      </trkpt>
      <trkpt lat="44.84439" lon="5.37014">
        <ele>1207.07</ele>
        <time>2024-09-17T16:42:55Z</time>
      </trkpt>
      <trkpt lat="44.84435" lon="5.37014">
        <ele>1207.07</ele>
        <time>2024-09-17T16:42:58Z</time>
      </trkpt>
      <trkpt lat="44.84425" lon="5.37035">
        <ele>1207.55</ele>
        <time>2024-09-17T16:43:15Z</time>
      </trkpt>
      <trkpt lat="44.84428" lon="5.37044">
        <ele>1207.55</ele>
        <time>2024-09-17T16:43:21Z</time>
      </trkpt>
      <trkpt lat="44.84445" lon="5.37063">
        <ele>1208.03</ele>
        <time>2024-09-17T16:43:37Z</time>
      </trkpt>
      <trkpt lat="44.84465" lon="5.37081">
        <ele>1205.63</ele>
        <time>2024-09-17T16:43:53Z</time>
      </trkpt>
      <trkpt lat="44.84482" lon="5.37099">
        <ele>1208.51</ele>
        <time>2024-09-17T16:44:08Z</time>
      </trkpt>
      <trkpt lat="44.84497" lon="5.37113">
        <ele>1206.11</ele>
        <time>2024-09-17T16:44:23Z</time>
      </trkpt>
      <trkpt lat="44.84514" lon="5.37127">
        <ele>1203.23</ele>
        <time>2024-09-17T16:44:37Z</time>
      </trkpt>
      <trkpt lat="44.84537" lon="5.37144">
        <ele>1205.63</ele>
        <time>2024-09-17T16:44:53Z</time>
      </trkpt>
      <trkpt lat="44.84556" lon="5.37158">
        <ele>1205.15</ele>
        <time>2024-09-17T16:45:08Z</time>
      </trkpt>
      <trkpt lat="44.84579" lon="5.37169">
        <ele>1199.86</ele>
        <time>2024-09-17T16:45:23Z</time>
      </trkpt>
      <trkpt lat="44.84592" lon="5.37178">
        <ele>1195.54</ele>
        <time>2024-09-17T16:45:37Z</time>
      </trkpt>
      <trkpt lat="44.84611" lon="5.3718">
        <ele>1192.65</ele>
        <time>2024-09-17T16:45:54Z</time>
      </trkpt>
      <trkpt lat="44.84626" lon="5.37186">
        <ele>1192.17</ele>
        <time>2024-09-17T16:46:10Z</time>
      </trkpt>
      <trkpt lat="44.84656" lon="5.37193">
        <ele>1195.06</ele>
        <time>2024-09-17T16:46:26Z</time>
      </trkpt>
      <trkpt lat="44.84685" lon="5.37196">
        <ele>1200.34</ele>
        <time>2024-09-17T16:46:45Z</time>
      </trkpt>
      <trkpt lat="44.84715" lon="5.37203">
        <ele>1198.9</ele>
        <time>2024-09-17T16:47:05Z</time>
      </trkpt>
      <trkpt lat="44.84741" lon="5.37209">
        <ele>1196.5</ele>
        <time>2024-09-17T16:47:27Z</time>
      </trkpt>
      <trkpt lat="44.84775" lon="5.37217">
        <ele>1198.42</ele>
        <time>2024-09-17T16:47:46Z</time>
      </trkpt>
      <trkpt lat="44.84798" lon="5.37228">
        <ele>1199.38</ele>
        <time>2024-09-17T16:48:04Z</time>
      </trkpt>
      <trkpt lat="44.84824" lon="5.37232">
        <ele>1197.94</ele>
        <time>2024-09-17T16:48:22Z</time>
      </trkpt>
      <trkpt lat="44.84842" lon="5.37212">
        <ele>1193.13</ele>
        <time>2024-09-17T16:48:39Z</time>
      </trkpt>
      <trkpt lat="44.84852" lon="5.37195">
        <ele>1190.25</ele>
        <time>2024-09-17T16:48:53Z</time>
      </trkpt>
      <trkpt lat="44.84852" lon="5.37197">
        <ele>1189.29</ele>
        <time>2024-09-17T16:49:25Z</time>
      </trkpt>
      <trkpt lat="44.84851" lon="5.37196">
        <ele>1189.77</ele>
        <time>2024-09-17T16:49:48Z</time>
      </trkpt>
      <trkpt lat="44.8485" lon="5.37196">
        <ele>1190.73</ele>
        <time>2024-09-17T16:50:04Z</time>
      </trkpt>
      <trkpt lat="44.8485" lon="5.37196">
        <ele>1187.37</ele>
        <time>2024-09-17T16:50:29Z</time>
      </trkpt>
      <trkpt lat="44.84848" lon="5.37197">
        <ele>1186.4</ele>
        <time>2024-09-17T16:50:42Z</time>
      </trkpt>
      <trkpt lat="44.84852" lon="5.37195">
        <ele>1185.92</ele>
        <time>2024-09-17T16:50:53Z</time>
      </trkpt>
      <trkpt lat="44.8485" lon="5.37198">
        <ele>1186.4</ele>
        <time>2024-09-17T16:51:09Z</time>
      </trkpt>
      <trkpt lat="44.84851" lon="5.37193">
        <ele>1186.4</ele>
        <time>2024-09-17T16:51:23Z</time>
      </trkpt>
      <trkpt lat="44.84852" lon="5.37194">
        <ele>1186.4</ele>
        <time>2024-09-17T16:51:38Z</time>
      </trkpt>
      <trkpt lat="44.84854" lon="5.37198">
        <ele>1187.37</ele>
        <time>2024-09-17T16:51:53Z</time>
      </trkpt>
      <trkpt lat="44.84853" lon="5.37197">
        <ele>1189.29</ele>
        <time>2024-09-17T16:52:14Z</time>
      </trkpt>
      <trkpt lat="44.84854" lon="5.37194">
        <ele>1189.29</ele>
        <time>2024-09-17T16:52:32Z</time>
      </trkpt>
      <trkpt lat="44.84854" lon="5.37197">
        <ele>1189.29</ele>
        <time>2024-09-17T16:52:49Z</time>
      </trkpt>
      <trkpt lat="44.84852" lon="5.37194">
        <ele>1188.81</ele>
        <time>2024-09-17T16:53:04Z</time>
      </trkpt>
      <trkpt lat="44.84853" lon="5.37197">
        <ele>1189.29</ele>
        <time>2024-09-17T16:53:21Z</time>
      </trkpt>
      <trkpt lat="44.84851" lon="5.37198">
        <ele>1192.17</ele>
        <time>2024-09-17T16:53:40Z</time>
      </trkpt>
      <trkpt lat="44.84852" lon="5.37199">
        <ele>1191.21</ele>
        <time>2024-09-17T16:54:01Z</time>
      </trkpt>
      <trkpt lat="44.84853" lon="5.372">
        <ele>1191.69</ele>
        <time>2024-09-17T16:54:22Z</time>
      </trkpt>
      <trkpt lat="44.84851" lon="5.37199">
        <ele>1191.21</ele>
        <time>2024-09-17T16:54:33Z</time>
      </trkpt>
      <trkpt lat="44.84854" lon="5.37198">
        <ele>1190.25</ele>
        <time>2024-09-17T16:54:47Z</time>
      </trkpt>
      <trkpt lat="44.84855" lon="5.37197">
        <ele>1190.25</ele>
        <time>2024-09-17T16:55:01Z</time>
      </trkpt>
      <trkpt lat="44.84854" lon="5.37199">
        <ele>1189.77</ele>
        <time>2024-09-17T16:55:05Z</time>
      </trkpt>
      <trkpt lat="44.84854" lon="5.37195">
        <ele>1189.77</ele>
        <time>2024-09-17T16:55:11Z</time>
      </trkpt>
      <trkpt lat="44.84856" lon="5.37195">
        <ele>1186.4</ele>
        <time>2024-09-17T16:55:26Z</time>
      </trkpt>
      <trkpt lat="44.84856" lon="5.37195">
        <ele>1187.37</ele>
        <time>2024-09-17T16:55:43Z</time>
      </trkpt>
      <trkpt lat="44.84856" lon="5.37198">
        <ele>1188.81</ele>
        <time>2024-09-17T16:56:06Z</time>
      </trkpt>
      <trkpt lat="44.84852" lon="5.37196">
        <ele>1187.85</ele>
        <time>2024-09-17T16:56:20Z</time>
      </trkpt>
      <trkpt lat="44.84854" lon="5.37196">
        <ele>1187.85</ele>
        <time>2024-09-17T16:56:38Z</time>
      </trkpt>
      <trkpt lat="44.84853" lon="5.37198">
        <ele>1188.81</ele>
        <time>2024-09-17T16:56:56Z</time>
      </trkpt>
      <trkpt lat="44.84856" lon="5.37196">
        <ele>1187.85</ele>
        <time>2024-09-17T16:57:12Z</time>
      </trkpt>
      <trkpt lat="44.84856" lon="5.37197">
        <ele>1186.88</ele>
        <time>2024-09-17T16:57:31Z</time>
      </trkpt>
      <trkpt lat="44.84853" lon="5.37198">
        <ele>1185.92</ele>
        <time>2024-09-17T16:57:47Z</time>
      </trkpt>
      <trkpt lat="44.84852" lon="5.37199">
        <ele>1187.85</ele>
        <time>2024-09-17T16:58:01Z</time>
      </trkpt>
      <trkpt lat="44.84852" lon="5.37198">
        <ele>1189.29</ele>
        <time>2024-09-17T16:58:30Z</time>
      </trkpt>
      <trkpt lat="44.84851" lon="5.37196">
        <ele>1190.73</ele>
        <time>2024-09-17T16:58:45Z</time>
      </trkpt>
      <trkpt lat="44.84851" lon="5.37197">
        <ele>1191.21</ele>
        <time>2024-09-17T16:59:12Z</time>
      </trkpt>
      <trkpt lat="44.8485" lon="5.37193">
        <ele>1193.13</ele>
        <time>2024-09-17T16:59:30Z</time>
      </trkpt>
      <trkpt lat="44.84852" lon="5.37193">
        <ele>1189.29</ele>
        <time>2024-09-17T16:59:49Z</time>
      </trkpt>
      <trkpt lat="44.84852" lon="5.37196">
        <ele>1187.37</ele>
        <time>2024-09-17T17:00:14Z</time>
      </trkpt>
      <trkpt lat="44.84855" lon="5.37197">
        <ele>1185.44</ele>
        <time>2024-09-17T17:00:34Z</time>
      </trkpt>
      <trkpt lat="44.84854" lon="5.37196">
        <ele>1186.88</ele>
        <time>2024-09-17T17:00:55Z</time>
      </trkpt>
      <trkpt lat="44.84852" lon="5.37194">
        <ele>1189.29</ele>
        <time>2024-09-17T17:01:21Z</time>
      </trkpt>
      <trkpt lat="44.84852" lon="5.37194">
        <ele>1187.37</ele>
        <time>2024-09-17T17:01:42Z</time>
      </trkpt>
      <trkpt lat="44.84851" lon="5.37195">
        <ele>1186.4</ele>
        <time>2024-09-17T17:02:06Z</time>
      </trkpt>
      <trkpt lat="44.84852" lon="5.37196">
        <ele>1187.37</ele>
        <time>2024-09-17T17:02:28Z</time>
      </trkpt>
      <trkpt lat="44.84854" lon="5.37197">
        <ele>1189.77</ele>
        <time>2024-09-17T17:02:59Z</time>
      </trkpt>
      <trkpt lat="44.84853" lon="5.37198">
        <ele>1191.21</ele>
        <time>2024-09-17T17:03:20Z</time>
      </trkpt>
      <trkpt lat="44.84851" lon="5.372">
        <ele>1196.5</ele>
        <time>2024-09-17T17:03:41Z</time>
      </trkpt>
      <trkpt lat="44.84848" lon="5.37203">
        <ele>1196.02</ele>
        <time>2024-09-17T17:04:06Z</time>
      </trkpt>
      <trkpt lat="44.84849" lon="5.37201">
        <ele>1193.13</ele>
        <time>2024-09-17T17:04:36Z</time>
      </trkpt>
      <trkpt lat="44.84851" lon="5.37198">
        <ele>1193.13</ele>
        <time>2024-09-17T17:04:57Z</time>
      </trkpt>
      <trkpt lat="44.84851" lon="5.37197">
        <ele>1191.69</ele>
        <time>2024-09-17T17:05:13Z</time>
      </trkpt>
      <trkpt lat="44.84852" lon="5.37198">
        <ele>1190.73</ele>
        <time>2024-09-17T17:05:31Z</time>
      </trkpt>
      <trkpt lat="44.84851" lon="5.37199">
        <ele>1189.29</ele>
        <time>2024-09-17T17:05:44Z</time>
      </trkpt>
      <trkpt lat="44.8485" lon="5.37198">
        <ele>1191.21</ele>
        <time>2024-09-17T17:06:01Z</time>
      </trkpt>
      <trkpt lat="44.84851" lon="5.37197">
        <ele>1193.61</ele>
        <time>2024-09-17T17:06:20Z</time>
        <extensions>
          <visugpx:TrkExtension xmlns:visugpx="https://www.visugpx.com/editgpx/">
            <visugpx:node>1</visugpx:node>
            </visugpx:TrkExtension>
        </extensions>
      </trkpt>
    </trkseg>
  </trk>
</gpx>